<?xml version="1.0" encoding="UTF-8" standalone="no" ?>
<gpx xmlns="http://www.topografix.com/GPX/1/1" xmlns:xsi="http://www.w3.org/2001/XMLSchema-instance" xsi:schemaLocation="http://www.topografix.com/GPX/1/1 http://www.topografix.com/GPX/1/1/gpx.xsd" version="1.1" creator="VisuGPX - https://www.visugpx.com">
  <metadata>
    <name>pont Sénégats - Saint Jean Del Frech</name>
    <desc><![CDATA[réalisée
]]></desc>
  </metadata>
  <trk>
    <name><![CDATA[2020-03-27-01]]></name>
    <trkseg>
      <trkpt lat="43.73776" lon="2.47359">
        <ele>436.3</ele>
        <time>2020-03-27T09:31:34Z</time>
      </trkpt>
      <trkpt lat="43.73776" lon="2.47359">
        <ele>436.3</ele>
        <time>2020-03-27T09:31:35Z</time>
      </trkpt>
      <trkpt lat="43.73783" lon="2.47368">
        <ele>436.8</ele>
        <time>2020-03-27T09:31:51Z</time>
      </trkpt>
      <trkpt lat="43.73782" lon="2.47381">
        <ele>437.1</ele>
        <time>2020-03-27T09:31:59Z</time>
      </trkpt>
      <trkpt lat="43.73782" lon="2.47394">
        <ele>437.1</ele>
        <time>2020-03-27T09:32:05Z</time>
      </trkpt>
      <trkpt lat="43.73782" lon="2.47409">
        <ele>436.4</ele>
        <time>2020-03-27T09:32:09Z</time>
      </trkpt>
      <trkpt lat="43.73783" lon="2.47422">
        <ele>435.6</ele>
        <time>2020-03-27T09:32:12Z</time>
      </trkpt>
      <trkpt lat="43.73786" lon="2.47438">
        <ele>434.5</ele>
        <time>2020-03-27T09:32:16Z</time>
      </trkpt>
      <trkpt lat="43.73776" lon="2.47441">
        <ele>432.4</ele>
        <time>2020-03-27T09:32:23Z</time>
      </trkpt>
      <trkpt lat="43.73766" lon="2.47435">
        <ele>430.2</ele>
        <time>2020-03-27T09:32:26Z</time>
      </trkpt>
      <trkpt lat="43.73753" lon="2.47432">
        <ele>425</ele>
        <time>2020-03-27T09:32:29Z</time>
      </trkpt>
      <trkpt lat="43.73744" lon="2.47431">
        <ele>422.5</ele>
        <time>2020-03-27T09:32:31Z</time>
      </trkpt>
      <trkpt lat="43.73734" lon="2.47432">
        <ele>420.8</ele>
        <time>2020-03-27T09:32:33Z</time>
      </trkpt>
      <trkpt lat="43.73725" lon="2.47433">
        <ele>419.6</ele>
        <time>2020-03-27T09:32:35Z</time>
      </trkpt>
      <trkpt lat="43.73716" lon="2.47435">
        <ele>418.7</ele>
        <time>2020-03-27T09:32:37Z</time>
      </trkpt>
      <trkpt lat="43.73707" lon="2.47437">
        <ele>418.1</ele>
        <time>2020-03-27T09:32:39Z</time>
      </trkpt>
      <trkpt lat="43.73698" lon="2.4744">
        <ele>417.4</ele>
        <time>2020-03-27T09:32:41Z</time>
      </trkpt>
      <trkpt lat="43.73686" lon="2.47444">
        <ele>416.6</ele>
        <time>2020-03-27T09:32:44Z</time>
      </trkpt>
      <trkpt lat="43.73677" lon="2.47448">
        <ele>416.2</ele>
        <time>2020-03-27T09:32:47Z</time>
      </trkpt>
      <trkpt lat="43.73667" lon="2.47447">
        <ele>414.8</ele>
        <time>2020-03-27T09:32:50Z</time>
      </trkpt>
      <trkpt lat="43.73656" lon="2.47451">
        <ele>413.7</ele>
        <time>2020-03-27T09:32:53Z</time>
      </trkpt>
      <trkpt lat="43.73646" lon="2.47455">
        <ele>412.9</ele>
        <time>2020-03-27T09:32:56Z</time>
      </trkpt>
      <trkpt lat="43.73632" lon="2.47459">
        <ele>410</ele>
        <time>2020-03-27T09:32:59Z</time>
      </trkpt>
      <trkpt lat="43.73619" lon="2.47461">
        <ele>408.7</ele>
        <time>2020-03-27T09:33:02Z</time>
      </trkpt>
      <trkpt lat="43.73609" lon="2.47464">
        <ele>408</ele>
        <time>2020-03-27T09:33:04Z</time>
      </trkpt>
      <trkpt lat="43.73599" lon="2.47468">
        <ele>405</ele>
        <time>2020-03-27T09:33:06Z</time>
      </trkpt>
      <trkpt lat="43.73587" lon="2.47473">
        <ele>404</ele>
        <time>2020-03-27T09:33:08Z</time>
      </trkpt>
      <trkpt lat="43.73577" lon="2.47476">
        <ele>403.4</ele>
        <time>2020-03-27T09:33:10Z</time>
      </trkpt>
      <trkpt lat="43.73568" lon="2.4748">
        <ele>403.1</ele>
        <time>2020-03-27T09:33:12Z</time>
      </trkpt>
      <trkpt lat="43.73558" lon="2.47485">
        <ele>402.9</ele>
        <time>2020-03-27T09:33:14Z</time>
      </trkpt>
      <trkpt lat="43.73549" lon="2.47489">
        <ele>402.9</ele>
        <time>2020-03-27T09:33:16Z</time>
      </trkpt>
      <trkpt lat="43.7354" lon="2.47496">
        <ele>403.1</ele>
        <time>2020-03-27T09:33:18Z</time>
      </trkpt>
      <trkpt lat="43.7353" lon="2.47508">
        <ele>403.4</ele>
        <time>2020-03-27T09:33:21Z</time>
      </trkpt>
      <trkpt lat="43.73522" lon="2.47518">
        <ele>404.5</ele>
        <time>2020-03-27T09:33:23Z</time>
      </trkpt>
      <trkpt lat="43.73514" lon="2.47527">
        <ele>406.3</ele>
        <time>2020-03-27T09:33:25Z</time>
      </trkpt>
      <trkpt lat="43.73507" lon="2.47535">
        <ele>407.4</ele>
        <time>2020-03-27T09:33:27Z</time>
      </trkpt>
      <trkpt lat="43.73498" lon="2.47547">
        <ele>408.4</ele>
        <time>2020-03-27T09:33:30Z</time>
      </trkpt>
      <trkpt lat="43.73489" lon="2.47559">
        <ele>409.5</ele>
        <time>2020-03-27T09:33:33Z</time>
      </trkpt>
      <trkpt lat="43.73479" lon="2.47571">
        <ele>410.5</ele>
        <time>2020-03-27T09:33:36Z</time>
      </trkpt>
      <trkpt lat="43.7347" lon="2.47578">
        <ele>411.4</ele>
        <time>2020-03-27T09:33:39Z</time>
      </trkpt>
      <trkpt lat="43.73458" lon="2.47583">
        <ele>412.3</ele>
        <time>2020-03-27T09:33:42Z</time>
      </trkpt>
      <trkpt lat="43.73447" lon="2.47586">
        <ele>414.4</ele>
        <time>2020-03-27T09:33:44Z</time>
      </trkpt>
      <trkpt lat="43.73436" lon="2.47587">
        <ele>416.5</ele>
        <time>2020-03-27T09:33:46Z</time>
      </trkpt>
      <trkpt lat="43.73426" lon="2.47587">
        <ele>417.2</ele>
        <time>2020-03-27T09:33:48Z</time>
      </trkpt>
      <trkpt lat="43.73413" lon="2.47586">
        <ele>417.7</ele>
        <time>2020-03-27T09:33:51Z</time>
      </trkpt>
      <trkpt lat="43.73401" lon="2.4758">
        <ele>418.9</ele>
        <time>2020-03-27T09:33:54Z</time>
      </trkpt>
      <trkpt lat="43.73393" lon="2.47573">
        <ele>420.8</ele>
        <time>2020-03-27T09:33:56Z</time>
      </trkpt>
      <trkpt lat="43.73385" lon="2.47565">
        <ele>422.3</ele>
        <time>2020-03-27T09:33:58Z</time>
      </trkpt>
      <trkpt lat="43.73377" lon="2.47556">
        <ele>423.6</ele>
        <time>2020-03-27T09:34:00Z</time>
      </trkpt>
      <trkpt lat="43.7337" lon="2.47548">
        <ele>424.7</ele>
        <time>2020-03-27T09:34:02Z</time>
      </trkpt>
      <trkpt lat="43.73362" lon="2.47536">
        <ele>426.3</ele>
        <time>2020-03-27T09:34:04Z</time>
      </trkpt>
      <trkpt lat="43.73354" lon="2.47522">
        <ele>428</ele>
        <time>2020-03-27T09:34:07Z</time>
      </trkpt>
      <trkpt lat="43.73349" lon="2.47511">
        <ele>430.1</ele>
        <time>2020-03-27T09:34:09Z</time>
      </trkpt>
      <trkpt lat="43.73343" lon="2.47495">
        <ele>431.6</ele>
        <time>2020-03-27T09:34:12Z</time>
      </trkpt>
      <trkpt lat="43.73339" lon="2.4748">
        <ele>432</ele>
        <time>2020-03-27T09:34:15Z</time>
      </trkpt>
      <trkpt lat="43.73337" lon="2.47465">
        <ele>432.2</ele>
        <time>2020-03-27T09:34:18Z</time>
      </trkpt>
      <trkpt lat="43.73339" lon="2.47448">
        <ele>432.6</ele>
        <time>2020-03-27T09:34:21Z</time>
      </trkpt>
      <trkpt lat="43.73339" lon="2.47434">
        <ele>432.8</ele>
        <time>2020-03-27T09:34:23Z</time>
      </trkpt>
      <trkpt lat="43.7334" lon="2.4742">
        <ele>432.9</ele>
        <time>2020-03-27T09:34:25Z</time>
      </trkpt>
      <trkpt lat="43.73339" lon="2.47407">
        <ele>433.3</ele>
        <time>2020-03-27T09:34:27Z</time>
      </trkpt>
      <trkpt lat="43.7334" lon="2.47391">
        <ele>433.5</ele>
        <time>2020-03-27T09:34:30Z</time>
      </trkpt>
      <trkpt lat="43.73342" lon="2.47373">
        <ele>433.5</ele>
        <time>2020-03-27T09:34:33Z</time>
      </trkpt>
      <trkpt lat="43.73342" lon="2.47355">
        <ele>433.6</ele>
        <time>2020-03-27T09:34:36Z</time>
      </trkpt>
      <trkpt lat="43.73341" lon="2.47339">
        <ele>433.6</ele>
        <time>2020-03-27T09:34:39Z</time>
      </trkpt>
      <trkpt lat="43.7334" lon="2.47323">
        <ele>433.6</ele>
        <time>2020-03-27T09:34:42Z</time>
      </trkpt>
      <trkpt lat="43.73337" lon="2.47305">
        <ele>433.6</ele>
        <time>2020-03-27T09:34:45Z</time>
      </trkpt>
      <trkpt lat="43.73333" lon="2.4729">
        <ele>433.7</ele>
        <time>2020-03-27T09:34:48Z</time>
      </trkpt>
      <trkpt lat="43.73328" lon="2.47274">
        <ele>434.2</ele>
        <time>2020-03-27T09:34:51Z</time>
      </trkpt>
      <trkpt lat="43.73322" lon="2.47262">
        <ele>435</ele>
        <time>2020-03-27T09:34:53Z</time>
      </trkpt>
      <trkpt lat="43.73316" lon="2.4725">
        <ele>435.7</ele>
        <time>2020-03-27T09:34:55Z</time>
      </trkpt>
      <trkpt lat="43.73309" lon="2.47235">
        <ele>436.2</ele>
        <time>2020-03-27T09:34:58Z</time>
      </trkpt>
      <trkpt lat="43.73302" lon="2.47222">
        <ele>436.4</ele>
        <time>2020-03-27T09:35:00Z</time>
      </trkpt>
      <trkpt lat="43.73295" lon="2.47211">
        <ele>436.7</ele>
        <time>2020-03-27T09:35:02Z</time>
      </trkpt>
      <trkpt lat="43.73288" lon="2.472">
        <ele>437.1</ele>
        <time>2020-03-27T09:35:04Z</time>
      </trkpt>
      <trkpt lat="43.73281" lon="2.47192">
        <ele>437.3</ele>
        <time>2020-03-27T09:35:06Z</time>
      </trkpt>
      <trkpt lat="43.73273" lon="2.47187">
        <ele>437.8</ele>
        <time>2020-03-27T09:35:08Z</time>
      </trkpt>
      <trkpt lat="43.73263" lon="2.47184">
        <ele>438.2</ele>
        <time>2020-03-27T09:35:10Z</time>
      </trkpt>
      <trkpt lat="43.7325" lon="2.47183">
        <ele>438.2</ele>
        <time>2020-03-27T09:35:13Z</time>
      </trkpt>
      <trkpt lat="43.73237" lon="2.47185">
        <ele>438.2</ele>
        <time>2020-03-27T09:35:16Z</time>
      </trkpt>
      <trkpt lat="43.73227" lon="2.47187">
        <ele>438.3</ele>
        <time>2020-03-27T09:35:18Z</time>
      </trkpt>
      <trkpt lat="43.73219" lon="2.4719">
        <ele>438.4</ele>
        <time>2020-03-27T09:35:20Z</time>
      </trkpt>
      <trkpt lat="43.73207" lon="2.47195">
        <ele>438.7</ele>
        <time>2020-03-27T09:35:23Z</time>
      </trkpt>
      <trkpt lat="43.73195" lon="2.47199">
        <ele>438.8</ele>
        <time>2020-03-27T09:35:26Z</time>
      </trkpt>
      <trkpt lat="43.73185" lon="2.47203">
        <ele>438.9</ele>
        <time>2020-03-27T09:35:29Z</time>
      </trkpt>
      <trkpt lat="43.73175" lon="2.47207">
        <ele>438.9</ele>
        <time>2020-03-27T09:35:32Z</time>
      </trkpt>
      <trkpt lat="43.73161" lon="2.4721">
        <ele>438.8</ele>
        <time>2020-03-27T09:35:35Z</time>
      </trkpt>
      <trkpt lat="43.73152" lon="2.47211">
        <ele>438.7</ele>
        <time>2020-03-27T09:35:37Z</time>
      </trkpt>
      <trkpt lat="43.73142" lon="2.47209">
        <ele>438.9</ele>
        <time>2020-03-27T09:35:39Z</time>
      </trkpt>
      <trkpt lat="43.73133" lon="2.47206">
        <ele>439.3</ele>
        <time>2020-03-27T09:35:41Z</time>
      </trkpt>
      <trkpt lat="43.73124" lon="2.472">
        <ele>440</ele>
        <time>2020-03-27T09:35:43Z</time>
      </trkpt>
      <trkpt lat="43.73113" lon="2.47191">
        <ele>441.2</ele>
        <time>2020-03-27T09:35:46Z</time>
      </trkpt>
      <trkpt lat="43.73105" lon="2.47181">
        <ele>441.8</ele>
        <time>2020-03-27T09:35:48Z</time>
      </trkpt>
      <trkpt lat="43.73098" lon="2.4717">
        <ele>442.6</ele>
        <time>2020-03-27T09:35:50Z</time>
      </trkpt>
      <trkpt lat="43.73091" lon="2.4716">
        <ele>443.5</ele>
        <time>2020-03-27T09:35:52Z</time>
      </trkpt>
      <trkpt lat="43.73083" lon="2.47148">
        <ele>444.3</ele>
        <time>2020-03-27T09:35:54Z</time>
      </trkpt>
      <trkpt lat="43.73076" lon="2.47138">
        <ele>444.7</ele>
        <time>2020-03-27T09:35:56Z</time>
      </trkpt>
      <trkpt lat="43.73068" lon="2.47128">
        <ele>444.7</ele>
        <time>2020-03-27T09:35:58Z</time>
      </trkpt>
      <trkpt lat="43.73057" lon="2.47121">
        <ele>444.4</ele>
        <time>2020-03-27T09:36:00Z</time>
      </trkpt>
      <trkpt lat="43.73045" lon="2.47119">
        <ele>443.7</ele>
        <time>2020-03-27T09:36:02Z</time>
      </trkpt>
      <trkpt lat="43.73029" lon="2.4712">
        <ele>442.2</ele>
        <time>2020-03-27T09:36:04Z</time>
      </trkpt>
      <trkpt lat="43.73016" lon="2.47124">
        <ele>440.4</ele>
        <time>2020-03-27T09:36:06Z</time>
      </trkpt>
      <trkpt lat="43.73003" lon="2.47128">
        <ele>438.7</ele>
        <time>2020-03-27T09:36:08Z</time>
      </trkpt>
      <trkpt lat="43.72991" lon="2.47128">
        <ele>436.7</ele>
        <time>2020-03-27T09:36:10Z</time>
      </trkpt>
      <trkpt lat="43.7298" lon="2.47126">
        <ele>434.9</ele>
        <time>2020-03-27T09:36:12Z</time>
      </trkpt>
      <trkpt lat="43.72966" lon="2.4712">
        <ele>433.3</ele>
        <time>2020-03-27T09:36:14Z</time>
      </trkpt>
      <trkpt lat="43.72951" lon="2.4711">
        <ele>432.1</ele>
        <time>2020-03-27T09:36:16Z</time>
      </trkpt>
      <trkpt lat="43.72939" lon="2.47098">
        <ele>431.6</ele>
        <time>2020-03-27T09:36:18Z</time>
      </trkpt>
      <trkpt lat="43.72928" lon="2.47081">
        <ele>431.6</ele>
        <time>2020-03-27T09:36:20Z</time>
      </trkpt>
      <trkpt lat="43.72919" lon="2.47064">
        <ele>431.8</ele>
        <time>2020-03-27T09:36:22Z</time>
      </trkpt>
      <trkpt lat="43.7291" lon="2.47047">
        <ele>432.3</ele>
        <time>2020-03-27T09:36:24Z</time>
      </trkpt>
      <trkpt lat="43.72902" lon="2.47029">
        <ele>432.9</ele>
        <time>2020-03-27T09:36:26Z</time>
      </trkpt>
      <trkpt lat="43.72894" lon="2.47012">
        <ele>433.6</ele>
        <time>2020-03-27T09:36:28Z</time>
      </trkpt>
      <trkpt lat="43.72886" lon="2.46994">
        <ele>434.3</ele>
        <time>2020-03-27T09:36:30Z</time>
      </trkpt>
      <trkpt lat="43.7288" lon="2.46976">
        <ele>434.6</ele>
        <time>2020-03-27T09:36:32Z</time>
      </trkpt>
      <trkpt lat="43.72875" lon="2.46956">
        <ele>434.7</ele>
        <time>2020-03-27T09:36:34Z</time>
      </trkpt>
      <trkpt lat="43.72871" lon="2.46935">
        <ele>434.8</ele>
        <time>2020-03-27T09:36:36Z</time>
      </trkpt>
      <trkpt lat="43.72867" lon="2.46916">
        <ele>434.8</ele>
        <time>2020-03-27T09:36:38Z</time>
      </trkpt>
      <trkpt lat="43.72863" lon="2.46897">
        <ele>434.7</ele>
        <time>2020-03-27T09:36:40Z</time>
      </trkpt>
      <trkpt lat="43.7286" lon="2.46879">
        <ele>434.9</ele>
        <time>2020-03-27T09:36:42Z</time>
      </trkpt>
      <trkpt lat="43.72859" lon="2.46861">
        <ele>435.3</ele>
        <time>2020-03-27T09:36:44Z</time>
      </trkpt>
      <trkpt lat="43.72857" lon="2.46844">
        <ele>435.8</ele>
        <time>2020-03-27T09:36:46Z</time>
      </trkpt>
      <trkpt lat="43.72856" lon="2.46828">
        <ele>436.3</ele>
        <time>2020-03-27T09:36:48Z</time>
      </trkpt>
      <trkpt lat="43.72855" lon="2.46815">
        <ele>436.7</ele>
        <time>2020-03-27T09:36:50Z</time>
      </trkpt>
      <trkpt lat="43.72854" lon="2.468">
        <ele>437.1</ele>
        <time>2020-03-27T09:36:52Z</time>
      </trkpt>
      <trkpt lat="43.72852" lon="2.46782">
        <ele>437.6</ele>
        <time>2020-03-27T09:36:54Z</time>
      </trkpt>
      <trkpt lat="43.7285" lon="2.46766">
        <ele>438</ele>
        <time>2020-03-27T09:36:56Z</time>
      </trkpt>
      <trkpt lat="43.72849" lon="2.46752">
        <ele>438.4</ele>
        <time>2020-03-27T09:36:58Z</time>
      </trkpt>
      <trkpt lat="43.72847" lon="2.46737">
        <ele>439.1</ele>
        <time>2020-03-27T09:37:00Z</time>
      </trkpt>
      <trkpt lat="43.72845" lon="2.46724">
        <ele>439.4</ele>
        <time>2020-03-27T09:37:02Z</time>
      </trkpt>
      <trkpt lat="43.72844" lon="2.46712">
        <ele>439.5</ele>
        <time>2020-03-27T09:37:04Z</time>
      </trkpt>
      <trkpt lat="43.72843" lon="2.46695">
        <ele>439.6</ele>
        <time>2020-03-27T09:37:07Z</time>
      </trkpt>
      <trkpt lat="43.7284" lon="2.46678">
        <ele>439.8</ele>
        <time>2020-03-27T09:37:10Z</time>
      </trkpt>
      <trkpt lat="43.72838" lon="2.46662">
        <ele>440</ele>
        <time>2020-03-27T09:37:13Z</time>
      </trkpt>
      <trkpt lat="43.72835" lon="2.46649">
        <ele>440.2</ele>
        <time>2020-03-27T09:37:16Z</time>
      </trkpt>
      <trkpt lat="43.72834" lon="2.46634">
        <ele>440.3</ele>
        <time>2020-03-27T09:37:20Z</time>
      </trkpt>
      <trkpt lat="43.72832" lon="2.46619">
        <ele>440.4</ele>
        <time>2020-03-27T09:37:23Z</time>
      </trkpt>
      <trkpt lat="43.7283" lon="2.46606">
        <ele>440.4</ele>
        <time>2020-03-27T09:37:26Z</time>
      </trkpt>
      <trkpt lat="43.72827" lon="2.4659">
        <ele>440.5</ele>
        <time>2020-03-27T09:37:30Z</time>
      </trkpt>
      <trkpt lat="43.72826" lon="2.46577">
        <ele>440.7</ele>
        <time>2020-03-27T09:37:34Z</time>
      </trkpt>
      <trkpt lat="43.72823" lon="2.46565">
        <ele>441</ele>
        <time>2020-03-27T09:37:38Z</time>
      </trkpt>
      <trkpt lat="43.72822" lon="2.46552">
        <ele>441.5</ele>
        <time>2020-03-27T09:37:44Z</time>
      </trkpt>
      <trkpt lat="43.72819" lon="2.46539">
        <ele>442</ele>
        <time>2020-03-27T09:37:48Z</time>
      </trkpt>
      <trkpt lat="43.72819" lon="2.46524">
        <ele>442.5</ele>
        <time>2020-03-27T09:37:53Z</time>
      </trkpt>
      <trkpt lat="43.7282" lon="2.4651">
        <ele>442.8</ele>
        <time>2020-03-27T09:37:57Z</time>
      </trkpt>
      <trkpt lat="43.72825" lon="2.46499">
        <ele>443.3</ele>
        <time>2020-03-27T09:38:02Z</time>
      </trkpt>
      <trkpt lat="43.72831" lon="2.46488">
        <ele>443.8</ele>
        <time>2020-03-27T09:38:07Z</time>
      </trkpt>
      <trkpt lat="43.72838" lon="2.4648">
        <ele>444.5</ele>
        <time>2020-03-27T09:38:11Z</time>
      </trkpt>
      <trkpt lat="43.72843" lon="2.46466">
        <ele>445.2</ele>
        <time>2020-03-27T09:38:14Z</time>
      </trkpt>
      <trkpt lat="43.72845" lon="2.46452">
        <ele>445.8</ele>
        <time>2020-03-27T09:38:16Z</time>
      </trkpt>
      <trkpt lat="43.72847" lon="2.46438">
        <ele>446.9</ele>
        <time>2020-03-27T09:38:19Z</time>
      </trkpt>
      <trkpt lat="43.72842" lon="2.46421">
        <ele>447.7</ele>
        <time>2020-03-27T09:38:21Z</time>
      </trkpt>
      <trkpt lat="43.72846" lon="2.46405">
        <ele>449.5</ele>
        <time>2020-03-27T09:38:25Z</time>
      </trkpt>
      <trkpt lat="43.72852" lon="2.46393">
        <ele>451.1</ele>
        <time>2020-03-27T09:38:29Z</time>
      </trkpt>
      <trkpt lat="43.72858" lon="2.46379">
        <ele>452.3</ele>
        <time>2020-03-27T09:38:33Z</time>
      </trkpt>
      <trkpt lat="43.7286" lon="2.46366">
        <ele>452.8</ele>
        <time>2020-03-27T09:38:36Z</time>
      </trkpt>
      <trkpt lat="43.72865" lon="2.46356">
        <ele>453</ele>
        <time>2020-03-27T09:38:40Z</time>
      </trkpt>
      <trkpt lat="43.7287" lon="2.4634">
        <ele>452.9</ele>
        <time>2020-03-27T09:38:43Z</time>
      </trkpt>
      <trkpt lat="43.72874" lon="2.46327">
        <ele>452.7</ele>
        <time>2020-03-27T09:38:46Z</time>
      </trkpt>
      <trkpt lat="43.72879" lon="2.46317">
        <ele>452.5</ele>
        <time>2020-03-27T09:38:49Z</time>
      </trkpt>
      <trkpt lat="43.72885" lon="2.46305">
        <ele>452.2</ele>
        <time>2020-03-27T09:38:53Z</time>
      </trkpt>
      <trkpt lat="43.72893" lon="2.46296">
        <ele>452.1</ele>
        <time>2020-03-27T09:38:57Z</time>
      </trkpt>
      <trkpt lat="43.72904" lon="2.46288">
        <ele>452.1</ele>
        <time>2020-03-27T09:39:00Z</time>
      </trkpt>
      <trkpt lat="43.72915" lon="2.46283">
        <ele>452.4</ele>
        <time>2020-03-27T09:39:03Z</time>
      </trkpt>
      <trkpt lat="43.72926" lon="2.46277">
        <ele>452.9</ele>
        <time>2020-03-27T09:39:07Z</time>
      </trkpt>
      <trkpt lat="43.72937" lon="2.46271">
        <ele>453.4</ele>
        <time>2020-03-27T09:39:10Z</time>
      </trkpt>
      <trkpt lat="43.72948" lon="2.46264">
        <ele>453.9</ele>
        <time>2020-03-27T09:39:13Z</time>
      </trkpt>
      <trkpt lat="43.72958" lon="2.46255">
        <ele>455</ele>
        <time>2020-03-27T09:39:16Z</time>
      </trkpt>
      <trkpt lat="43.72964" lon="2.46245">
        <ele>456.4</ele>
        <time>2020-03-27T09:39:18Z</time>
      </trkpt>
      <trkpt lat="43.72969" lon="2.46228">
        <ele>457.2</ele>
        <time>2020-03-27T09:39:21Z</time>
      </trkpt>
      <trkpt lat="43.72971" lon="2.46213">
        <ele>457.6</ele>
        <time>2020-03-27T09:39:23Z</time>
      </trkpt>
      <trkpt lat="43.72973" lon="2.46198">
        <ele>457.4</ele>
        <time>2020-03-27T09:39:25Z</time>
      </trkpt>
      <trkpt lat="43.72975" lon="2.46181">
        <ele>456.9</ele>
        <time>2020-03-27T09:39:27Z</time>
      </trkpt>
      <trkpt lat="43.72977" lon="2.46162">
        <ele>456.2</ele>
        <time>2020-03-27T09:39:29Z</time>
      </trkpt>
      <trkpt lat="43.72979" lon="2.4614">
        <ele>455.6</ele>
        <time>2020-03-27T09:39:31Z</time>
      </trkpt>
      <trkpt lat="43.7298" lon="2.46119">
        <ele>455.2</ele>
        <time>2020-03-27T09:39:33Z</time>
      </trkpt>
      <trkpt lat="43.72982" lon="2.46098">
        <ele>454.6</ele>
        <time>2020-03-27T09:39:35Z</time>
      </trkpt>
      <trkpt lat="43.72975" lon="2.4608">
        <ele>454</ele>
        <time>2020-03-27T09:39:37Z</time>
      </trkpt>
      <trkpt lat="43.72973" lon="2.46063">
        <ele>453.3</ele>
        <time>2020-03-27T09:39:39Z</time>
      </trkpt>
      <trkpt lat="43.72975" lon="2.46051">
        <ele>452.9</ele>
        <time>2020-03-27T09:39:41Z</time>
      </trkpt>
      <trkpt lat="43.72975" lon="2.46036">
        <ele>452.7</ele>
        <time>2020-03-27T09:39:44Z</time>
      </trkpt>
      <trkpt lat="43.72976" lon="2.46019">
        <ele>452.5</ele>
        <time>2020-03-27T09:39:47Z</time>
      </trkpt>
      <trkpt lat="43.72975" lon="2.46005">
        <ele>452.5</ele>
        <time>2020-03-27T09:39:50Z</time>
      </trkpt>
      <trkpt lat="43.72974" lon="2.45991">
        <ele>452.5</ele>
        <time>2020-03-27T09:39:53Z</time>
      </trkpt>
      <trkpt lat="43.72974" lon="2.45979">
        <ele>452.6</ele>
        <time>2020-03-27T09:39:56Z</time>
      </trkpt>
      <trkpt lat="43.7297" lon="2.45966">
        <ele>452.6</ele>
        <time>2020-03-27T09:39:59Z</time>
      </trkpt>
      <trkpt lat="43.72964" lon="2.45956">
        <ele>452.6</ele>
        <time>2020-03-27T09:40:03Z</time>
      </trkpt>
      <trkpt lat="43.72955" lon="2.45951">
        <ele>452.5</ele>
        <time>2020-03-27T09:41:41Z</time>
      </trkpt>
      <trkpt lat="43.72947" lon="2.45959">
        <ele>452.4</ele>
        <time>2020-03-27T09:41:44Z</time>
      </trkpt>
      <trkpt lat="43.72936" lon="2.45968">
        <ele>451.4</ele>
        <time>2020-03-27T09:41:47Z</time>
      </trkpt>
      <trkpt lat="43.72926" lon="2.45979">
        <ele>450.3</ele>
        <time>2020-03-27T09:41:50Z</time>
      </trkpt>
      <trkpt lat="43.72915" lon="2.45988">
        <ele>449.3</ele>
        <time>2020-03-27T09:41:53Z</time>
      </trkpt>
      <trkpt lat="43.72906" lon="2.45996">
        <ele>448.8</ele>
        <time>2020-03-27T09:41:55Z</time>
      </trkpt>
      <trkpt lat="43.72899" lon="2.46004">
        <ele>448.5</ele>
        <time>2020-03-27T09:41:57Z</time>
      </trkpt>
      <trkpt lat="43.7289" lon="2.4601">
        <ele>448.1</ele>
        <time>2020-03-27T09:41:59Z</time>
      </trkpt>
      <trkpt lat="43.7288" lon="2.4602">
        <ele>447.8</ele>
        <time>2020-03-27T09:42:02Z</time>
      </trkpt>
      <trkpt lat="43.72872" lon="2.46027">
        <ele>447.8</ele>
        <time>2020-03-27T09:42:04Z</time>
      </trkpt>
      <trkpt lat="43.72862" lon="2.46035">
        <ele>447.9</ele>
        <time>2020-03-27T09:42:07Z</time>
      </trkpt>
      <trkpt lat="43.72851" lon="2.46042">
        <ele>448.1</ele>
        <time>2020-03-27T09:42:11Z</time>
      </trkpt>
      <trkpt lat="43.72843" lon="2.46049">
        <ele>448.2</ele>
        <time>2020-03-27T09:42:14Z</time>
      </trkpt>
      <trkpt lat="43.72833" lon="2.46055">
        <ele>448.4</ele>
        <time>2020-03-27T09:42:17Z</time>
      </trkpt>
      <trkpt lat="43.72824" lon="2.4606">
        <ele>448.6</ele>
        <time>2020-03-27T09:42:20Z</time>
      </trkpt>
      <trkpt lat="43.72816" lon="2.46068">
        <ele>449</ele>
        <time>2020-03-27T09:42:23Z</time>
      </trkpt>
      <trkpt lat="43.72806" lon="2.46075">
        <ele>449.5</ele>
        <time>2020-03-27T09:42:27Z</time>
      </trkpt>
      <trkpt lat="43.72796" lon="2.4608">
        <ele>450.2</ele>
        <time>2020-03-27T09:42:31Z</time>
      </trkpt>
      <trkpt lat="43.72784" lon="2.46087">
        <ele>451.3</ele>
        <time>2020-03-27T09:42:37Z</time>
      </trkpt>
      <trkpt lat="43.72776" lon="2.46097">
        <ele>453.4</ele>
        <time>2020-03-27T09:42:50Z</time>
      </trkpt>
      <trkpt lat="43.72766" lon="2.46099">
        <ele>454.3</ele>
        <time>2020-03-27T09:42:53Z</time>
      </trkpt>
      <trkpt lat="43.72756" lon="2.46101">
        <ele>455.1</ele>
        <time>2020-03-27T09:42:56Z</time>
      </trkpt>
      <trkpt lat="43.72745" lon="2.46103">
        <ele>456</ele>
        <time>2020-03-27T09:42:59Z</time>
      </trkpt>
      <trkpt lat="43.72736" lon="2.46104">
        <ele>457.1</ele>
        <time>2020-03-27T09:43:03Z</time>
      </trkpt>
      <trkpt lat="43.72726" lon="2.4611">
        <ele>458.4</ele>
        <time>2020-03-27T09:43:08Z</time>
      </trkpt>
      <trkpt lat="43.72716" lon="2.46114">
        <ele>459.4</ele>
        <time>2020-03-27T09:43:12Z</time>
      </trkpt>
      <trkpt lat="43.72707" lon="2.46117">
        <ele>460.2</ele>
        <time>2020-03-27T09:43:15Z</time>
      </trkpt>
      <trkpt lat="43.72697" lon="2.46116">
        <ele>461</ele>
        <time>2020-03-27T09:43:18Z</time>
      </trkpt>
      <trkpt lat="43.72688" lon="2.46119">
        <ele>461.8</ele>
        <time>2020-03-27T09:43:21Z</time>
      </trkpt>
      <trkpt lat="43.72676" lon="2.46121">
        <ele>462.7</ele>
        <time>2020-03-27T09:43:25Z</time>
      </trkpt>
      <trkpt lat="43.72665" lon="2.46123">
        <ele>463.5</ele>
        <time>2020-03-27T09:43:29Z</time>
      </trkpt>
      <trkpt lat="43.72656" lon="2.46126">
        <ele>464</ele>
        <time>2020-03-27T09:43:32Z</time>
      </trkpt>
      <trkpt lat="43.72646" lon="2.46129">
        <ele>464.7</ele>
        <time>2020-03-27T09:43:36Z</time>
      </trkpt>
      <trkpt lat="43.72638" lon="2.46134">
        <ele>465.2</ele>
        <time>2020-03-27T09:43:39Z</time>
      </trkpt>
      <trkpt lat="43.72629" lon="2.46139">
        <ele>465.7</ele>
        <time>2020-03-27T09:43:42Z</time>
      </trkpt>
      <trkpt lat="43.72619" lon="2.46146">
        <ele>466.3</ele>
        <time>2020-03-27T09:43:46Z</time>
      </trkpt>
      <trkpt lat="43.72611" lon="2.46152">
        <ele>466.7</ele>
        <time>2020-03-27T09:43:49Z</time>
      </trkpt>
      <trkpt lat="43.72603" lon="2.46159">
        <ele>467.1</ele>
        <time>2020-03-27T09:43:52Z</time>
      </trkpt>
      <trkpt lat="43.72596" lon="2.46167">
        <ele>467.4</ele>
        <time>2020-03-27T09:43:55Z</time>
      </trkpt>
      <trkpt lat="43.72588" lon="2.46177">
        <ele>467.7</ele>
        <time>2020-03-27T09:43:59Z</time>
      </trkpt>
      <trkpt lat="43.7258" lon="2.46186">
        <ele>468</ele>
        <time>2020-03-27T09:44:03Z</time>
      </trkpt>
      <trkpt lat="43.72571" lon="2.46197">
        <ele>468.2</ele>
        <time>2020-03-27T09:44:07Z</time>
      </trkpt>
      <trkpt lat="43.72564" lon="2.46208">
        <ele>468.4</ele>
        <time>2020-03-27T09:44:11Z</time>
      </trkpt>
      <trkpt lat="43.72557" lon="2.46219">
        <ele>468.5</ele>
        <time>2020-03-27T09:44:15Z</time>
      </trkpt>
      <trkpt lat="43.7255" lon="2.4623">
        <ele>468.6</ele>
        <time>2020-03-27T09:44:19Z</time>
      </trkpt>
      <trkpt lat="43.72545" lon="2.46241">
        <ele>468.6</ele>
        <time>2020-03-27T09:44:23Z</time>
      </trkpt>
      <trkpt lat="43.72539" lon="2.46251">
        <ele>468.6</ele>
        <time>2020-03-27T09:44:27Z</time>
      </trkpt>
      <trkpt lat="43.72531" lon="2.46262">
        <ele>468.7</ele>
        <time>2020-03-27T09:44:31Z</time>
      </trkpt>
      <trkpt lat="43.72523" lon="2.46273">
        <ele>468.9</ele>
        <time>2020-03-27T09:44:35Z</time>
      </trkpt>
      <trkpt lat="43.72515" lon="2.46285">
        <ele>469.2</ele>
        <time>2020-03-27T09:44:39Z</time>
      </trkpt>
      <trkpt lat="43.72509" lon="2.46297">
        <ele>469.5</ele>
        <time>2020-03-27T09:44:43Z</time>
      </trkpt>
      <trkpt lat="43.72504" lon="2.46311">
        <ele>470.1</ele>
        <time>2020-03-27T09:44:47Z</time>
      </trkpt>
      <trkpt lat="43.72498" lon="2.46324">
        <ele>470.8</ele>
        <time>2020-03-27T09:44:51Z</time>
      </trkpt>
      <trkpt lat="43.72494" lon="2.46338">
        <ele>471.7</ele>
        <time>2020-03-27T09:44:55Z</time>
      </trkpt>
      <trkpt lat="43.72489" lon="2.46352">
        <ele>472.9</ele>
        <time>2020-03-27T09:44:59Z</time>
      </trkpt>
      <trkpt lat="43.72485" lon="2.46366">
        <ele>474</ele>
        <time>2020-03-27T09:45:03Z</time>
      </trkpt>
      <trkpt lat="43.72478" lon="2.46378">
        <ele>474.9</ele>
        <time>2020-03-27T09:45:07Z</time>
      </trkpt>
      <trkpt lat="43.72473" lon="2.4639">
        <ele>475.8</ele>
        <time>2020-03-27T09:45:11Z</time>
      </trkpt>
      <trkpt lat="43.72467" lon="2.46402">
        <ele>476.6</ele>
        <time>2020-03-27T09:45:15Z</time>
      </trkpt>
      <trkpt lat="43.7246" lon="2.46413">
        <ele>477.6</ele>
        <time>2020-03-27T09:45:19Z</time>
      </trkpt>
      <trkpt lat="43.72452" lon="2.46425">
        <ele>478.6</ele>
        <time>2020-03-27T09:45:23Z</time>
      </trkpt>
      <trkpt lat="43.72445" lon="2.46434">
        <ele>479.7</ele>
        <time>2020-03-27T09:45:27Z</time>
      </trkpt>
      <trkpt lat="43.7244" lon="2.46445">
        <ele>480.6</ele>
        <time>2020-03-27T09:45:31Z</time>
      </trkpt>
      <trkpt lat="43.72436" lon="2.46458">
        <ele>481.6</ele>
        <time>2020-03-27T09:45:35Z</time>
      </trkpt>
      <trkpt lat="43.7243" lon="2.46469">
        <ele>482.7</ele>
        <time>2020-03-27T09:45:39Z</time>
      </trkpt>
      <trkpt lat="43.72424" lon="2.46479">
        <ele>483.8</ele>
        <time>2020-03-27T09:45:43Z</time>
      </trkpt>
      <trkpt lat="43.72419" lon="2.46491">
        <ele>484.7</ele>
        <time>2020-03-27T09:45:47Z</time>
      </trkpt>
      <trkpt lat="43.72413" lon="2.46501">
        <ele>485.6</ele>
        <time>2020-03-27T09:45:51Z</time>
      </trkpt>
      <trkpt lat="43.72407" lon="2.46513">
        <ele>486.4</ele>
        <time>2020-03-27T09:45:55Z</time>
      </trkpt>
      <trkpt lat="43.724" lon="2.46523">
        <ele>487.2</ele>
        <time>2020-03-27T09:45:59Z</time>
      </trkpt>
      <trkpt lat="43.72392" lon="2.46531">
        <ele>488.1</ele>
        <time>2020-03-27T09:46:03Z</time>
      </trkpt>
      <trkpt lat="43.72385" lon="2.46542">
        <ele>489</ele>
        <time>2020-03-27T09:46:08Z</time>
      </trkpt>
      <trkpt lat="43.7238" lon="2.46553">
        <ele>489.3</ele>
        <time>2020-03-27T09:46:12Z</time>
      </trkpt>
      <trkpt lat="43.72372" lon="2.46561">
        <ele>489.5</ele>
        <time>2020-03-27T09:46:15Z</time>
      </trkpt>
      <trkpt lat="43.72365" lon="2.46569">
        <ele>489.7</ele>
        <time>2020-03-27T09:46:19Z</time>
      </trkpt>
      <trkpt lat="43.72359" lon="2.46578">
        <ele>489.8</ele>
        <time>2020-03-27T09:46:22Z</time>
      </trkpt>
      <trkpt lat="43.7235" lon="2.46586">
        <ele>490.2</ele>
        <time>2020-03-27T09:46:26Z</time>
      </trkpt>
      <trkpt lat="43.72342" lon="2.46594">
        <ele>490.6</ele>
        <time>2020-03-27T09:46:29Z</time>
      </trkpt>
      <trkpt lat="43.72334" lon="2.46603">
        <ele>491.1</ele>
        <time>2020-03-27T09:46:33Z</time>
      </trkpt>
      <trkpt lat="43.72325" lon="2.46612">
        <ele>491.6</ele>
        <time>2020-03-27T09:46:37Z</time>
      </trkpt>
      <trkpt lat="43.72318" lon="2.46623">
        <ele>491.9</ele>
        <time>2020-03-27T09:46:41Z</time>
      </trkpt>
      <trkpt lat="43.72312" lon="2.46633">
        <ele>492.1</ele>
        <time>2020-03-27T09:46:45Z</time>
      </trkpt>
      <trkpt lat="43.72304" lon="2.46644">
        <ele>492.3</ele>
        <time>2020-03-27T09:46:49Z</time>
      </trkpt>
      <trkpt lat="43.72296" lon="2.46654">
        <ele>492.4</ele>
        <time>2020-03-27T09:46:53Z</time>
      </trkpt>
      <trkpt lat="43.72289" lon="2.46665">
        <ele>492.5</ele>
        <time>2020-03-27T09:46:57Z</time>
      </trkpt>
      <trkpt lat="43.72282" lon="2.46676">
        <ele>492.6</ele>
        <time>2020-03-27T09:47:02Z</time>
      </trkpt>
      <trkpt lat="43.72277" lon="2.46689">
        <ele>492.7</ele>
        <time>2020-03-27T09:47:06Z</time>
      </trkpt>
      <trkpt lat="43.72273" lon="2.46703">
        <ele>493</ele>
        <time>2020-03-27T09:47:11Z</time>
      </trkpt>
      <trkpt lat="43.72271" lon="2.46716">
        <ele>493.3</ele>
        <time>2020-03-27T09:47:15Z</time>
      </trkpt>
      <trkpt lat="43.72271" lon="2.46731">
        <ele>493.7</ele>
        <time>2020-03-27T09:47:20Z</time>
      </trkpt>
      <trkpt lat="43.72272" lon="2.46745">
        <ele>494.2</ele>
        <time>2020-03-27T09:47:24Z</time>
      </trkpt>
      <trkpt lat="43.72271" lon="2.46758">
        <ele>495</ele>
        <time>2020-03-27T09:47:29Z</time>
      </trkpt>
      <trkpt lat="43.7227" lon="2.46772">
        <ele>495.7</ele>
        <time>2020-03-27T09:47:34Z</time>
      </trkpt>
      <trkpt lat="43.72271" lon="2.46786">
        <ele>496.6</ele>
        <time>2020-03-27T09:47:39Z</time>
      </trkpt>
      <trkpt lat="43.72273" lon="2.468">
        <ele>497.8</ele>
        <time>2020-03-27T09:47:44Z</time>
      </trkpt>
      <trkpt lat="43.72275" lon="2.46813">
        <ele>498.9</ele>
        <time>2020-03-27T09:47:49Z</time>
      </trkpt>
      <trkpt lat="43.72278" lon="2.46827">
        <ele>500.1</ele>
        <time>2020-03-27T09:47:55Z</time>
      </trkpt>
      <trkpt lat="43.72282" lon="2.46842">
        <ele>501.1</ele>
        <time>2020-03-27T09:48:00Z</time>
      </trkpt>
      <trkpt lat="43.72285" lon="2.46855">
        <ele>502.2</ele>
        <time>2020-03-27T09:48:05Z</time>
      </trkpt>
      <trkpt lat="43.72287" lon="2.46867">
        <ele>502.9</ele>
        <time>2020-03-27T09:48:08Z</time>
      </trkpt>
      <trkpt lat="43.7229" lon="2.46879">
        <ele>503.9</ele>
        <time>2020-03-27T09:48:11Z</time>
      </trkpt>
      <trkpt lat="43.72292" lon="2.46892">
        <ele>505.5</ele>
        <time>2020-03-27T09:48:15Z</time>
      </trkpt>
      <trkpt lat="43.72293" lon="2.46904">
        <ele>508.3</ele>
        <time>2020-03-27T09:48:22Z</time>
      </trkpt>
      <trkpt lat="43.72293" lon="2.46919">
        <ele>510.2</ele>
        <time>2020-03-27T09:48:29Z</time>
      </trkpt>
      <trkpt lat="43.72291" lon="2.46933">
        <ele>511.4</ele>
        <time>2020-03-27T09:48:34Z</time>
      </trkpt>
      <trkpt lat="43.72291" lon="2.46947">
        <ele>512.2</ele>
        <time>2020-03-27T09:48:39Z</time>
      </trkpt>
      <trkpt lat="43.72292" lon="2.4696">
        <ele>512.4</ele>
        <time>2020-03-27T09:48:42Z</time>
      </trkpt>
      <trkpt lat="43.72294" lon="2.46975">
        <ele>513</ele>
        <time>2020-03-27T09:48:45Z</time>
      </trkpt>
      <trkpt lat="43.72294" lon="2.46991">
        <ele>514.7</ele>
        <time>2020-03-27T09:48:50Z</time>
      </trkpt>
      <trkpt lat="43.72295" lon="2.47003">
        <ele>516.3</ele>
        <time>2020-03-27T09:48:55Z</time>
      </trkpt>
      <trkpt lat="43.72292" lon="2.47016">
        <ele>517.4</ele>
        <time>2020-03-27T09:48:59Z</time>
      </trkpt>
      <trkpt lat="43.7229" lon="2.47028">
        <ele>518.4</ele>
        <time>2020-03-27T09:49:03Z</time>
      </trkpt>
      <trkpt lat="43.72286" lon="2.4704">
        <ele>519.4</ele>
        <time>2020-03-27T09:49:08Z</time>
      </trkpt>
      <trkpt lat="43.72286" lon="2.47055">
        <ele>520.1</ele>
        <time>2020-03-27T09:49:14Z</time>
      </trkpt>
      <trkpt lat="43.72288" lon="2.47068">
        <ele>520.2</ele>
        <time>2020-03-27T09:49:19Z</time>
      </trkpt>
      <trkpt lat="43.72288" lon="2.47082">
        <ele>520.1</ele>
        <time>2020-03-27T09:49:23Z</time>
      </trkpt>
      <trkpt lat="43.72289" lon="2.47096">
        <ele>520</ele>
        <time>2020-03-27T09:49:28Z</time>
      </trkpt>
      <trkpt lat="43.7229" lon="2.4711">
        <ele>520.1</ele>
        <time>2020-03-27T09:49:32Z</time>
      </trkpt>
      <trkpt lat="43.72289" lon="2.47125">
        <ele>520.3</ele>
        <time>2020-03-27T09:49:37Z</time>
      </trkpt>
      <trkpt lat="43.72288" lon="2.47138">
        <ele>520.7</ele>
        <time>2020-03-27T09:49:43Z</time>
      </trkpt>
      <trkpt lat="43.72291" lon="2.47152">
        <ele>521.1</ele>
        <time>2020-03-27T09:49:47Z</time>
      </trkpt>
      <trkpt lat="43.72291" lon="2.47167">
        <ele>522.2</ele>
        <time>2020-03-27T09:49:52Z</time>
      </trkpt>
      <trkpt lat="43.72293" lon="2.47179">
        <ele>523.1</ele>
        <time>2020-03-27T09:49:56Z</time>
      </trkpt>
      <trkpt lat="43.72295" lon="2.47194">
        <ele>524.3</ele>
        <time>2020-03-27T09:50:01Z</time>
      </trkpt>
      <trkpt lat="43.72299" lon="2.47208">
        <ele>525.9</ele>
        <time>2020-03-27T09:50:07Z</time>
      </trkpt>
      <trkpt lat="43.72299" lon="2.47224">
        <ele>527.7</ele>
        <time>2020-03-27T09:50:13Z</time>
      </trkpt>
      <trkpt lat="43.723" lon="2.47236">
        <ele>529.2</ele>
        <time>2020-03-27T09:50:17Z</time>
      </trkpt>
      <trkpt lat="43.723" lon="2.47252">
        <ele>531.1</ele>
        <time>2020-03-27T09:50:22Z</time>
      </trkpt>
      <trkpt lat="43.72297" lon="2.47264">
        <ele>532.7</ele>
        <time>2020-03-27T09:50:27Z</time>
      </trkpt>
      <trkpt lat="43.72295" lon="2.47279">
        <ele>534.3</ele>
        <time>2020-03-27T09:50:33Z</time>
      </trkpt>
      <trkpt lat="43.72292" lon="2.47292">
        <ele>535.4</ele>
        <time>2020-03-27T09:50:39Z</time>
      </trkpt>
      <trkpt lat="43.7229" lon="2.47305">
        <ele>536</ele>
        <time>2020-03-27T09:50:44Z</time>
      </trkpt>
      <trkpt lat="43.72288" lon="2.4732">
        <ele>536.9</ele>
        <time>2020-03-27T09:50:49Z</time>
      </trkpt>
      <trkpt lat="43.72286" lon="2.47333">
        <ele>537.9</ele>
        <time>2020-03-27T09:50:53Z</time>
      </trkpt>
      <trkpt lat="43.72284" lon="2.47345">
        <ele>539</ele>
        <time>2020-03-27T09:50:57Z</time>
      </trkpt>
      <trkpt lat="43.72278" lon="2.47357">
        <ele>540.4</ele>
        <time>2020-03-27T09:51:02Z</time>
      </trkpt>
      <trkpt lat="43.72275" lon="2.47369">
        <ele>541.2</ele>
        <time>2020-03-27T09:51:06Z</time>
      </trkpt>
      <trkpt lat="43.72274" lon="2.47383">
        <ele>541.9</ele>
        <time>2020-03-27T09:51:10Z</time>
      </trkpt>
      <trkpt lat="43.72273" lon="2.47397">
        <ele>542.7</ele>
        <time>2020-03-27T09:51:15Z</time>
      </trkpt>
      <trkpt lat="43.72272" lon="2.47412">
        <ele>543.2</ele>
        <time>2020-03-27T09:51:20Z</time>
      </trkpt>
      <trkpt lat="43.72274" lon="2.47424">
        <ele>543.7</ele>
        <time>2020-03-27T09:51:25Z</time>
      </trkpt>
      <trkpt lat="43.72276" lon="2.47437">
        <ele>543.9</ele>
        <time>2020-03-27T09:51:30Z</time>
      </trkpt>
      <trkpt lat="43.72281" lon="2.47448">
        <ele>543.8</ele>
        <time>2020-03-27T09:51:35Z</time>
      </trkpt>
      <trkpt lat="43.72289" lon="2.47456">
        <ele>543.8</ele>
        <time>2020-03-27T09:51:40Z</time>
      </trkpt>
      <trkpt lat="43.72296" lon="2.47465">
        <ele>544.1</ele>
        <time>2020-03-27T09:51:45Z</time>
      </trkpt>
      <trkpt lat="43.72304" lon="2.47472">
        <ele>544.6</ele>
        <time>2020-03-27T09:51:50Z</time>
      </trkpt>
      <trkpt lat="43.72312" lon="2.47478">
        <ele>545.1</ele>
        <time>2020-03-27T09:51:55Z</time>
      </trkpt>
      <trkpt lat="43.7232" lon="2.47486">
        <ele>545.2</ele>
        <time>2020-03-27T09:52:00Z</time>
      </trkpt>
      <trkpt lat="43.72328" lon="2.475">
        <ele>545.5</ele>
        <time>2020-03-27T09:52:04Z</time>
      </trkpt>
      <trkpt lat="43.72334" lon="2.47512">
        <ele>546.5</ele>
        <time>2020-03-27T09:52:08Z</time>
      </trkpt>
      <trkpt lat="43.72339" lon="2.47523">
        <ele>547.8</ele>
        <time>2020-03-27T09:52:11Z</time>
      </trkpt>
      <trkpt lat="43.72346" lon="2.47535">
        <ele>550.2</ele>
        <time>2020-03-27T09:52:15Z</time>
      </trkpt>
      <trkpt lat="43.72351" lon="2.47547">
        <ele>552.9</ele>
        <time>2020-03-27T09:52:19Z</time>
      </trkpt>
      <trkpt lat="43.72359" lon="2.47556">
        <ele>554.7</ele>
        <time>2020-03-27T09:52:22Z</time>
      </trkpt>
      <trkpt lat="43.72368" lon="2.47565">
        <ele>556</ele>
        <time>2020-03-27T09:52:25Z</time>
      </trkpt>
      <trkpt lat="43.72374" lon="2.47575">
        <ele>556.6</ele>
        <time>2020-03-27T09:52:28Z</time>
      </trkpt>
      <trkpt lat="43.7238" lon="2.47588">
        <ele>557</ele>
        <time>2020-03-27T09:52:32Z</time>
      </trkpt>
      <trkpt lat="43.72385" lon="2.476">
        <ele>557.2</ele>
        <time>2020-03-27T09:52:35Z</time>
      </trkpt>
      <trkpt lat="43.72389" lon="2.47611">
        <ele>557.5</ele>
        <time>2020-03-27T09:52:39Z</time>
      </trkpt>
      <trkpt lat="43.72391" lon="2.47625">
        <ele>557.8</ele>
        <time>2020-03-27T09:52:45Z</time>
      </trkpt>
      <trkpt lat="43.72388" lon="2.4764">
        <ele>558.6</ele>
        <time>2020-03-27T09:52:50Z</time>
      </trkpt>
      <trkpt lat="43.72382" lon="2.47652">
        <ele>559.4</ele>
        <time>2020-03-27T09:52:54Z</time>
      </trkpt>
      <trkpt lat="43.72375" lon="2.47662">
        <ele>560.1</ele>
        <time>2020-03-27T09:52:58Z</time>
      </trkpt>
      <trkpt lat="43.72368" lon="2.4767">
        <ele>560.8</ele>
        <time>2020-03-27T09:53:02Z</time>
      </trkpt>
      <trkpt lat="43.7236" lon="2.47677">
        <ele>561.4</ele>
        <time>2020-03-27T09:53:06Z</time>
      </trkpt>
      <trkpt lat="43.72351" lon="2.47684">
        <ele>562</ele>
        <time>2020-03-27T09:53:11Z</time>
      </trkpt>
      <trkpt lat="43.72343" lon="2.47688">
        <ele>562.3</ele>
        <time>2020-03-27T09:53:15Z</time>
      </trkpt>
      <trkpt lat="43.72334" lon="2.47694">
        <ele>562.5</ele>
        <time>2020-03-27T09:53:19Z</time>
      </trkpt>
      <trkpt lat="43.72324" lon="2.47701">
        <ele>562.6</ele>
        <time>2020-03-27T09:53:23Z</time>
      </trkpt>
      <trkpt lat="43.72316" lon="2.47707">
        <ele>562.6</ele>
        <time>2020-03-27T09:53:27Z</time>
      </trkpt>
      <trkpt lat="43.72308" lon="2.47715">
        <ele>562.5</ele>
        <time>2020-03-27T09:53:31Z</time>
      </trkpt>
      <trkpt lat="43.72298" lon="2.47722">
        <ele>562.2</ele>
        <time>2020-03-27T09:53:35Z</time>
      </trkpt>
      <trkpt lat="43.7229" lon="2.47731">
        <ele>561.8</ele>
        <time>2020-03-27T09:53:39Z</time>
      </trkpt>
      <trkpt lat="43.72282" lon="2.47741">
        <ele>561.3</ele>
        <time>2020-03-27T09:53:43Z</time>
      </trkpt>
      <trkpt lat="43.72274" lon="2.4775">
        <ele>560.9</ele>
        <time>2020-03-27T09:53:47Z</time>
      </trkpt>
      <trkpt lat="43.72267" lon="2.47761">
        <ele>560.4</ele>
        <time>2020-03-27T09:53:51Z</time>
      </trkpt>
      <trkpt lat="43.7226" lon="2.47771">
        <ele>560.1</ele>
        <time>2020-03-27T09:53:55Z</time>
      </trkpt>
      <trkpt lat="43.72253" lon="2.47782">
        <ele>559.7</ele>
        <time>2020-03-27T09:53:59Z</time>
      </trkpt>
      <trkpt lat="43.72247" lon="2.47793">
        <ele>559.4</ele>
        <time>2020-03-27T09:54:03Z</time>
      </trkpt>
      <trkpt lat="43.72242" lon="2.47805">
        <ele>559.2</ele>
        <time>2020-03-27T09:54:07Z</time>
      </trkpt>
      <trkpt lat="43.72236" lon="2.47817">
        <ele>559.1</ele>
        <time>2020-03-27T09:54:11Z</time>
      </trkpt>
      <trkpt lat="43.72232" lon="2.47828">
        <ele>558.9</ele>
        <time>2020-03-27T09:54:15Z</time>
      </trkpt>
      <trkpt lat="43.72226" lon="2.47841">
        <ele>558.7</ele>
        <time>2020-03-27T09:54:20Z</time>
      </trkpt>
      <trkpt lat="43.72221" lon="2.47852">
        <ele>558.5</ele>
        <time>2020-03-27T09:54:24Z</time>
      </trkpt>
      <trkpt lat="43.72223" lon="2.47865">
        <ele>558.2</ele>
        <time>2020-03-27T09:54:29Z</time>
      </trkpt>
      <trkpt lat="43.72231" lon="2.47856">
        <ele>558.7</ele>
        <time>2020-03-27T09:56:23Z</time>
      </trkpt>
      <trkpt lat="43.72234" lon="2.47842">
        <ele>559.2</ele>
        <time>2020-03-27T09:56:35Z</time>
      </trkpt>
      <trkpt lat="43.7224" lon="2.47828">
        <ele>559.3</ele>
        <time>2020-03-27T09:56:39Z</time>
      </trkpt>
      <trkpt lat="43.72247" lon="2.4782">
        <ele>559.5</ele>
        <time>2020-03-27T09:56:43Z</time>
      </trkpt>
      <trkpt lat="43.72256" lon="2.47812">
        <ele>559.6</ele>
        <time>2020-03-27T09:56:48Z</time>
      </trkpt>
      <trkpt lat="43.72266" lon="2.47804">
        <ele>559.8</ele>
        <time>2020-03-27T09:56:53Z</time>
      </trkpt>
      <trkpt lat="43.72274" lon="2.47797">
        <ele>560</ele>
        <time>2020-03-27T09:56:57Z</time>
      </trkpt>
      <trkpt lat="43.72282" lon="2.4779">
        <ele>560.4</ele>
        <time>2020-03-27T09:57:01Z</time>
      </trkpt>
      <trkpt lat="43.72292" lon="2.47782">
        <ele>561</ele>
        <time>2020-03-27T09:57:06Z</time>
      </trkpt>
      <trkpt lat="43.72301" lon="2.47775">
        <ele>561.5</ele>
        <time>2020-03-27T09:57:11Z</time>
      </trkpt>
      <trkpt lat="43.72311" lon="2.47768">
        <ele>561.8</ele>
        <time>2020-03-27T09:57:16Z</time>
      </trkpt>
      <trkpt lat="43.72319" lon="2.47762">
        <ele>562.1</ele>
        <time>2020-03-27T09:57:20Z</time>
      </trkpt>
      <trkpt lat="43.72329" lon="2.47756">
        <ele>562.6</ele>
        <time>2020-03-27T09:57:25Z</time>
      </trkpt>
      <trkpt lat="43.72337" lon="2.4775">
        <ele>563</ele>
        <time>2020-03-27T09:57:29Z</time>
      </trkpt>
      <trkpt lat="43.72347" lon="2.47743">
        <ele>563.7</ele>
        <time>2020-03-27T09:57:34Z</time>
      </trkpt>
      <trkpt lat="43.72357" lon="2.47737">
        <ele>564.5</ele>
        <time>2020-03-27T09:57:39Z</time>
      </trkpt>
      <trkpt lat="43.72366" lon="2.47733">
        <ele>565.4</ele>
        <time>2020-03-27T09:57:44Z</time>
      </trkpt>
      <trkpt lat="43.72374" lon="2.47728">
        <ele>566.5</ele>
        <time>2020-03-27T09:57:49Z</time>
      </trkpt>
      <trkpt lat="43.72384" lon="2.47728">
        <ele>568.7</ele>
        <time>2020-03-27T09:57:56Z</time>
      </trkpt>
      <trkpt lat="43.72393" lon="2.47731">
        <ele>571</ele>
        <time>2020-03-27T09:58:03Z</time>
      </trkpt>
      <trkpt lat="43.72404" lon="2.47734">
        <ele>573</ele>
        <time>2020-03-27T09:58:09Z</time>
      </trkpt>
      <trkpt lat="43.72414" lon="2.47733">
        <ele>574</ele>
        <time>2020-03-27T09:58:13Z</time>
      </trkpt>
      <trkpt lat="43.72423" lon="2.47729">
        <ele>574.9</ele>
        <time>2020-03-27T09:58:18Z</time>
      </trkpt>
      <trkpt lat="43.7243" lon="2.47718">
        <ele>575.4</ele>
        <time>2020-03-27T09:58:23Z</time>
      </trkpt>
      <trkpt lat="43.72434" lon="2.47707">
        <ele>576</ele>
        <time>2020-03-27T09:58:27Z</time>
      </trkpt>
      <trkpt lat="43.72441" lon="2.47696">
        <ele>576.6</ele>
        <time>2020-03-27T09:58:33Z</time>
      </trkpt>
      <trkpt lat="43.72445" lon="2.47683">
        <ele>577.2</ele>
        <time>2020-03-27T09:58:37Z</time>
      </trkpt>
      <trkpt lat="43.72448" lon="2.47669">
        <ele>578.6</ele>
        <time>2020-03-27T09:58:43Z</time>
      </trkpt>
      <trkpt lat="43.72451" lon="2.47657">
        <ele>580.1</ele>
        <time>2020-03-27T09:58:48Z</time>
      </trkpt>
      <trkpt lat="43.72453" lon="2.47644">
        <ele>581.7</ele>
        <time>2020-03-27T09:58:53Z</time>
      </trkpt>
      <trkpt lat="43.72454" lon="2.47631">
        <ele>582.9</ele>
        <time>2020-03-27T09:58:58Z</time>
      </trkpt>
      <trkpt lat="43.72451" lon="2.47619">
        <ele>584.3</ele>
        <time>2020-03-27T09:59:04Z</time>
      </trkpt>
      <trkpt lat="43.72449" lon="2.47604">
        <ele>585.9</ele>
        <time>2020-03-27T09:59:10Z</time>
      </trkpt>
      <trkpt lat="43.72446" lon="2.47591">
        <ele>587.6</ele>
        <time>2020-03-27T09:59:15Z</time>
      </trkpt>
      <trkpt lat="43.72445" lon="2.47578">
        <ele>589.3</ele>
        <time>2020-03-27T09:59:21Z</time>
      </trkpt>
      <trkpt lat="43.72446" lon="2.47566">
        <ele>590.5</ele>
        <time>2020-03-27T09:59:27Z</time>
      </trkpt>
      <trkpt lat="43.72442" lon="2.47553">
        <ele>591.1</ele>
        <time>2020-03-27T09:59:32Z</time>
      </trkpt>
      <trkpt lat="43.72441" lon="2.4754">
        <ele>592.2</ele>
        <time>2020-03-27T09:59:38Z</time>
      </trkpt>
      <trkpt lat="43.72436" lon="2.47525">
        <ele>592.5</ele>
        <time>2020-03-27T09:59:42Z</time>
      </trkpt>
      <trkpt lat="43.72431" lon="2.47511">
        <ele>592.6</ele>
        <time>2020-03-27T09:59:46Z</time>
      </trkpt>
      <trkpt lat="43.72425" lon="2.47498">
        <ele>592.5</ele>
        <time>2020-03-27T09:59:51Z</time>
      </trkpt>
      <trkpt lat="43.72418" lon="2.47488">
        <ele>592.4</ele>
        <time>2020-03-27T09:59:57Z</time>
      </trkpt>
      <trkpt lat="43.72415" lon="2.47472">
        <ele>592.3</ele>
        <time>2020-03-27T10:00:03Z</time>
      </trkpt>
      <trkpt lat="43.72411" lon="2.4746">
        <ele>592.2</ele>
        <time>2020-03-27T10:00:06Z</time>
      </trkpt>
      <trkpt lat="43.72413" lon="2.47445">
        <ele>592</ele>
        <time>2020-03-27T10:00:11Z</time>
      </trkpt>
      <trkpt lat="43.72414" lon="2.47432">
        <ele>591.8</ele>
        <time>2020-03-27T10:00:15Z</time>
      </trkpt>
      <trkpt lat="43.72419" lon="2.47419">
        <ele>591.6</ele>
        <time>2020-03-27T10:00:20Z</time>
      </trkpt>
      <trkpt lat="43.72422" lon="2.47403">
        <ele>591.3</ele>
        <time>2020-03-27T10:00:24Z</time>
      </trkpt>
      <trkpt lat="43.72421" lon="2.4739">
        <ele>590.9</ele>
        <time>2020-03-27T10:00:27Z</time>
      </trkpt>
      <trkpt lat="43.72424" lon="2.47375">
        <ele>590.6</ele>
        <time>2020-03-27T10:00:30Z</time>
      </trkpt>
      <trkpt lat="43.72426" lon="2.47359">
        <ele>590.4</ele>
        <time>2020-03-27T10:00:33Z</time>
      </trkpt>
      <trkpt lat="43.72426" lon="2.47347">
        <ele>590.4</ele>
        <time>2020-03-27T10:00:36Z</time>
      </trkpt>
      <trkpt lat="43.72428" lon="2.47332">
        <ele>590.7</ele>
        <time>2020-03-27T10:00:39Z</time>
      </trkpt>
      <trkpt lat="43.72428" lon="2.47317">
        <ele>591.1</ele>
        <time>2020-03-27T10:00:42Z</time>
      </trkpt>
      <trkpt lat="43.72434" lon="2.47305">
        <ele>591.7</ele>
        <time>2020-03-27T10:00:46Z</time>
      </trkpt>
      <trkpt lat="43.7244" lon="2.47293">
        <ele>592</ele>
        <time>2020-03-27T10:00:49Z</time>
      </trkpt>
      <trkpt lat="43.72442" lon="2.47278">
        <ele>592.2</ele>
        <time>2020-03-27T10:00:52Z</time>
      </trkpt>
      <trkpt lat="43.72446" lon="2.47265">
        <ele>592.6</ele>
        <time>2020-03-27T10:00:55Z</time>
      </trkpt>
      <trkpt lat="43.72452" lon="2.47254">
        <ele>593</ele>
        <time>2020-03-27T10:00:59Z</time>
      </trkpt>
      <trkpt lat="43.72457" lon="2.47244">
        <ele>593.2</ele>
        <time>2020-03-27T10:01:02Z</time>
      </trkpt>
      <trkpt lat="43.72462" lon="2.47232">
        <ele>593.3</ele>
        <time>2020-03-27T10:01:05Z</time>
      </trkpt>
      <trkpt lat="43.72466" lon="2.4722">
        <ele>593.4</ele>
        <time>2020-03-27T10:01:08Z</time>
      </trkpt>
      <trkpt lat="43.72474" lon="2.47211">
        <ele>593.5</ele>
        <time>2020-03-27T10:01:12Z</time>
      </trkpt>
      <trkpt lat="43.72481" lon="2.47222">
        <ele>594.2</ele>
        <time>2020-03-27T10:01:24Z</time>
      </trkpt>
      <trkpt lat="43.72481" lon="2.47237">
        <ele>594.2</ele>
        <time>2020-03-27T10:01:31Z</time>
      </trkpt>
      <trkpt lat="43.7248" lon="2.47251">
        <ele>594.4</ele>
        <time>2020-03-27T10:01:36Z</time>
      </trkpt>
      <trkpt lat="43.7248" lon="2.47264">
        <ele>595</ele>
        <time>2020-03-27T10:01:41Z</time>
      </trkpt>
      <trkpt lat="43.72482" lon="2.47278">
        <ele>595.9</ele>
        <time>2020-03-27T10:01:47Z</time>
      </trkpt>
      <trkpt lat="43.72481" lon="2.4729">
        <ele>596.8</ele>
        <time>2020-03-27T10:01:53Z</time>
      </trkpt>
      <trkpt lat="43.72478" lon="2.47303">
        <ele>597.8</ele>
        <time>2020-03-27T10:01:59Z</time>
      </trkpt>
      <trkpt lat="43.72478" lon="2.47318">
        <ele>598.9</ele>
        <time>2020-03-27T10:02:06Z</time>
      </trkpt>
      <trkpt lat="43.72479" lon="2.47332">
        <ele>599.9</ele>
        <time>2020-03-27T10:02:12Z</time>
      </trkpt>
      <trkpt lat="43.7248" lon="2.47346">
        <ele>600.7</ele>
        <time>2020-03-27T10:02:18Z</time>
      </trkpt>
      <trkpt lat="43.72481" lon="2.47359">
        <ele>601.7</ele>
        <time>2020-03-27T10:02:23Z</time>
      </trkpt>
      <trkpt lat="43.72483" lon="2.47374">
        <ele>603.1</ele>
        <time>2020-03-27T10:02:29Z</time>
      </trkpt>
      <trkpt lat="43.72484" lon="2.47387">
        <ele>604.5</ele>
        <time>2020-03-27T10:02:34Z</time>
      </trkpt>
      <trkpt lat="43.72481" lon="2.474">
        <ele>606.1</ele>
        <time>2020-03-27T10:02:40Z</time>
      </trkpt>
      <trkpt lat="43.72482" lon="2.47414">
        <ele>607.9</ele>
        <time>2020-03-27T10:02:46Z</time>
      </trkpt>
      <trkpt lat="43.72491" lon="2.47414">
        <ele>610.1</ele>
        <time>2020-03-27T10:02:53Z</time>
      </trkpt>
      <trkpt lat="43.72495" lon="2.47402">
        <ele>611.5</ele>
        <time>2020-03-27T10:02:58Z</time>
      </trkpt>
      <trkpt lat="43.72504" lon="2.47392">
        <ele>612.7</ele>
        <time>2020-03-27T10:03:04Z</time>
      </trkpt>
      <trkpt lat="43.72514" lon="2.4739">
        <ele>614.1</ele>
        <time>2020-03-27T10:03:10Z</time>
      </trkpt>
      <trkpt lat="43.72521" lon="2.474">
        <ele>615.6</ele>
        <time>2020-03-27T10:03:16Z</time>
      </trkpt>
      <trkpt lat="43.72528" lon="2.47409">
        <ele>616.4</ele>
        <time>2020-03-27T10:03:20Z</time>
      </trkpt>
      <trkpt lat="43.72531" lon="2.47423">
        <ele>617.3</ele>
        <time>2020-03-27T10:03:25Z</time>
      </trkpt>
      <trkpt lat="43.7253" lon="2.47437">
        <ele>618.7</ele>
        <time>2020-03-27T10:03:33Z</time>
      </trkpt>
      <trkpt lat="43.7253" lon="2.47449">
        <ele>620</ele>
        <time>2020-03-27T10:03:40Z</time>
      </trkpt>
      <trkpt lat="43.72534" lon="2.47461">
        <ele>620.7</ele>
        <time>2020-03-27T10:03:46Z</time>
      </trkpt>
      <trkpt lat="43.72538" lon="2.47473">
        <ele>621.4</ele>
        <time>2020-03-27T10:03:52Z</time>
      </trkpt>
      <trkpt lat="43.72541" lon="2.47485">
        <ele>622.3</ele>
        <time>2020-03-27T10:03:58Z</time>
      </trkpt>
      <trkpt lat="43.72545" lon="2.47497">
        <ele>624</ele>
        <time>2020-03-27T10:04:07Z</time>
      </trkpt>
      <trkpt lat="43.7255" lon="2.47509">
        <ele>624.9</ele>
        <time>2020-03-27T10:04:14Z</time>
      </trkpt>
      <trkpt lat="43.72554" lon="2.47521">
        <ele>625.7</ele>
        <time>2020-03-27T10:04:20Z</time>
      </trkpt>
      <trkpt lat="43.72559" lon="2.47531">
        <ele>626.7</ele>
        <time>2020-03-27T10:04:26Z</time>
      </trkpt>
      <trkpt lat="43.72562" lon="2.47544">
        <ele>628</ele>
        <time>2020-03-27T10:04:33Z</time>
      </trkpt>
      <trkpt lat="43.72565" lon="2.47557">
        <ele>629.1</ele>
        <time>2020-03-27T10:04:40Z</time>
      </trkpt>
      <trkpt lat="43.7257" lon="2.47569">
        <ele>630.3</ele>
        <time>2020-03-27T10:04:47Z</time>
      </trkpt>
      <trkpt lat="43.72575" lon="2.47581">
        <ele>631.1</ele>
        <time>2020-03-27T10:04:54Z</time>
      </trkpt>
      <trkpt lat="43.72577" lon="2.47595">
        <ele>631.7</ele>
        <time>2020-03-27T10:05:00Z</time>
      </trkpt>
      <trkpt lat="43.72579" lon="2.47607">
        <ele>632.5</ele>
        <time>2020-03-27T10:05:05Z</time>
      </trkpt>
      <trkpt lat="43.72583" lon="2.4762">
        <ele>634.1</ele>
        <time>2020-03-27T10:05:12Z</time>
      </trkpt>
      <trkpt lat="43.72589" lon="2.4763">
        <ele>635.7</ele>
        <time>2020-03-27T10:05:18Z</time>
      </trkpt>
      <trkpt lat="43.72598" lon="2.47627">
        <ele>637.2</ele>
        <time>2020-03-27T10:05:25Z</time>
      </trkpt>
      <trkpt lat="43.726" lon="2.47612">
        <ele>638.9</ele>
        <time>2020-03-27T10:05:33Z</time>
      </trkpt>
      <trkpt lat="43.72604" lon="2.47598">
        <ele>640.3</ele>
        <time>2020-03-27T10:05:39Z</time>
      </trkpt>
      <trkpt lat="43.72611" lon="2.4759">
        <ele>641.7</ele>
        <time>2020-03-27T10:05:44Z</time>
      </trkpt>
      <trkpt lat="43.7262" lon="2.47589">
        <ele>643.1</ele>
        <time>2020-03-27T10:05:49Z</time>
      </trkpt>
      <trkpt lat="43.72628" lon="2.47597">
        <ele>644.3</ele>
        <time>2020-03-27T10:05:54Z</time>
      </trkpt>
      <trkpt lat="43.72634" lon="2.47609">
        <ele>645.1</ele>
        <time>2020-03-27T10:06:00Z</time>
      </trkpt>
      <trkpt lat="43.72639" lon="2.47622">
        <ele>645.3</ele>
        <time>2020-03-27T10:06:05Z</time>
      </trkpt>
      <trkpt lat="43.72644" lon="2.47634">
        <ele>645.5</ele>
        <time>2020-03-27T10:06:10Z</time>
      </trkpt>
      <trkpt lat="43.72647" lon="2.47646">
        <ele>645.8</ele>
        <time>2020-03-27T10:06:15Z</time>
      </trkpt>
      <trkpt lat="43.72652" lon="2.47659">
        <ele>646.3</ele>
        <time>2020-03-27T10:06:21Z</time>
      </trkpt>
      <trkpt lat="43.72654" lon="2.47672">
        <ele>647.2</ele>
        <time>2020-03-27T10:06:29Z</time>
      </trkpt>
      <trkpt lat="43.72654" lon="2.47685">
        <ele>648.4</ele>
        <time>2020-03-27T10:06:38Z</time>
      </trkpt>
      <trkpt lat="43.72656" lon="2.47698">
        <ele>649.2</ele>
        <time>2020-03-27T10:06:44Z</time>
      </trkpt>
      <trkpt lat="43.72655" lon="2.47711">
        <ele>650.2</ele>
        <time>2020-03-27T10:06:50Z</time>
      </trkpt>
      <trkpt lat="43.72653" lon="2.47724">
        <ele>650.9</ele>
        <time>2020-03-27T10:06:56Z</time>
      </trkpt>
      <trkpt lat="43.72655" lon="2.47737">
        <ele>651.7</ele>
        <time>2020-03-27T10:07:01Z</time>
      </trkpt>
      <trkpt lat="43.72655" lon="2.47751">
        <ele>653.1</ele>
        <time>2020-03-27T10:07:08Z</time>
      </trkpt>
      <trkpt lat="43.72653" lon="2.47764">
        <ele>654.2</ele>
        <time>2020-03-27T10:07:16Z</time>
      </trkpt>
      <trkpt lat="43.72653" lon="2.47778">
        <ele>654.8</ele>
        <time>2020-03-27T10:07:24Z</time>
      </trkpt>
      <trkpt lat="43.72651" lon="2.47792">
        <ele>655.1</ele>
        <time>2020-03-27T10:07:30Z</time>
      </trkpt>
      <trkpt lat="43.7265" lon="2.47806">
        <ele>655.6</ele>
        <time>2020-03-27T10:07:35Z</time>
      </trkpt>
      <trkpt lat="43.72651" lon="2.47818">
        <ele>656</ele>
        <time>2020-03-27T10:07:39Z</time>
      </trkpt>
      <trkpt lat="43.72649" lon="2.47832">
        <ele>656.7</ele>
        <time>2020-03-27T10:07:44Z</time>
      </trkpt>
      <trkpt lat="43.72649" lon="2.47846">
        <ele>657.8</ele>
        <time>2020-03-27T10:07:50Z</time>
      </trkpt>
      <trkpt lat="43.72647" lon="2.47859">
        <ele>658.8</ele>
        <time>2020-03-27T10:07:56Z</time>
      </trkpt>
      <trkpt lat="43.72647" lon="2.47873">
        <ele>659.5</ele>
        <time>2020-03-27T10:08:02Z</time>
      </trkpt>
      <trkpt lat="43.72647" lon="2.47887">
        <ele>659.9</ele>
        <time>2020-03-27T10:08:07Z</time>
      </trkpt>
      <trkpt lat="43.72646" lon="2.47901">
        <ele>660.4</ele>
        <time>2020-03-27T10:08:13Z</time>
      </trkpt>
      <trkpt lat="43.72644" lon="2.47914">
        <ele>660.9</ele>
        <time>2020-03-27T10:08:19Z</time>
      </trkpt>
      <trkpt lat="43.72641" lon="2.47926">
        <ele>661.6</ele>
        <time>2020-03-27T10:08:26Z</time>
      </trkpt>
      <trkpt lat="43.72641" lon="2.4794">
        <ele>662.5</ele>
        <time>2020-03-27T10:08:32Z</time>
      </trkpt>
      <trkpt lat="43.72642" lon="2.47953">
        <ele>663.3</ele>
        <time>2020-03-27T10:08:37Z</time>
      </trkpt>
      <trkpt lat="43.72641" lon="2.47967">
        <ele>664.3</ele>
        <time>2020-03-27T10:08:43Z</time>
      </trkpt>
      <trkpt lat="43.7264" lon="2.47981">
        <ele>665.6</ele>
        <time>2020-03-27T10:08:50Z</time>
      </trkpt>
      <trkpt lat="43.72639" lon="2.47995">
        <ele>667</ele>
        <time>2020-03-27T10:08:56Z</time>
      </trkpt>
      <trkpt lat="43.72636" lon="2.48009">
        <ele>668.3</ele>
        <time>2020-03-27T10:09:01Z</time>
      </trkpt>
      <trkpt lat="43.72635" lon="2.48022">
        <ele>669.6</ele>
        <time>2020-03-27T10:09:06Z</time>
      </trkpt>
      <trkpt lat="43.72635" lon="2.48036">
        <ele>670.9</ele>
        <time>2020-03-27T10:09:11Z</time>
      </trkpt>
      <trkpt lat="43.72635" lon="2.48049">
        <ele>672.2</ele>
        <time>2020-03-27T10:09:16Z</time>
      </trkpt>
      <trkpt lat="43.72634" lon="2.48062">
        <ele>673.2</ele>
        <time>2020-03-27T10:09:21Z</time>
      </trkpt>
      <trkpt lat="43.72635" lon="2.48077">
        <ele>674.1</ele>
        <time>2020-03-27T10:09:26Z</time>
      </trkpt>
      <trkpt lat="43.72634" lon="2.48091">
        <ele>674.7</ele>
        <time>2020-03-27T10:09:30Z</time>
      </trkpt>
      <trkpt lat="43.72633" lon="2.48105">
        <ele>675.3</ele>
        <time>2020-03-27T10:09:34Z</time>
      </trkpt>
      <trkpt lat="43.72634" lon="2.4812">
        <ele>676.1</ele>
        <time>2020-03-27T10:09:38Z</time>
      </trkpt>
      <trkpt lat="43.72634" lon="2.48137">
        <ele>677</ele>
        <time>2020-03-27T10:09:42Z</time>
      </trkpt>
      <trkpt lat="43.72637" lon="2.48151">
        <ele>678</ele>
        <time>2020-03-27T10:09:46Z</time>
      </trkpt>
      <trkpt lat="43.72641" lon="2.48164">
        <ele>678.8</ele>
        <time>2020-03-27T10:09:49Z</time>
      </trkpt>
      <trkpt lat="43.72645" lon="2.48178">
        <ele>679.5</ele>
        <time>2020-03-27T10:09:52Z</time>
      </trkpt>
      <trkpt lat="43.72648" lon="2.48193">
        <ele>680.1</ele>
        <time>2020-03-27T10:09:56Z</time>
      </trkpt>
      <trkpt lat="43.72649" lon="2.48206">
        <ele>680.5</ele>
        <time>2020-03-27T10:09:59Z</time>
      </trkpt>
      <trkpt lat="43.72652" lon="2.48222">
        <ele>681.2</ele>
        <time>2020-03-27T10:10:03Z</time>
      </trkpt>
      <trkpt lat="43.72653" lon="2.48238">
        <ele>682.1</ele>
        <time>2020-03-27T10:10:07Z</time>
      </trkpt>
      <trkpt lat="43.72655" lon="2.48252">
        <ele>683.1</ele>
        <time>2020-03-27T10:10:11Z</time>
      </trkpt>
      <trkpt lat="43.72657" lon="2.48267">
        <ele>684</ele>
        <time>2020-03-27T10:10:15Z</time>
      </trkpt>
      <trkpt lat="43.72667" lon="2.48276">
        <ele>684.5</ele>
        <time>2020-03-27T10:10:18Z</time>
      </trkpt>
      <trkpt lat="43.72676" lon="2.48278">
        <ele>685</ele>
        <time>2020-03-27T10:10:21Z</time>
      </trkpt>
      <trkpt lat="43.72685" lon="2.4828">
        <ele>685.3</ele>
        <time>2020-03-27T10:12:30Z</time>
      </trkpt>
      <trkpt lat="43.72676" lon="2.48278">
        <ele>685.8</ele>
        <time>2020-03-27T10:12:46Z</time>
      </trkpt>
      <trkpt lat="43.72667" lon="2.48279">
        <ele>685.9</ele>
        <time>2020-03-27T10:12:49Z</time>
      </trkpt>
      <trkpt lat="43.72659" lon="2.48289">
        <ele>685.8</ele>
        <time>2020-03-27T10:12:51Z</time>
      </trkpt>
      <trkpt lat="43.72656" lon="2.48304">
        <ele>684.8</ele>
        <time>2020-03-27T10:12:53Z</time>
      </trkpt>
      <trkpt lat="43.72652" lon="2.48321">
        <ele>683.5</ele>
        <time>2020-03-27T10:12:56Z</time>
      </trkpt>
      <trkpt lat="43.72649" lon="2.48333">
        <ele>682.8</ele>
        <time>2020-03-27T10:12:58Z</time>
      </trkpt>
      <trkpt lat="43.72648" lon="2.48346">
        <ele>682</ele>
        <time>2020-03-27T10:13:00Z</time>
      </trkpt>
      <trkpt lat="43.72645" lon="2.4836">
        <ele>681.1</ele>
        <time>2020-03-27T10:13:02Z</time>
      </trkpt>
      <trkpt lat="43.72642" lon="2.48378">
        <ele>680.3</ele>
        <time>2020-03-27T10:13:04Z</time>
      </trkpt>
      <trkpt lat="43.72639" lon="2.48397">
        <ele>679.6</ele>
        <time>2020-03-27T10:13:06Z</time>
      </trkpt>
      <trkpt lat="43.72635" lon="2.48414">
        <ele>679.1</ele>
        <time>2020-03-27T10:13:08Z</time>
      </trkpt>
      <trkpt lat="43.72632" lon="2.48431">
        <ele>678.6</ele>
        <time>2020-03-27T10:13:10Z</time>
      </trkpt>
      <trkpt lat="43.72628" lon="2.48447">
        <ele>678.2</ele>
        <time>2020-03-27T10:13:12Z</time>
      </trkpt>
      <trkpt lat="43.72625" lon="2.48463">
        <ele>677.9</ele>
        <time>2020-03-27T10:13:14Z</time>
      </trkpt>
      <trkpt lat="43.72622" lon="2.48478">
        <ele>677.5</ele>
        <time>2020-03-27T10:13:16Z</time>
      </trkpt>
      <trkpt lat="43.72619" lon="2.48494">
        <ele>677.2</ele>
        <time>2020-03-27T10:13:18Z</time>
      </trkpt>
      <trkpt lat="43.72615" lon="2.4851">
        <ele>676.8</ele>
        <time>2020-03-27T10:13:20Z</time>
      </trkpt>
      <trkpt lat="43.72612" lon="2.48525">
        <ele>676.4</ele>
        <time>2020-03-27T10:13:22Z</time>
      </trkpt>
      <trkpt lat="43.72609" lon="2.48541">
        <ele>676</ele>
        <time>2020-03-27T10:13:24Z</time>
      </trkpt>
      <trkpt lat="43.72605" lon="2.48556">
        <ele>675.6</ele>
        <time>2020-03-27T10:13:26Z</time>
      </trkpt>
      <trkpt lat="43.72603" lon="2.48574">
        <ele>675.1</ele>
        <time>2020-03-27T10:13:28Z</time>
      </trkpt>
      <trkpt lat="43.72603" lon="2.48593">
        <ele>674.6</ele>
        <time>2020-03-27T10:13:30Z</time>
      </trkpt>
      <trkpt lat="43.72608" lon="2.48612">
        <ele>674.1</ele>
        <time>2020-03-27T10:13:32Z</time>
      </trkpt>
      <trkpt lat="43.72612" lon="2.4863">
        <ele>673.7</ele>
        <time>2020-03-27T10:13:34Z</time>
      </trkpt>
      <trkpt lat="43.72615" lon="2.48647">
        <ele>673.2</ele>
        <time>2020-03-27T10:13:36Z</time>
      </trkpt>
      <trkpt lat="43.72615" lon="2.48664">
        <ele>672.7</ele>
        <time>2020-03-27T10:13:38Z</time>
      </trkpt>
      <trkpt lat="43.72612" lon="2.4868">
        <ele>672.2</ele>
        <time>2020-03-27T10:13:40Z</time>
      </trkpt>
      <trkpt lat="43.72607" lon="2.48694">
        <ele>671.8</ele>
        <time>2020-03-27T10:13:42Z</time>
      </trkpt>
      <trkpt lat="43.72603" lon="2.48707">
        <ele>671.5</ele>
        <time>2020-03-27T10:13:44Z</time>
      </trkpt>
      <trkpt lat="43.72601" lon="2.48722">
        <ele>671.1</ele>
        <time>2020-03-27T10:13:46Z</time>
      </trkpt>
      <trkpt lat="43.72597" lon="2.48735">
        <ele>670.8</ele>
        <time>2020-03-27T10:13:48Z</time>
      </trkpt>
      <trkpt lat="43.72593" lon="2.48748">
        <ele>670.4</ele>
        <time>2020-03-27T10:13:50Z</time>
      </trkpt>
      <trkpt lat="43.72589" lon="2.48761">
        <ele>670.1</ele>
        <time>2020-03-27T10:13:52Z</time>
      </trkpt>
      <trkpt lat="43.72585" lon="2.48775">
        <ele>670</ele>
        <time>2020-03-27T10:13:54Z</time>
      </trkpt>
      <trkpt lat="43.7258" lon="2.48786">
        <ele>669.6</ele>
        <time>2020-03-27T10:13:56Z</time>
      </trkpt>
      <trkpt lat="43.72577" lon="2.48798">
        <ele>669.1</ele>
        <time>2020-03-27T10:13:58Z</time>
      </trkpt>
      <trkpt lat="43.72574" lon="2.4881">
        <ele>668.5</ele>
        <time>2020-03-27T10:14:00Z</time>
      </trkpt>
      <trkpt lat="43.7257" lon="2.48826">
        <ele>668.3</ele>
        <time>2020-03-27T10:14:03Z</time>
      </trkpt>
      <trkpt lat="43.72563" lon="2.48838">
        <ele>668.2</ele>
        <time>2020-03-27T10:14:06Z</time>
      </trkpt>
      <trkpt lat="43.72556" lon="2.48851">
        <ele>668.2</ele>
        <time>2020-03-27T10:14:09Z</time>
      </trkpt>
      <trkpt lat="43.72549" lon="2.48865">
        <ele>668.3</ele>
        <time>2020-03-27T10:14:12Z</time>
      </trkpt>
      <trkpt lat="43.72544" lon="2.48876">
        <ele>668.4</ele>
        <time>2020-03-27T10:14:14Z</time>
      </trkpt>
      <trkpt lat="43.72539" lon="2.48887">
        <ele>668.6</ele>
        <time>2020-03-27T10:14:16Z</time>
      </trkpt>
      <trkpt lat="43.72535" lon="2.48899">
        <ele>668.8</ele>
        <time>2020-03-27T10:14:18Z</time>
      </trkpt>
      <trkpt lat="43.72531" lon="2.48911">
        <ele>668.9</ele>
        <time>2020-03-27T10:14:20Z</time>
      </trkpt>
      <trkpt lat="43.72527" lon="2.48922">
        <ele>668.7</ele>
        <time>2020-03-27T10:14:22Z</time>
      </trkpt>
      <trkpt lat="43.72526" lon="2.48935">
        <ele>668.5</ele>
        <time>2020-03-27T10:14:24Z</time>
      </trkpt>
      <trkpt lat="43.72524" lon="2.48949">
        <ele>668.1</ele>
        <time>2020-03-27T10:14:26Z</time>
      </trkpt>
      <trkpt lat="43.72522" lon="2.48962">
        <ele>667.3</ele>
        <time>2020-03-27T10:14:28Z</time>
      </trkpt>
      <trkpt lat="43.72519" lon="2.48974">
        <ele>666.4</ele>
        <time>2020-03-27T10:14:30Z</time>
      </trkpt>
      <trkpt lat="43.72517" lon="2.4899">
        <ele>665.6</ele>
        <time>2020-03-27T10:14:32Z</time>
      </trkpt>
      <trkpt lat="43.72516" lon="2.49008">
        <ele>664.8</ele>
        <time>2020-03-27T10:14:34Z</time>
      </trkpt>
      <trkpt lat="43.72511" lon="2.49024">
        <ele>664.1</ele>
        <time>2020-03-27T10:14:36Z</time>
      </trkpt>
      <trkpt lat="43.72509" lon="2.49044">
        <ele>664.1</ele>
        <time>2020-03-27T10:14:38Z</time>
      </trkpt>
      <trkpt lat="43.72504" lon="2.49061">
        <ele>664.9</ele>
        <time>2020-03-27T10:14:40Z</time>
      </trkpt>
      <trkpt lat="43.725" lon="2.49076">
        <ele>665.8</ele>
        <time>2020-03-27T10:14:42Z</time>
      </trkpt>
      <trkpt lat="43.72494" lon="2.49089">
        <ele>666.7</ele>
        <time>2020-03-27T10:14:44Z</time>
      </trkpt>
      <trkpt lat="43.72487" lon="2.491">
        <ele>667.6</ele>
        <time>2020-03-27T10:14:46Z</time>
      </trkpt>
      <trkpt lat="43.72481" lon="2.4911">
        <ele>668.5</ele>
        <time>2020-03-27T10:14:48Z</time>
      </trkpt>
      <trkpt lat="43.72472" lon="2.49121">
        <ele>668.9</ele>
        <time>2020-03-27T10:14:51Z</time>
      </trkpt>
      <trkpt lat="43.72464" lon="2.49128">
        <ele>669.1</ele>
        <time>2020-03-27T10:14:54Z</time>
      </trkpt>
      <trkpt lat="43.72457" lon="2.49138">
        <ele>669.3</ele>
        <time>2020-03-27T10:14:58Z</time>
      </trkpt>
      <trkpt lat="43.7245" lon="2.49148">
        <ele>669.5</ele>
        <time>2020-03-27T10:15:02Z</time>
      </trkpt>
      <trkpt lat="43.72443" lon="2.49157">
        <ele>669.7</ele>
        <time>2020-03-27T10:15:06Z</time>
      </trkpt>
      <trkpt lat="43.72434" lon="2.49164">
        <ele>669.9</ele>
        <time>2020-03-27T10:15:11Z</time>
      </trkpt>
      <trkpt lat="43.72425" lon="2.49175">
        <ele>670.2</ele>
        <time>2020-03-27T10:15:16Z</time>
      </trkpt>
      <trkpt lat="43.72419" lon="2.49184">
        <ele>670.4</ele>
        <time>2020-03-27T10:15:20Z</time>
      </trkpt>
      <trkpt lat="43.72411" lon="2.49192">
        <ele>670.6</ele>
        <time>2020-03-27T10:15:25Z</time>
      </trkpt>
      <trkpt lat="43.72402" lon="2.492">
        <ele>670.9</ele>
        <time>2020-03-27T10:15:30Z</time>
      </trkpt>
      <trkpt lat="43.72395" lon="2.49209">
        <ele>671.3</ele>
        <time>2020-03-27T10:15:35Z</time>
      </trkpt>
      <trkpt lat="43.72386" lon="2.49217">
        <ele>671.8</ele>
        <time>2020-03-27T10:15:40Z</time>
      </trkpt>
      <trkpt lat="43.72378" lon="2.49226">
        <ele>672.3</ele>
        <time>2020-03-27T10:15:45Z</time>
      </trkpt>
      <trkpt lat="43.7237" lon="2.49234">
        <ele>672.9</ele>
        <time>2020-03-27T10:15:50Z</time>
      </trkpt>
      <trkpt lat="43.72362" lon="2.49242">
        <ele>673.6</ele>
        <time>2020-03-27T10:15:56Z</time>
      </trkpt>
      <trkpt lat="43.72355" lon="2.49251">
        <ele>674.3</ele>
        <time>2020-03-27T10:16:02Z</time>
      </trkpt>
      <trkpt lat="43.72346" lon="2.49257">
        <ele>675</ele>
        <time>2020-03-27T10:16:08Z</time>
      </trkpt>
      <trkpt lat="43.72338" lon="2.49266">
        <ele>675.8</ele>
        <time>2020-03-27T10:16:14Z</time>
      </trkpt>
      <trkpt lat="43.72331" lon="2.49274">
        <ele>676.7</ele>
        <time>2020-03-27T10:16:20Z</time>
      </trkpt>
      <trkpt lat="43.72322" lon="2.49281">
        <ele>677.7</ele>
        <time>2020-03-27T10:16:26Z</time>
      </trkpt>
      <trkpt lat="43.72313" lon="2.49287">
        <ele>678.7</ele>
        <time>2020-03-27T10:16:32Z</time>
      </trkpt>
      <trkpt lat="43.72305" lon="2.49294">
        <ele>679.5</ele>
        <time>2020-03-27T10:16:37Z</time>
      </trkpt>
      <trkpt lat="43.72297" lon="2.49302">
        <ele>680.4</ele>
        <time>2020-03-27T10:16:43Z</time>
      </trkpt>
      <trkpt lat="43.72288" lon="2.49311">
        <ele>681.4</ele>
        <time>2020-03-27T10:16:49Z</time>
      </trkpt>
      <trkpt lat="43.72279" lon="2.4932">
        <ele>682.4</ele>
        <time>2020-03-27T10:16:55Z</time>
      </trkpt>
      <trkpt lat="43.72271" lon="2.49328">
        <ele>683.3</ele>
        <time>2020-03-27T10:17:01Z</time>
      </trkpt>
      <trkpt lat="43.72264" lon="2.49337">
        <ele>684.1</ele>
        <time>2020-03-27T10:17:06Z</time>
      </trkpt>
      <trkpt lat="43.72257" lon="2.49346">
        <ele>684.9</ele>
        <time>2020-03-27T10:17:11Z</time>
      </trkpt>
      <trkpt lat="43.7225" lon="2.49354">
        <ele>685.8</ele>
        <time>2020-03-27T10:17:16Z</time>
      </trkpt>
      <trkpt lat="43.72243" lon="2.49363">
        <ele>686.6</ele>
        <time>2020-03-27T10:17:21Z</time>
      </trkpt>
      <trkpt lat="43.72236" lon="2.49371">
        <ele>687.5</ele>
        <time>2020-03-27T10:17:26Z</time>
      </trkpt>
      <trkpt lat="43.72229" lon="2.49379">
        <ele>688.4</ele>
        <time>2020-03-27T10:17:31Z</time>
      </trkpt>
      <trkpt lat="43.72222" lon="2.49388">
        <ele>689.4</ele>
        <time>2020-03-27T10:17:37Z</time>
      </trkpt>
      <trkpt lat="43.72215" lon="2.49396">
        <ele>690.2</ele>
        <time>2020-03-27T10:17:42Z</time>
      </trkpt>
      <trkpt lat="43.72207" lon="2.49404">
        <ele>691</ele>
        <time>2020-03-27T10:17:47Z</time>
      </trkpt>
      <trkpt lat="43.72199" lon="2.49414">
        <ele>691.8</ele>
        <time>2020-03-27T10:17:52Z</time>
      </trkpt>
      <trkpt lat="43.72191" lon="2.49424">
        <ele>692.5</ele>
        <time>2020-03-27T10:17:56Z</time>
      </trkpt>
      <trkpt lat="43.72185" lon="2.49433">
        <ele>693</ele>
        <time>2020-03-27T10:17:59Z</time>
      </trkpt>
      <trkpt lat="43.72179" lon="2.49443">
        <ele>693.5</ele>
        <time>2020-03-27T10:18:02Z</time>
      </trkpt>
      <trkpt lat="43.72173" lon="2.49456">
        <ele>694.1</ele>
        <time>2020-03-27T10:18:06Z</time>
      </trkpt>
      <trkpt lat="43.72167" lon="2.4947">
        <ele>694.8</ele>
        <time>2020-03-27T10:18:10Z</time>
      </trkpt>
      <trkpt lat="43.72162" lon="2.4948">
        <ele>695.4</ele>
        <time>2020-03-27T10:18:13Z</time>
      </trkpt>
      <trkpt lat="43.72156" lon="2.4949">
        <ele>695.9</ele>
        <time>2020-03-27T10:18:16Z</time>
      </trkpt>
      <trkpt lat="43.7215" lon="2.49502">
        <ele>696.5</ele>
        <time>2020-03-27T10:18:19Z</time>
      </trkpt>
      <trkpt lat="43.72145" lon="2.49513">
        <ele>697</ele>
        <time>2020-03-27T10:18:22Z</time>
      </trkpt>
      <trkpt lat="43.7214" lon="2.49525">
        <ele>697.6</ele>
        <time>2020-03-27T10:18:25Z</time>
      </trkpt>
      <trkpt lat="43.72136" lon="2.49537">
        <ele>698.1</ele>
        <time>2020-03-27T10:18:28Z</time>
      </trkpt>
      <trkpt lat="43.72131" lon="2.49551">
        <ele>698.7</ele>
        <time>2020-03-27T10:18:31Z</time>
      </trkpt>
      <trkpt lat="43.72126" lon="2.49566">
        <ele>701.6</ele>
        <time>2020-03-27T10:18:34Z</time>
      </trkpt>
      <trkpt lat="43.7212" lon="2.49581">
        <ele>702.9</ele>
        <time>2020-03-27T10:18:37Z</time>
      </trkpt>
      <trkpt lat="43.72113" lon="2.49598">
        <ele>703.7</ele>
        <time>2020-03-27T10:18:40Z</time>
      </trkpt>
      <trkpt lat="43.72106" lon="2.49612">
        <ele>704.4</ele>
        <time>2020-03-27T10:18:42Z</time>
      </trkpt>
      <trkpt lat="43.721" lon="2.49624">
        <ele>705.5</ele>
        <time>2020-03-27T10:18:44Z</time>
      </trkpt>
      <trkpt lat="43.72096" lon="2.49635">
        <ele>706.4</ele>
        <time>2020-03-27T10:18:46Z</time>
      </trkpt>
      <trkpt lat="43.72092" lon="2.49647">
        <ele>708.3</ele>
        <time>2020-03-27T10:18:48Z</time>
      </trkpt>
      <trkpt lat="43.72087" lon="2.49659">
        <ele>709.8</ele>
        <time>2020-03-27T10:18:50Z</time>
      </trkpt>
      <trkpt lat="43.72082" lon="2.49676">
        <ele>710.5</ele>
        <time>2020-03-27T10:18:53Z</time>
      </trkpt>
      <trkpt lat="43.7208" lon="2.49692">
        <ele>710.7</ele>
        <time>2020-03-27T10:18:56Z</time>
      </trkpt>
      <trkpt lat="43.72077" lon="2.49708">
        <ele>710.7</ele>
        <time>2020-03-27T10:18:59Z</time>
      </trkpt>
      <trkpt lat="43.72074" lon="2.49723">
        <ele>710.7</ele>
        <time>2020-03-27T10:19:02Z</time>
      </trkpt>
      <trkpt lat="43.72072" lon="2.49737">
        <ele>710.6</ele>
        <time>2020-03-27T10:19:05Z</time>
      </trkpt>
      <trkpt lat="43.72069" lon="2.49752">
        <ele>710.3</ele>
        <time>2020-03-27T10:19:08Z</time>
      </trkpt>
      <trkpt lat="43.72063" lon="2.49769">
        <ele>709.7</ele>
        <time>2020-03-27T10:19:11Z</time>
      </trkpt>
      <trkpt lat="43.72057" lon="2.49782">
        <ele>709</ele>
        <time>2020-03-27T10:19:13Z</time>
      </trkpt>
      <trkpt lat="43.72052" lon="2.49796">
        <ele>708.7</ele>
        <time>2020-03-27T10:19:15Z</time>
      </trkpt>
      <trkpt lat="43.72045" lon="2.49811">
        <ele>708.9</ele>
        <time>2020-03-27T10:19:17Z</time>
      </trkpt>
      <trkpt lat="43.72041" lon="2.49826">
        <ele>709.1</ele>
        <time>2020-03-27T10:19:19Z</time>
      </trkpt>
      <trkpt lat="43.72036" lon="2.49842">
        <ele>709.3</ele>
        <time>2020-03-27T10:19:21Z</time>
      </trkpt>
      <trkpt lat="43.72031" lon="2.4986">
        <ele>709.7</ele>
        <time>2020-03-27T10:19:23Z</time>
      </trkpt>
      <trkpt lat="43.72028" lon="2.49877">
        <ele>710</ele>
        <time>2020-03-27T10:19:25Z</time>
      </trkpt>
      <trkpt lat="43.72027" lon="2.49893">
        <ele>709.1</ele>
        <time>2020-03-27T10:19:27Z</time>
      </trkpt>
      <trkpt lat="43.72027" lon="2.49911">
        <ele>707.5</ele>
        <time>2020-03-27T10:19:29Z</time>
      </trkpt>
      <trkpt lat="43.72028" lon="2.49931">
        <ele>705.8</ele>
        <time>2020-03-27T10:19:31Z</time>
      </trkpt>
      <trkpt lat="43.72029" lon="2.49951">
        <ele>704.5</ele>
        <time>2020-03-27T10:19:33Z</time>
      </trkpt>
      <trkpt lat="43.7203" lon="2.4997">
        <ele>703.8</ele>
        <time>2020-03-27T10:19:35Z</time>
      </trkpt>
      <trkpt lat="43.72032" lon="2.49988">
        <ele>703.2</ele>
        <time>2020-03-27T10:19:37Z</time>
      </trkpt>
      <trkpt lat="43.72038" lon="2.50008">
        <ele>702.6</ele>
        <time>2020-03-27T10:19:39Z</time>
      </trkpt>
      <trkpt lat="43.72042" lon="2.50026">
        <ele>702</ele>
        <time>2020-03-27T10:19:41Z</time>
      </trkpt>
      <trkpt lat="43.72046" lon="2.50039">
        <ele>701.3</ele>
        <time>2020-03-27T10:19:43Z</time>
      </trkpt>
      <trkpt lat="43.72048" lon="2.50055">
        <ele>700.7</ele>
        <time>2020-03-27T10:19:45Z</time>
      </trkpt>
      <trkpt lat="43.72052" lon="2.50071">
        <ele>700.1</ele>
        <time>2020-03-27T10:19:47Z</time>
      </trkpt>
      <trkpt lat="43.72055" lon="2.5009">
        <ele>699.6</ele>
        <time>2020-03-27T10:19:49Z</time>
      </trkpt>
      <trkpt lat="43.72056" lon="2.50108">
        <ele>699.4</ele>
        <time>2020-03-27T10:19:51Z</time>
      </trkpt>
      <trkpt lat="43.72057" lon="2.50123">
        <ele>699.7</ele>
        <time>2020-03-27T10:19:53Z</time>
      </trkpt>
      <trkpt lat="43.72057" lon="2.50138">
        <ele>700.4</ele>
        <time>2020-03-27T10:19:55Z</time>
      </trkpt>
      <trkpt lat="43.72057" lon="2.50155">
        <ele>701.6</ele>
        <time>2020-03-27T10:19:57Z</time>
      </trkpt>
      <trkpt lat="43.72059" lon="2.50172">
        <ele>702.4</ele>
        <time>2020-03-27T10:19:59Z</time>
      </trkpt>
      <trkpt lat="43.72061" lon="2.50191">
        <ele>702.7</ele>
        <time>2020-03-27T10:20:01Z</time>
      </trkpt>
      <trkpt lat="43.72063" lon="2.50211">
        <ele>702.4</ele>
        <time>2020-03-27T10:20:03Z</time>
      </trkpt>
      <trkpt lat="43.72065" lon="2.50233">
        <ele>701.7</ele>
        <time>2020-03-27T10:20:05Z</time>
      </trkpt>
      <trkpt lat="43.72066" lon="2.50255">
        <ele>701.2</ele>
        <time>2020-03-27T10:20:07Z</time>
      </trkpt>
      <trkpt lat="43.72069" lon="2.50277">
        <ele>700.8</ele>
        <time>2020-03-27T10:20:09Z</time>
      </trkpt>
      <trkpt lat="43.72071" lon="2.50298">
        <ele>700.6</ele>
        <time>2020-03-27T10:20:11Z</time>
      </trkpt>
      <trkpt lat="43.72076" lon="2.50316">
        <ele>700.4</ele>
        <time>2020-03-27T10:20:13Z</time>
      </trkpt>
      <trkpt lat="43.72079" lon="2.5033">
        <ele>700.2</ele>
        <time>2020-03-27T10:20:15Z</time>
      </trkpt>
      <trkpt lat="43.7208" lon="2.50345">
        <ele>700.2</ele>
        <time>2020-03-27T10:20:18Z</time>
      </trkpt>
      <trkpt lat="43.7208" lon="2.5036">
        <ele>700.1</ele>
        <time>2020-03-27T10:20:22Z</time>
      </trkpt>
      <trkpt lat="43.72079" lon="2.50373">
        <ele>700.1</ele>
        <time>2020-03-27T10:20:26Z</time>
      </trkpt>
      <trkpt lat="43.72077" lon="2.50386">
        <ele>700.2</ele>
        <time>2020-03-27T10:20:31Z</time>
      </trkpt>
      <trkpt lat="43.72075" lon="2.50399">
        <ele>700.2</ele>
        <time>2020-03-27T10:20:37Z</time>
      </trkpt>
      <trkpt lat="43.72074" lon="2.50413">
        <ele>700.2</ele>
        <time>2020-03-27T10:20:43Z</time>
      </trkpt>
      <trkpt lat="43.72072" lon="2.50427">
        <ele>700.3</ele>
        <time>2020-03-27T10:20:49Z</time>
      </trkpt>
      <trkpt lat="43.7207" lon="2.5044">
        <ele>700.5</ele>
        <time>2020-03-27T10:20:54Z</time>
      </trkpt>
      <trkpt lat="43.72069" lon="2.50454">
        <ele>700.8</ele>
        <time>2020-03-27T10:21:00Z</time>
      </trkpt>
      <trkpt lat="43.7207" lon="2.50468">
        <ele>701.3</ele>
        <time>2020-03-27T10:21:06Z</time>
      </trkpt>
      <trkpt lat="43.72071" lon="2.50482">
        <ele>701.9</ele>
        <time>2020-03-27T10:21:11Z</time>
      </trkpt>
      <trkpt lat="43.72072" lon="2.50494">
        <ele>702.5</ele>
        <time>2020-03-27T10:21:16Z</time>
      </trkpt>
      <trkpt lat="43.72074" lon="2.50509">
        <ele>703.3</ele>
        <time>2020-03-27T10:21:22Z</time>
      </trkpt>
      <trkpt lat="43.72077" lon="2.50521">
        <ele>703.9</ele>
        <time>2020-03-27T10:21:27Z</time>
      </trkpt>
      <trkpt lat="43.72079" lon="2.50533">
        <ele>704.6</ele>
        <time>2020-03-27T10:21:32Z</time>
      </trkpt>
      <trkpt lat="43.72083" lon="2.50546">
        <ele>705.5</ele>
        <time>2020-03-27T10:21:38Z</time>
      </trkpt>
      <trkpt lat="43.72087" lon="2.50558">
        <ele>706.3</ele>
        <time>2020-03-27T10:21:43Z</time>
      </trkpt>
      <trkpt lat="43.72092" lon="2.50568">
        <ele>707</ele>
        <time>2020-03-27T10:21:48Z</time>
      </trkpt>
      <trkpt lat="43.72098" lon="2.50579">
        <ele>707.7</ele>
        <time>2020-03-27T10:21:53Z</time>
      </trkpt>
      <trkpt lat="43.72103" lon="2.50591">
        <ele>708.6</ele>
        <time>2020-03-27T10:21:59Z</time>
      </trkpt>
      <trkpt lat="43.72105" lon="2.50604">
        <ele>709.4</ele>
        <time>2020-03-27T10:22:05Z</time>
      </trkpt>
      <trkpt lat="43.72109" lon="2.50617">
        <ele>710.3</ele>
        <time>2020-03-27T10:22:11Z</time>
      </trkpt>
      <trkpt lat="43.72114" lon="2.50628">
        <ele>710.9</ele>
        <time>2020-03-27T10:22:15Z</time>
      </trkpt>
      <trkpt lat="43.72118" lon="2.50642">
        <ele>711.5</ele>
        <time>2020-03-27T10:22:20Z</time>
      </trkpt>
      <trkpt lat="43.72121" lon="2.50654">
        <ele>712.2</ele>
        <time>2020-03-27T10:22:25Z</time>
      </trkpt>
      <trkpt lat="43.72125" lon="2.50666">
        <ele>712.8</ele>
        <time>2020-03-27T10:22:30Z</time>
      </trkpt>
      <trkpt lat="43.7213" lon="2.50679">
        <ele>713.5</ele>
        <time>2020-03-27T10:22:36Z</time>
      </trkpt>
      <trkpt lat="43.72133" lon="2.50692">
        <ele>714.3</ele>
        <time>2020-03-27T10:22:42Z</time>
      </trkpt>
      <trkpt lat="43.72137" lon="2.50705">
        <ele>715</ele>
        <time>2020-03-27T10:22:48Z</time>
      </trkpt>
      <trkpt lat="43.7214" lon="2.50718">
        <ele>715.6</ele>
        <time>2020-03-27T10:22:54Z</time>
      </trkpt>
      <trkpt lat="43.72144" lon="2.50732">
        <ele>716</ele>
        <time>2020-03-27T10:23:00Z</time>
      </trkpt>
      <trkpt lat="43.72151" lon="2.50744">
        <ele>716.4</ele>
        <time>2020-03-27T10:23:05Z</time>
      </trkpt>
      <trkpt lat="43.72156" lon="2.50756">
        <ele>716.7</ele>
        <time>2020-03-27T10:23:09Z</time>
      </trkpt>
      <trkpt lat="43.7216" lon="2.50771">
        <ele>717.1</ele>
        <time>2020-03-27T10:23:13Z</time>
      </trkpt>
      <trkpt lat="43.72162" lon="2.50787">
        <ele>717.6</ele>
        <time>2020-03-27T10:23:17Z</time>
      </trkpt>
      <trkpt lat="43.72167" lon="2.50798">
        <ele>718.2</ele>
        <time>2020-03-27T10:23:21Z</time>
      </trkpt>
      <trkpt lat="43.72171" lon="2.5081">
        <ele>718.8</ele>
        <time>2020-03-27T10:23:25Z</time>
      </trkpt>
      <trkpt lat="43.72172" lon="2.50823">
        <ele>719.3</ele>
        <time>2020-03-27T10:23:28Z</time>
      </trkpt>
      <trkpt lat="43.72176" lon="2.50836">
        <ele>719.7</ele>
        <time>2020-03-27T10:23:31Z</time>
      </trkpt>
      <trkpt lat="43.72182" lon="2.5085">
        <ele>720.6</ele>
        <time>2020-03-27T10:23:34Z</time>
      </trkpt>
      <trkpt lat="43.72186" lon="2.50866">
        <ele>722.1</ele>
        <time>2020-03-27T10:23:37Z</time>
      </trkpt>
      <trkpt lat="43.72189" lon="2.50882">
        <ele>722.4</ele>
        <time>2020-03-27T10:23:40Z</time>
      </trkpt>
      <trkpt lat="43.72192" lon="2.50897">
        <ele>722.7</ele>
        <time>2020-03-27T10:23:43Z</time>
      </trkpt>
      <trkpt lat="43.72195" lon="2.50909">
        <ele>722.9</ele>
        <time>2020-03-27T10:23:46Z</time>
      </trkpt>
      <trkpt lat="43.722" lon="2.50923">
        <ele>723</ele>
        <time>2020-03-27T10:23:50Z</time>
      </trkpt>
      <trkpt lat="43.72204" lon="2.50937">
        <ele>723.1</ele>
        <time>2020-03-27T10:23:54Z</time>
      </trkpt>
      <trkpt lat="43.72206" lon="2.5095">
        <ele>723.4</ele>
        <time>2020-03-27T10:23:58Z</time>
      </trkpt>
      <trkpt lat="43.72209" lon="2.50963">
        <ele>723.8</ele>
        <time>2020-03-27T10:24:02Z</time>
      </trkpt>
      <trkpt lat="43.7221" lon="2.50976">
        <ele>724.3</ele>
        <time>2020-03-27T10:24:06Z</time>
      </trkpt>
      <trkpt lat="43.72211" lon="2.5099">
        <ele>724.9</ele>
        <time>2020-03-27T10:24:10Z</time>
      </trkpt>
      <trkpt lat="43.72213" lon="2.51003">
        <ele>725.9</ele>
        <time>2020-03-27T10:24:15Z</time>
      </trkpt>
      <trkpt lat="43.72215" lon="2.51018">
        <ele>727</ele>
        <time>2020-03-27T10:24:20Z</time>
      </trkpt>
      <trkpt lat="43.72217" lon="2.51032">
        <ele>727.9</ele>
        <time>2020-03-27T10:24:24Z</time>
      </trkpt>
      <trkpt lat="43.72216" lon="2.51047">
        <ele>728.7</ele>
        <time>2020-03-27T10:24:28Z</time>
      </trkpt>
      <trkpt lat="43.72216" lon="2.51064">
        <ele>729.5</ele>
        <time>2020-03-27T10:24:32Z</time>
      </trkpt>
      <trkpt lat="43.72217" lon="2.51077">
        <ele>730.1</ele>
        <time>2020-03-27T10:24:35Z</time>
      </trkpt>
      <trkpt lat="43.72218" lon="2.51093">
        <ele>730.8</ele>
        <time>2020-03-27T10:24:39Z</time>
      </trkpt>
      <trkpt lat="43.72215" lon="2.51105">
        <ele>731.3</ele>
        <time>2020-03-27T10:24:42Z</time>
      </trkpt>
      <trkpt lat="43.72211" lon="2.51119">
        <ele>732</ele>
        <time>2020-03-27T10:24:46Z</time>
      </trkpt>
      <trkpt lat="43.72207" lon="2.51131">
        <ele>732.5</ele>
        <time>2020-03-27T10:24:50Z</time>
      </trkpt>
      <trkpt lat="43.72201" lon="2.51143">
        <ele>732.8</ele>
        <time>2020-03-27T10:24:54Z</time>
      </trkpt>
      <trkpt lat="43.72197" lon="2.51157">
        <ele>732.9</ele>
        <time>2020-03-27T10:24:58Z</time>
      </trkpt>
      <trkpt lat="43.72193" lon="2.51171">
        <ele>732.7</ele>
        <time>2020-03-27T10:25:01Z</time>
      </trkpt>
      <trkpt lat="43.72192" lon="2.51186">
        <ele>732.6</ele>
        <time>2020-03-27T10:25:04Z</time>
      </trkpt>
      <trkpt lat="43.72188" lon="2.51201">
        <ele>732.4</ele>
        <time>2020-03-27T10:25:07Z</time>
      </trkpt>
      <trkpt lat="43.72186" lon="2.51218">
        <ele>732.4</ele>
        <time>2020-03-27T10:25:10Z</time>
      </trkpt>
      <trkpt lat="43.72182" lon="2.51233">
        <ele>732.5</ele>
        <time>2020-03-27T10:25:13Z</time>
      </trkpt>
      <trkpt lat="43.7218" lon="2.5125">
        <ele>732.6</ele>
        <time>2020-03-27T10:25:16Z</time>
      </trkpt>
      <trkpt lat="43.72177" lon="2.51266">
        <ele>733.1</ele>
        <time>2020-03-27T10:25:20Z</time>
      </trkpt>
      <trkpt lat="43.72176" lon="2.51279">
        <ele>733.6</ele>
        <time>2020-03-27T10:25:23Z</time>
      </trkpt>
      <trkpt lat="43.72175" lon="2.51293">
        <ele>734.2</ele>
        <time>2020-03-27T10:25:26Z</time>
      </trkpt>
      <trkpt lat="43.72175" lon="2.51307">
        <ele>734.8</ele>
        <time>2020-03-27T10:25:29Z</time>
      </trkpt>
      <trkpt lat="43.72175" lon="2.51321">
        <ele>735.4</ele>
        <time>2020-03-27T10:25:32Z</time>
      </trkpt>
      <trkpt lat="43.72175" lon="2.51335">
        <ele>735.9</ele>
        <time>2020-03-27T10:25:35Z</time>
      </trkpt>
      <trkpt lat="43.72175" lon="2.51352">
        <ele>736.5</ele>
        <time>2020-03-27T10:25:39Z</time>
      </trkpt>
      <trkpt lat="43.72173" lon="2.51365">
        <ele>736.9</ele>
        <time>2020-03-27T10:25:42Z</time>
      </trkpt>
      <trkpt lat="43.72171" lon="2.51378">
        <ele>737.3</ele>
        <time>2020-03-27T10:25:45Z</time>
      </trkpt>
      <trkpt lat="43.72168" lon="2.51392">
        <ele>738</ele>
        <time>2020-03-27T10:25:49Z</time>
      </trkpt>
      <trkpt lat="43.72166" lon="2.51406">
        <ele>738.7</ele>
        <time>2020-03-27T10:25:53Z</time>
      </trkpt>
      <trkpt lat="43.72166" lon="2.51422">
        <ele>739.4</ele>
        <time>2020-03-27T10:25:57Z</time>
      </trkpt>
      <trkpt lat="43.72166" lon="2.51436">
        <ele>740.2</ele>
        <time>2020-03-27T10:26:02Z</time>
      </trkpt>
      <trkpt lat="43.72169" lon="2.51449">
        <ele>740.8</ele>
        <time>2020-03-27T10:26:06Z</time>
      </trkpt>
      <trkpt lat="43.7217" lon="2.51463">
        <ele>741.6</ele>
        <time>2020-03-27T10:26:11Z</time>
      </trkpt>
      <trkpt lat="43.72173" lon="2.51477">
        <ele>742.4</ele>
        <time>2020-03-27T10:26:16Z</time>
      </trkpt>
      <trkpt lat="43.72175" lon="2.51491">
        <ele>743.2</ele>
        <time>2020-03-27T10:26:21Z</time>
      </trkpt>
      <trkpt lat="43.72177" lon="2.51504">
        <ele>743.9</ele>
        <time>2020-03-27T10:26:26Z</time>
      </trkpt>
      <trkpt lat="43.7218" lon="2.51516">
        <ele>744.5</ele>
        <time>2020-03-27T10:26:30Z</time>
      </trkpt>
      <trkpt lat="43.72182" lon="2.51531">
        <ele>745.4</ele>
        <time>2020-03-27T10:26:35Z</time>
      </trkpt>
      <trkpt lat="43.72184" lon="2.51545">
        <ele>746.4</ele>
        <time>2020-03-27T10:26:40Z</time>
      </trkpt>
      <trkpt lat="43.72187" lon="2.51557">
        <ele>747.3</ele>
        <time>2020-03-27T10:26:45Z</time>
      </trkpt>
      <trkpt lat="43.7219" lon="2.5157">
        <ele>748.3</ele>
        <time>2020-03-27T10:26:50Z</time>
      </trkpt>
      <trkpt lat="43.72192" lon="2.51585">
        <ele>749.6</ele>
        <time>2020-03-27T10:26:56Z</time>
      </trkpt>
      <trkpt lat="43.72194" lon="2.51597">
        <ele>750.6</ele>
        <time>2020-03-27T10:27:01Z</time>
      </trkpt>
      <trkpt lat="43.72195" lon="2.51611">
        <ele>751.6</ele>
        <time>2020-03-27T10:27:07Z</time>
      </trkpt>
      <trkpt lat="43.72199" lon="2.51623">
        <ele>752.3</ele>
        <time>2020-03-27T10:27:12Z</time>
      </trkpt>
      <trkpt lat="43.72203" lon="2.51635">
        <ele>753</ele>
        <time>2020-03-27T10:27:17Z</time>
      </trkpt>
      <trkpt lat="43.72205" lon="2.5165">
        <ele>753.6</ele>
        <time>2020-03-27T10:27:22Z</time>
      </trkpt>
      <trkpt lat="43.72208" lon="2.51662">
        <ele>754</ele>
        <time>2020-03-27T10:27:26Z</time>
      </trkpt>
      <trkpt lat="43.7221" lon="2.51677">
        <ele>754.8</ele>
        <time>2020-03-27T10:27:31Z</time>
      </trkpt>
      <trkpt lat="43.72212" lon="2.5169">
        <ele>755.5</ele>
        <time>2020-03-27T10:27:35Z</time>
      </trkpt>
      <trkpt lat="43.72214" lon="2.51703">
        <ele>756.4</ele>
        <time>2020-03-27T10:27:40Z</time>
      </trkpt>
      <trkpt lat="43.72215" lon="2.51718">
        <ele>757.2</ele>
        <time>2020-03-27T10:27:45Z</time>
      </trkpt>
      <trkpt lat="43.72218" lon="2.51732">
        <ele>757.9</ele>
        <time>2020-03-27T10:27:50Z</time>
      </trkpt>
      <trkpt lat="43.72219" lon="2.51746">
        <ele>758.7</ele>
        <time>2020-03-27T10:27:55Z</time>
      </trkpt>
      <trkpt lat="43.72221" lon="2.51761">
        <ele>759.6</ele>
        <time>2020-03-27T10:28:00Z</time>
      </trkpt>
      <trkpt lat="43.72222" lon="2.51776">
        <ele>760.5</ele>
        <time>2020-03-27T10:28:05Z</time>
      </trkpt>
      <trkpt lat="43.72222" lon="2.5179">
        <ele>761.3</ele>
        <time>2020-03-27T10:28:10Z</time>
      </trkpt>
      <trkpt lat="43.72224" lon="2.51805">
        <ele>761.9</ele>
        <time>2020-03-27T10:28:15Z</time>
      </trkpt>
      <trkpt lat="43.72224" lon="2.5182">
        <ele>762.6</ele>
        <time>2020-03-27T10:28:20Z</time>
      </trkpt>
      <trkpt lat="43.72223" lon="2.51836">
        <ele>763.3</ele>
        <time>2020-03-27T10:28:25Z</time>
      </trkpt>
      <trkpt lat="43.72221" lon="2.51848">
        <ele>763.8</ele>
        <time>2020-03-27T10:28:29Z</time>
      </trkpt>
      <trkpt lat="43.72218" lon="2.51862">
        <ele>764.6</ele>
        <time>2020-03-27T10:28:34Z</time>
      </trkpt>
      <trkpt lat="43.72215" lon="2.51875">
        <ele>765.4</ele>
        <time>2020-03-27T10:28:39Z</time>
      </trkpt>
      <trkpt lat="43.72211" lon="2.51889">
        <ele>766.2</ele>
        <time>2020-03-27T10:28:44Z</time>
      </trkpt>
      <trkpt lat="43.72206" lon="2.51904">
        <ele>766.9</ele>
        <time>2020-03-27T10:28:49Z</time>
      </trkpt>
      <trkpt lat="43.722" lon="2.51914">
        <ele>767.3</ele>
        <time>2020-03-27T10:28:52Z</time>
      </trkpt>
      <trkpt lat="43.72193" lon="2.51925">
        <ele>767.8</ele>
        <time>2020-03-27T10:28:55Z</time>
      </trkpt>
      <trkpt lat="43.72186" lon="2.51941">
        <ele>769.6</ele>
        <time>2020-03-27T10:28:58Z</time>
      </trkpt>
      <trkpt lat="43.72181" lon="2.51952">
        <ele>771</ele>
        <time>2020-03-27T10:29:00Z</time>
      </trkpt>
      <trkpt lat="43.72178" lon="2.51964">
        <ele>772</ele>
        <time>2020-03-27T10:29:02Z</time>
      </trkpt>
      <trkpt lat="43.72177" lon="2.51982">
        <ele>772.5</ele>
        <time>2020-03-27T10:29:05Z</time>
      </trkpt>
      <trkpt lat="43.72178" lon="2.51995">
        <ele>772.7</ele>
        <time>2020-03-27T10:29:07Z</time>
      </trkpt>
      <trkpt lat="43.72179" lon="2.52009">
        <ele>772.9</ele>
        <time>2020-03-27T10:29:09Z</time>
      </trkpt>
      <trkpt lat="43.72181" lon="2.52022">
        <ele>772.9</ele>
        <time>2020-03-27T10:29:11Z</time>
      </trkpt>
      <trkpt lat="43.72186" lon="2.52036">
        <ele>773.1</ele>
        <time>2020-03-27T10:29:13Z</time>
      </trkpt>
      <trkpt lat="43.72194" lon="2.52048">
        <ele>774.6</ele>
        <time>2020-03-27T10:29:16Z</time>
      </trkpt>
      <trkpt lat="43.72202" lon="2.52055">
        <ele>775.9</ele>
        <time>2020-03-27T10:29:18Z</time>
      </trkpt>
      <trkpt lat="43.72211" lon="2.52063">
        <ele>777</ele>
        <time>2020-03-27T10:29:20Z</time>
      </trkpt>
      <trkpt lat="43.72221" lon="2.52069">
        <ele>777.7</ele>
        <time>2020-03-27T10:29:22Z</time>
      </trkpt>
      <trkpt lat="43.72228" lon="2.52077">
        <ele>778.6</ele>
        <time>2020-03-27T10:29:24Z</time>
      </trkpt>
      <trkpt lat="43.72236" lon="2.52085">
        <ele>778.9</ele>
        <time>2020-03-27T10:29:26Z</time>
      </trkpt>
      <trkpt lat="43.72243" lon="2.52095">
        <ele>779</ele>
        <time>2020-03-27T10:29:28Z</time>
      </trkpt>
      <trkpt lat="43.72249" lon="2.52104">
        <ele>779</ele>
        <time>2020-03-27T10:29:30Z</time>
      </trkpt>
      <trkpt lat="43.72258" lon="2.52118">
        <ele>778.9</ele>
        <time>2020-03-27T10:29:33Z</time>
      </trkpt>
      <trkpt lat="43.72265" lon="2.52127">
        <ele>778.9</ele>
        <time>2020-03-27T10:29:35Z</time>
      </trkpt>
      <trkpt lat="43.72272" lon="2.52136">
        <ele>778.4</ele>
        <time>2020-03-27T10:29:37Z</time>
      </trkpt>
      <trkpt lat="43.72276" lon="2.52151">
        <ele>778.1</ele>
        <time>2020-03-27T10:29:40Z</time>
      </trkpt>
      <trkpt lat="43.72282" lon="2.52168">
        <ele>776.3</ele>
        <time>2020-03-27T10:29:43Z</time>
      </trkpt>
      <trkpt lat="43.72288" lon="2.52184">
        <ele>775.8</ele>
        <time>2020-03-27T10:29:46Z</time>
      </trkpt>
      <trkpt lat="43.72293" lon="2.52195">
        <ele>775.6</ele>
        <time>2020-03-27T10:29:48Z</time>
      </trkpt>
      <trkpt lat="43.72299" lon="2.52212">
        <ele>775.5</ele>
        <time>2020-03-27T10:29:51Z</time>
      </trkpt>
      <trkpt lat="43.72304" lon="2.52223">
        <ele>775.7</ele>
        <time>2020-03-27T10:29:53Z</time>
      </trkpt>
      <trkpt lat="43.72308" lon="2.52235">
        <ele>776.3</ele>
        <time>2020-03-27T10:29:55Z</time>
      </trkpt>
      <trkpt lat="43.72312" lon="2.52247">
        <ele>777</ele>
        <time>2020-03-27T10:29:57Z</time>
      </trkpt>
      <trkpt lat="43.72316" lon="2.5226">
        <ele>777.5</ele>
        <time>2020-03-27T10:29:59Z</time>
      </trkpt>
      <trkpt lat="43.72319" lon="2.52274">
        <ele>778</ele>
        <time>2020-03-27T10:30:01Z</time>
      </trkpt>
      <trkpt lat="43.72324" lon="2.52289">
        <ele>778.4</ele>
        <time>2020-03-27T10:30:03Z</time>
      </trkpt>
      <trkpt lat="43.72326" lon="2.52305">
        <ele>778.6</ele>
        <time>2020-03-27T10:30:05Z</time>
      </trkpt>
      <trkpt lat="43.72327" lon="2.52322">
        <ele>778.5</ele>
        <time>2020-03-27T10:30:07Z</time>
      </trkpt>
      <trkpt lat="43.72324" lon="2.52338">
        <ele>778</ele>
        <time>2020-03-27T10:30:09Z</time>
      </trkpt>
      <trkpt lat="43.72323" lon="2.52354">
        <ele>777.2</ele>
        <time>2020-03-27T10:30:11Z</time>
      </trkpt>
      <trkpt lat="43.7232" lon="2.52369">
        <ele>776.3</ele>
        <time>2020-03-27T10:30:13Z</time>
      </trkpt>
      <trkpt lat="43.72315" lon="2.52384">
        <ele>775.4</ele>
        <time>2020-03-27T10:30:15Z</time>
      </trkpt>
      <trkpt lat="43.72309" lon="2.52399">
        <ele>774.4</ele>
        <time>2020-03-27T10:30:17Z</time>
      </trkpt>
      <trkpt lat="43.72301" lon="2.52413">
        <ele>773.4</ele>
        <time>2020-03-27T10:30:19Z</time>
      </trkpt>
      <trkpt lat="43.72294" lon="2.52428">
        <ele>772.4</ele>
        <time>2020-03-27T10:30:21Z</time>
      </trkpt>
      <trkpt lat="43.72288" lon="2.5244">
        <ele>771.5</ele>
        <time>2020-03-27T10:30:23Z</time>
      </trkpt>
      <trkpt lat="43.72282" lon="2.52452">
        <ele>771.2</ele>
        <time>2020-03-27T10:30:26Z</time>
      </trkpt>
      <trkpt lat="43.72277" lon="2.52466">
        <ele>771.3</ele>
        <time>2020-03-27T10:30:30Z</time>
      </trkpt>
      <trkpt lat="43.7227" lon="2.5248">
        <ele>771.3</ele>
        <time>2020-03-27T10:30:34Z</time>
      </trkpt>
      <trkpt lat="43.72264" lon="2.5249">
        <ele>769.2</ele>
        <time>2020-03-27T10:30:36Z</time>
      </trkpt>
      <trkpt lat="43.72258" lon="2.525">
        <ele>765.5</ele>
        <time>2020-03-27T10:30:38Z</time>
      </trkpt>
      <trkpt lat="43.72252" lon="2.52511">
        <ele>762</ele>
        <time>2020-03-27T10:30:40Z</time>
      </trkpt>
      <trkpt lat="43.72247" lon="2.52523">
        <ele>758.9</ele>
        <time>2020-03-27T10:30:42Z</time>
      </trkpt>
      <trkpt lat="43.72239" lon="2.52533">
        <ele>756.6</ele>
        <time>2020-03-27T10:30:44Z</time>
      </trkpt>
      <trkpt lat="43.72234" lon="2.52545">
        <ele>755.8</ele>
        <time>2020-03-27T10:30:46Z</time>
      </trkpt>
      <trkpt lat="43.72229" lon="2.52556">
        <ele>753.9</ele>
        <time>2020-03-27T10:30:48Z</time>
      </trkpt>
      <trkpt lat="43.72222" lon="2.52574">
        <ele>752</ele>
        <time>2020-03-27T10:30:51Z</time>
      </trkpt>
      <trkpt lat="43.72216" lon="2.52584">
        <ele>751.5</ele>
        <time>2020-03-27T10:30:53Z</time>
      </trkpt>
      <trkpt lat="43.72212" lon="2.526">
        <ele>751.2</ele>
        <time>2020-03-27T10:30:56Z</time>
      </trkpt>
      <trkpt lat="43.72209" lon="2.52614">
        <ele>751.3</ele>
        <time>2020-03-27T10:30:59Z</time>
      </trkpt>
      <trkpt lat="43.72201" lon="2.52606">
        <ele>753.6</ele>
        <time>2020-03-27T10:32:07Z</time>
      </trkpt>
      <trkpt lat="43.72197" lon="2.52592">
        <ele>754.4</ele>
        <time>2020-03-27T10:32:11Z</time>
      </trkpt>
      <trkpt lat="43.72192" lon="2.5258">
        <ele>755.4</ele>
        <time>2020-03-27T10:32:15Z</time>
      </trkpt>
      <trkpt lat="43.72186" lon="2.52568">
        <ele>756.5</ele>
        <time>2020-03-27T10:32:19Z</time>
      </trkpt>
      <trkpt lat="43.72181" lon="2.52558">
        <ele>757.6</ele>
        <time>2020-03-27T10:32:23Z</time>
      </trkpt>
      <trkpt lat="43.72177" lon="2.52545">
        <ele>758.9</ele>
        <time>2020-03-27T10:32:28Z</time>
      </trkpt>
      <trkpt lat="43.72174" lon="2.52534">
        <ele>760.1</ele>
        <time>2020-03-27T10:32:33Z</time>
      </trkpt>
      <trkpt lat="43.72168" lon="2.52522">
        <ele>761.4</ele>
        <time>2020-03-27T10:32:38Z</time>
      </trkpt>
      <trkpt lat="43.72162" lon="2.52511">
        <ele>763</ele>
        <time>2020-03-27T10:32:44Z</time>
      </trkpt>
      <trkpt lat="43.72155" lon="2.52502">
        <ele>764.3</ele>
        <time>2020-03-27T10:32:50Z</time>
      </trkpt>
      <trkpt lat="43.72148" lon="2.52494">
        <ele>765.4</ele>
        <time>2020-03-27T10:32:56Z</time>
      </trkpt>
      <trkpt lat="43.72139" lon="2.52487">
        <ele>766.6</ele>
        <time>2020-03-27T10:33:02Z</time>
      </trkpt>
      <trkpt lat="43.7213" lon="2.52482">
        <ele>767.4</ele>
        <time>2020-03-27T10:33:08Z</time>
      </trkpt>
      <trkpt lat="43.72122" lon="2.52474">
        <ele>767.9</ele>
        <time>2020-03-27T10:33:13Z</time>
      </trkpt>
      <trkpt lat="43.72114" lon="2.52466">
        <ele>768.5</ele>
        <time>2020-03-27T10:33:17Z</time>
      </trkpt>
      <trkpt lat="43.72107" lon="2.52453">
        <ele>769.3</ele>
        <time>2020-03-27T10:33:22Z</time>
      </trkpt>
      <trkpt lat="43.72101" lon="2.52441">
        <ele>770.1</ele>
        <time>2020-03-27T10:33:26Z</time>
      </trkpt>
      <trkpt lat="43.72095" lon="2.52428">
        <ele>771.1</ele>
        <time>2020-03-27T10:33:32Z</time>
      </trkpt>
      <trkpt lat="43.7209" lon="2.52416">
        <ele>771.7</ele>
        <time>2020-03-27T10:33:36Z</time>
      </trkpt>
      <trkpt lat="43.72086" lon="2.52404">
        <ele>772.1</ele>
        <time>2020-03-27T10:33:39Z</time>
      </trkpt>
      <trkpt lat="43.72081" lon="2.52391">
        <ele>772.5</ele>
        <time>2020-03-27T10:33:42Z</time>
      </trkpt>
      <trkpt lat="43.72076" lon="2.5238">
        <ele>772.9</ele>
        <time>2020-03-27T10:33:45Z</time>
      </trkpt>
      <trkpt lat="43.72072" lon="2.52368">
        <ele>773.2</ele>
        <time>2020-03-27T10:33:48Z</time>
      </trkpt>
      <trkpt lat="43.72069" lon="2.52354">
        <ele>773.5</ele>
        <time>2020-03-27T10:33:51Z</time>
      </trkpt>
      <trkpt lat="43.72065" lon="2.52342">
        <ele>774</ele>
        <time>2020-03-27T10:33:54Z</time>
      </trkpt>
      <trkpt lat="43.72062" lon="2.52329">
        <ele>774.6</ele>
        <time>2020-03-27T10:33:57Z</time>
      </trkpt>
      <trkpt lat="43.72058" lon="2.52316">
        <ele>775.2</ele>
        <time>2020-03-27T10:34:00Z</time>
      </trkpt>
      <trkpt lat="43.72055" lon="2.52302">
        <ele>775.7</ele>
        <time>2020-03-27T10:34:03Z</time>
      </trkpt>
      <trkpt lat="43.72049" lon="2.52289">
        <ele>776.3</ele>
        <time>2020-03-27T10:34:06Z</time>
      </trkpt>
      <trkpt lat="43.72043" lon="2.5228">
        <ele>776.9</ele>
        <time>2020-03-27T10:34:09Z</time>
      </trkpt>
      <trkpt lat="43.72034" lon="2.5227">
        <ele>777.7</ele>
        <time>2020-03-27T10:34:13Z</time>
      </trkpt>
      <trkpt lat="43.72024" lon="2.52259">
        <ele>778.5</ele>
        <time>2020-03-27T10:34:17Z</time>
      </trkpt>
      <trkpt lat="43.72018" lon="2.5225">
        <ele>779.2</ele>
        <time>2020-03-27T10:34:20Z</time>
      </trkpt>
      <trkpt lat="43.7201" lon="2.52239">
        <ele>780</ele>
        <time>2020-03-27T10:34:24Z</time>
      </trkpt>
      <trkpt lat="43.72003" lon="2.52231">
        <ele>780.5</ele>
        <time>2020-03-27T10:34:27Z</time>
      </trkpt>
      <trkpt lat="43.71994" lon="2.52219">
        <ele>781.3</ele>
        <time>2020-03-27T10:34:31Z</time>
      </trkpt>
      <trkpt lat="43.71988" lon="2.5221">
        <ele>781.9</ele>
        <time>2020-03-27T10:34:34Z</time>
      </trkpt>
      <trkpt lat="43.71982" lon="2.52198">
        <ele>782.4</ele>
        <time>2020-03-27T10:34:37Z</time>
      </trkpt>
      <trkpt lat="43.71972" lon="2.52188">
        <ele>783</ele>
        <time>2020-03-27T10:34:40Z</time>
      </trkpt>
      <trkpt lat="43.71964" lon="2.5218">
        <ele>783.4</ele>
        <time>2020-03-27T10:34:42Z</time>
      </trkpt>
      <trkpt lat="43.71953" lon="2.52173">
        <ele>783.9</ele>
        <time>2020-03-27T10:34:45Z</time>
      </trkpt>
      <trkpt lat="43.71941" lon="2.5217">
        <ele>785</ele>
        <time>2020-03-27T10:34:48Z</time>
      </trkpt>
      <trkpt lat="43.71928" lon="2.52166">
        <ele>785.7</ele>
        <time>2020-03-27T10:34:51Z</time>
      </trkpt>
      <trkpt lat="43.71918" lon="2.52161">
        <ele>786.1</ele>
        <time>2020-03-27T10:34:54Z</time>
      </trkpt>
      <trkpt lat="43.71909" lon="2.52155">
        <ele>786.5</ele>
        <time>2020-03-27T10:34:57Z</time>
      </trkpt>
      <trkpt lat="43.71902" lon="2.52148">
        <ele>786.9</ele>
        <time>2020-03-27T10:35:00Z</time>
      </trkpt>
      <trkpt lat="43.71894" lon="2.5214">
        <ele>787.2</ele>
        <time>2020-03-27T10:35:03Z</time>
      </trkpt>
      <trkpt lat="43.71884" lon="2.52131">
        <ele>787.6</ele>
        <time>2020-03-27T10:35:07Z</time>
      </trkpt>
      <trkpt lat="43.71876" lon="2.52125">
        <ele>788</ele>
        <time>2020-03-27T10:35:10Z</time>
      </trkpt>
      <trkpt lat="43.71868" lon="2.52117">
        <ele>788.3</ele>
        <time>2020-03-27T10:35:13Z</time>
      </trkpt>
      <trkpt lat="43.7186" lon="2.5211">
        <ele>788.7</ele>
        <time>2020-03-27T10:35:16Z</time>
      </trkpt>
      <trkpt lat="43.71852" lon="2.52103">
        <ele>789</ele>
        <time>2020-03-27T10:35:19Z</time>
      </trkpt>
      <trkpt lat="43.71843" lon="2.52093">
        <ele>789.5</ele>
        <time>2020-03-27T10:35:23Z</time>
      </trkpt>
      <trkpt lat="43.71834" lon="2.52086">
        <ele>790</ele>
        <time>2020-03-27T10:35:27Z</time>
      </trkpt>
      <trkpt lat="43.71826" lon="2.52076">
        <ele>790.8</ele>
        <time>2020-03-27T10:35:33Z</time>
      </trkpt>
      <trkpt lat="43.7182" lon="2.52067">
        <ele>791.5</ele>
        <time>2020-03-27T10:35:38Z</time>
      </trkpt>
      <trkpt lat="43.71815" lon="2.52054">
        <ele>792.3</ele>
        <time>2020-03-27T10:35:43Z</time>
      </trkpt>
      <trkpt lat="43.7181" lon="2.52042">
        <ele>793.1</ele>
        <time>2020-03-27T10:35:48Z</time>
      </trkpt>
      <trkpt lat="43.71804" lon="2.52028">
        <ele>793.9</ele>
        <time>2020-03-27T10:35:53Z</time>
      </trkpt>
      <trkpt lat="43.71799" lon="2.52018">
        <ele>794.5</ele>
        <time>2020-03-27T10:35:57Z</time>
      </trkpt>
      <trkpt lat="43.71794" lon="2.52004">
        <ele>794.9</ele>
        <time>2020-03-27T10:36:01Z</time>
      </trkpt>
      <trkpt lat="43.71789" lon="2.51992">
        <ele>795.2</ele>
        <time>2020-03-27T10:36:04Z</time>
      </trkpt>
      <trkpt lat="43.71784" lon="2.5198">
        <ele>795.5</ele>
        <time>2020-03-27T10:36:07Z</time>
      </trkpt>
      <trkpt lat="43.71777" lon="2.5197">
        <ele>796.4</ele>
        <time>2020-03-27T10:36:10Z</time>
      </trkpt>
      <trkpt lat="43.71765" lon="2.51977">
        <ele>796.7</ele>
        <time>2020-03-27T10:36:13Z</time>
      </trkpt>
      <trkpt lat="43.71755" lon="2.51985">
        <ele>796.9</ele>
        <time>2020-03-27T10:36:16Z</time>
      </trkpt>
      <trkpt lat="43.71745" lon="2.51993">
        <ele>797.5</ele>
        <time>2020-03-27T10:36:19Z</time>
      </trkpt>
      <trkpt lat="43.71735" lon="2.51998">
        <ele>798</ele>
        <time>2020-03-27T10:36:22Z</time>
      </trkpt>
      <trkpt lat="43.71724" lon="2.52">
        <ele>798.3</ele>
        <time>2020-03-27T10:36:26Z</time>
      </trkpt>
      <trkpt lat="43.71716" lon="2.52007">
        <ele>799</ele>
        <time>2020-03-27T10:36:32Z</time>
      </trkpt>
      <trkpt lat="43.71711" lon="2.52021">
        <ele>800.2</ele>
        <time>2020-03-27T10:36:41Z</time>
      </trkpt>
      <trkpt lat="43.71713" lon="2.52031">
        <ele>800.8</ele>
        <time>2020-03-27T10:37:31Z</time>
      </trkpt>
    </trkseg>
  </trk>
  <trk>
    <name><![CDATA[2020-03-27-02]]></name>
    <trkseg>
      <trkpt lat="43.7172" lon="2.52001">
        <ele>806.9</ele>
        <time>2020-03-27T10:51:56Z</time>
      </trkpt>
      <trkpt lat="43.7172" lon="2.52001">
        <ele>806.9</ele>
        <time>2020-03-27T10:51:57Z</time>
      </trkpt>
      <trkpt lat="43.7173" lon="2.51996">
        <ele>806.2</ele>
        <time>2020-03-27T10:52:16Z</time>
      </trkpt>
      <trkpt lat="43.71741" lon="2.51992">
        <ele>805.2</ele>
        <time>2020-03-27T10:52:20Z</time>
      </trkpt>
      <trkpt lat="43.7175" lon="2.51987">
        <ele>803.5</ele>
        <time>2020-03-27T10:52:22Z</time>
      </trkpt>
      <trkpt lat="43.71758" lon="2.51981">
        <ele>802.2</ele>
        <time>2020-03-27T10:52:24Z</time>
      </trkpt>
      <trkpt lat="43.71769" lon="2.51973">
        <ele>801.5</ele>
        <time>2020-03-27T10:52:27Z</time>
      </trkpt>
      <trkpt lat="43.71778" lon="2.5197">
        <ele>801.4</ele>
        <time>2020-03-27T10:52:30Z</time>
      </trkpt>
      <trkpt lat="43.71786" lon="2.51982">
        <ele>801.3</ele>
        <time>2020-03-27T10:52:57Z</time>
      </trkpt>
      <trkpt lat="43.71792" lon="2.51997">
        <ele>801.7</ele>
        <time>2020-03-27T10:53:01Z</time>
      </trkpt>
      <trkpt lat="43.71798" lon="2.52013">
        <ele>802.8</ele>
        <time>2020-03-27T10:53:04Z</time>
      </trkpt>
      <trkpt lat="43.71802" lon="2.52024">
        <ele>803.1</ele>
        <time>2020-03-27T10:53:06Z</time>
      </trkpt>
      <trkpt lat="43.71807" lon="2.52036">
        <ele>803</ele>
        <time>2020-03-27T10:53:08Z</time>
      </trkpt>
      <trkpt lat="43.71811" lon="2.52048">
        <ele>802.4</ele>
        <time>2020-03-27T10:53:10Z</time>
      </trkpt>
      <trkpt lat="43.71817" lon="2.52063">
        <ele>801.5</ele>
        <time>2020-03-27T10:53:12Z</time>
      </trkpt>
      <trkpt lat="43.71825" lon="2.52078">
        <ele>800.4</ele>
        <time>2020-03-27T10:53:14Z</time>
      </trkpt>
      <trkpt lat="43.71837" lon="2.52092">
        <ele>799.1</ele>
        <time>2020-03-27T10:53:16Z</time>
      </trkpt>
      <trkpt lat="43.71851" lon="2.52103">
        <ele>797.9</ele>
        <time>2020-03-27T10:53:18Z</time>
      </trkpt>
      <trkpt lat="43.71865" lon="2.52113">
        <ele>796.9</ele>
        <time>2020-03-27T10:53:20Z</time>
      </trkpt>
      <trkpt lat="43.71878" lon="2.52126">
        <ele>796</ele>
        <time>2020-03-27T10:53:22Z</time>
      </trkpt>
      <trkpt lat="43.71892" lon="2.52136">
        <ele>795.3</ele>
        <time>2020-03-27T10:53:24Z</time>
      </trkpt>
      <trkpt lat="43.71906" lon="2.52147">
        <ele>794.5</ele>
        <time>2020-03-27T10:53:26Z</time>
      </trkpt>
      <trkpt lat="43.7192" lon="2.52158">
        <ele>793.8</ele>
        <time>2020-03-27T10:53:28Z</time>
      </trkpt>
      <trkpt lat="43.71935" lon="2.52167">
        <ele>793.1</ele>
        <time>2020-03-27T10:53:30Z</time>
      </trkpt>
      <trkpt lat="43.71951" lon="2.52172">
        <ele>792.3</ele>
        <time>2020-03-27T10:53:32Z</time>
      </trkpt>
      <trkpt lat="43.71965" lon="2.52178">
        <ele>791.6</ele>
        <time>2020-03-27T10:53:34Z</time>
      </trkpt>
      <trkpt lat="43.71975" lon="2.5219">
        <ele>791</ele>
        <time>2020-03-27T10:53:36Z</time>
      </trkpt>
      <trkpt lat="43.71983" lon="2.52203">
        <ele>790.5</ele>
        <time>2020-03-27T10:53:38Z</time>
      </trkpt>
      <trkpt lat="43.7199" lon="2.52219">
        <ele>789.9</ele>
        <time>2020-03-27T10:53:40Z</time>
      </trkpt>
      <trkpt lat="43.71999" lon="2.52233">
        <ele>789.4</ele>
        <time>2020-03-27T10:53:42Z</time>
      </trkpt>
      <trkpt lat="43.72008" lon="2.5225">
        <ele>788.9</ele>
        <time>2020-03-27T10:53:44Z</time>
      </trkpt>
      <trkpt lat="43.72019" lon="2.52264">
        <ele>788.7</ele>
        <time>2020-03-27T10:53:46Z</time>
      </trkpt>
      <trkpt lat="43.7203" lon="2.52278">
        <ele>788.4</ele>
        <time>2020-03-27T10:53:48Z</time>
      </trkpt>
      <trkpt lat="43.72041" lon="2.52291">
        <ele>788.2</ele>
        <time>2020-03-27T10:53:50Z</time>
      </trkpt>
      <trkpt lat="43.72047" lon="2.52307">
        <ele>787.7</ele>
        <time>2020-03-27T10:53:52Z</time>
      </trkpt>
      <trkpt lat="43.72054" lon="2.52325">
        <ele>787.5</ele>
        <time>2020-03-27T10:53:54Z</time>
      </trkpt>
      <trkpt lat="43.7206" lon="2.52342">
        <ele>787.2</ele>
        <time>2020-03-27T10:53:56Z</time>
      </trkpt>
      <trkpt lat="43.72067" lon="2.52361">
        <ele>787</ele>
        <time>2020-03-27T10:53:58Z</time>
      </trkpt>
      <trkpt lat="43.72073" lon="2.5238">
        <ele>786.8</ele>
        <time>2020-03-27T10:54:00Z</time>
      </trkpt>
      <trkpt lat="43.72081" lon="2.52399">
        <ele>786.6</ele>
        <time>2020-03-27T10:54:02Z</time>
      </trkpt>
      <trkpt lat="43.72088" lon="2.52418">
        <ele>786.3</ele>
        <time>2020-03-27T10:54:04Z</time>
      </trkpt>
      <trkpt lat="43.72096" lon="2.52436">
        <ele>785.9</ele>
        <time>2020-03-27T10:54:06Z</time>
      </trkpt>
      <trkpt lat="43.72104" lon="2.52453">
        <ele>785.6</ele>
        <time>2020-03-27T10:54:08Z</time>
      </trkpt>
      <trkpt lat="43.72111" lon="2.52469">
        <ele>785.3</ele>
        <time>2020-03-27T10:54:10Z</time>
      </trkpt>
      <trkpt lat="43.72124" lon="2.52477">
        <ele>785</ele>
        <time>2020-03-27T10:54:12Z</time>
      </trkpt>
      <trkpt lat="43.72137" lon="2.52488">
        <ele>784.7</ele>
        <time>2020-03-27T10:54:14Z</time>
      </trkpt>
      <trkpt lat="43.72151" lon="2.52503">
        <ele>784.4</ele>
        <time>2020-03-27T10:54:16Z</time>
      </trkpt>
      <trkpt lat="43.72156" lon="2.52513">
        <ele>784.1</ele>
        <time>2020-03-27T10:54:17Z</time>
      </trkpt>
      <trkpt lat="43.7216" lon="2.52525">
        <ele>783.9</ele>
        <time>2020-03-27T10:54:18Z</time>
      </trkpt>
      <trkpt lat="43.72164" lon="2.52537">
        <ele>783.7</ele>
        <time>2020-03-27T10:54:19Z</time>
      </trkpt>
      <trkpt lat="43.72171" lon="2.52554">
        <ele>782.8</ele>
        <time>2020-03-27T10:54:21Z</time>
      </trkpt>
      <trkpt lat="43.72183" lon="2.52568">
        <ele>781.8</ele>
        <time>2020-03-27T10:54:23Z</time>
      </trkpt>
      <trkpt lat="43.72194" lon="2.5258">
        <ele>781.2</ele>
        <time>2020-03-27T10:54:25Z</time>
      </trkpt>
      <trkpt lat="43.722" lon="2.52591">
        <ele>780.2</ele>
        <time>2020-03-27T10:54:27Z</time>
      </trkpt>
      <trkpt lat="43.72204" lon="2.52607">
        <ele>779.7</ele>
        <time>2020-03-27T10:54:30Z</time>
      </trkpt>
      <trkpt lat="43.72213" lon="2.52603">
        <ele>779.2</ele>
        <time>2020-03-27T10:54:35Z</time>
      </trkpt>
      <trkpt lat="43.72219" lon="2.52591">
        <ele>778.6</ele>
        <time>2020-03-27T10:54:39Z</time>
      </trkpt>
      <trkpt lat="43.72224" lon="2.52578">
        <ele>778.1</ele>
        <time>2020-03-27T10:54:42Z</time>
      </trkpt>
      <trkpt lat="43.72229" lon="2.52567">
        <ele>777.6</ele>
        <time>2020-03-27T10:54:45Z</time>
      </trkpt>
      <trkpt lat="43.72234" lon="2.52556">
        <ele>777.1</ele>
        <time>2020-03-27T10:54:48Z</time>
      </trkpt>
      <trkpt lat="43.72239" lon="2.52541">
        <ele>776.6</ele>
        <time>2020-03-27T10:54:51Z</time>
      </trkpt>
      <trkpt lat="43.72246" lon="2.52526">
        <ele>774.4</ele>
        <time>2020-03-27T10:54:54Z</time>
      </trkpt>
      <trkpt lat="43.72253" lon="2.52516">
        <ele>772.9</ele>
        <time>2020-03-27T10:54:56Z</time>
      </trkpt>
      <trkpt lat="43.72255" lon="2.525">
        <ele>772.2</ele>
        <time>2020-03-27T10:54:59Z</time>
      </trkpt>
      <trkpt lat="43.72262" lon="2.52486">
        <ele>771.8</ele>
        <time>2020-03-27T10:55:02Z</time>
      </trkpt>
      <trkpt lat="43.72264" lon="2.52471">
        <ele>771.2</ele>
        <time>2020-03-27T10:55:07Z</time>
      </trkpt>
      <trkpt lat="43.72271" lon="2.52456">
        <ele>770.8</ele>
        <time>2020-03-27T10:55:11Z</time>
      </trkpt>
      <trkpt lat="43.72278" lon="2.52446">
        <ele>770.6</ele>
        <time>2020-03-27T10:55:14Z</time>
      </trkpt>
      <trkpt lat="43.7229" lon="2.52431">
        <ele>770.5</ele>
        <time>2020-03-27T10:55:16Z</time>
      </trkpt>
      <trkpt lat="43.72298" lon="2.52419">
        <ele>770.3</ele>
        <time>2020-03-27T10:55:18Z</time>
      </trkpt>
      <trkpt lat="43.72304" lon="2.52409">
        <ele>770.1</ele>
        <time>2020-03-27T10:55:20Z</time>
      </trkpt>
      <trkpt lat="43.72312" lon="2.52398">
        <ele>770</ele>
        <time>2020-03-27T10:55:23Z</time>
      </trkpt>
      <trkpt lat="43.72317" lon="2.52386">
        <ele>770</ele>
        <time>2020-03-27T10:55:26Z</time>
      </trkpt>
      <trkpt lat="43.7232" lon="2.52373">
        <ele>770.1</ele>
        <time>2020-03-27T10:55:29Z</time>
      </trkpt>
      <trkpt lat="43.72322" lon="2.52358">
        <ele>770.2</ele>
        <time>2020-03-27T10:55:32Z</time>
      </trkpt>
      <trkpt lat="43.72324" lon="2.52342">
        <ele>770.8</ele>
        <time>2020-03-27T10:55:35Z</time>
      </trkpt>
      <trkpt lat="43.72323" lon="2.52325">
        <ele>771.3</ele>
        <time>2020-03-27T10:55:38Z</time>
      </trkpt>
      <trkpt lat="43.72322" lon="2.52308">
        <ele>772</ele>
        <time>2020-03-27T10:55:41Z</time>
      </trkpt>
      <trkpt lat="43.7232" lon="2.52291">
        <ele>772.4</ele>
        <time>2020-03-27T10:55:44Z</time>
      </trkpt>
      <trkpt lat="43.72317" lon="2.52274">
        <ele>773</ele>
        <time>2020-03-27T10:55:47Z</time>
      </trkpt>
      <trkpt lat="43.72314" lon="2.52258">
        <ele>773.5</ele>
        <time>2020-03-27T10:55:50Z</time>
      </trkpt>
      <trkpt lat="43.7231" lon="2.52242">
        <ele>774.1</ele>
        <time>2020-03-27T10:55:53Z</time>
      </trkpt>
      <trkpt lat="43.72305" lon="2.52226">
        <ele>774.7</ele>
        <time>2020-03-27T10:55:56Z</time>
      </trkpt>
      <trkpt lat="43.72301" lon="2.52214">
        <ele>775</ele>
        <time>2020-03-27T10:55:58Z</time>
      </trkpt>
      <trkpt lat="43.72296" lon="2.52202">
        <ele>775.4</ele>
        <time>2020-03-27T10:56:00Z</time>
      </trkpt>
      <trkpt lat="43.72293" lon="2.5219">
        <ele>775.7</ele>
        <time>2020-03-27T10:56:02Z</time>
      </trkpt>
      <trkpt lat="43.72287" lon="2.52174">
        <ele>776.1</ele>
        <time>2020-03-27T10:56:05Z</time>
      </trkpt>
      <trkpt lat="43.72283" lon="2.52163">
        <ele>776.3</ele>
        <time>2020-03-27T10:56:07Z</time>
      </trkpt>
      <trkpt lat="43.7228" lon="2.52151">
        <ele>776.7</ele>
        <time>2020-03-27T10:56:09Z</time>
      </trkpt>
      <trkpt lat="43.72274" lon="2.52138">
        <ele>777.3</ele>
        <time>2020-03-27T10:56:11Z</time>
      </trkpt>
      <trkpt lat="43.72268" lon="2.52126">
        <ele>777.6</ele>
        <time>2020-03-27T10:56:13Z</time>
      </trkpt>
      <trkpt lat="43.72263" lon="2.52116">
        <ele>777.8</ele>
        <time>2020-03-27T10:56:15Z</time>
      </trkpt>
      <trkpt lat="43.72256" lon="2.52106">
        <ele>778.1</ele>
        <time>2020-03-27T10:56:17Z</time>
      </trkpt>
      <trkpt lat="43.72248" lon="2.52095">
        <ele>778.7</ele>
        <time>2020-03-27T10:56:19Z</time>
      </trkpt>
      <trkpt lat="43.72239" lon="2.52085">
        <ele>779.3</ele>
        <time>2020-03-27T10:56:21Z</time>
      </trkpt>
      <trkpt lat="43.72227" lon="2.52078">
        <ele>779.9</ele>
        <time>2020-03-27T10:56:23Z</time>
      </trkpt>
      <trkpt lat="43.72218" lon="2.52071">
        <ele>780.4</ele>
        <time>2020-03-27T10:56:25Z</time>
      </trkpt>
      <trkpt lat="43.72209" lon="2.52063">
        <ele>780.4</ele>
        <time>2020-03-27T10:56:27Z</time>
      </trkpt>
      <trkpt lat="43.72199" lon="2.52052">
        <ele>780.3</ele>
        <time>2020-03-27T10:56:29Z</time>
      </trkpt>
      <trkpt lat="43.72189" lon="2.52039">
        <ele>780.1</ele>
        <time>2020-03-27T10:56:31Z</time>
      </trkpt>
      <trkpt lat="43.72184" lon="2.52022">
        <ele>779.9</ele>
        <time>2020-03-27T10:56:33Z</time>
      </trkpt>
      <trkpt lat="43.72182" lon="2.52005">
        <ele>779.5</ele>
        <time>2020-03-27T10:56:35Z</time>
      </trkpt>
      <trkpt lat="43.7218" lon="2.51988">
        <ele>779.2</ele>
        <time>2020-03-27T10:56:37Z</time>
      </trkpt>
      <trkpt lat="43.7218" lon="2.51971">
        <ele>779</ele>
        <time>2020-03-27T10:56:39Z</time>
      </trkpt>
      <trkpt lat="43.72184" lon="2.51955">
        <ele>779</ele>
        <time>2020-03-27T10:56:41Z</time>
      </trkpt>
      <trkpt lat="43.72188" lon="2.51941">
        <ele>778.9</ele>
        <time>2020-03-27T10:56:43Z</time>
      </trkpt>
      <trkpt lat="43.72193" lon="2.51928">
        <ele>778.8</ele>
        <time>2020-03-27T10:56:45Z</time>
      </trkpt>
      <trkpt lat="43.722" lon="2.51918">
        <ele>778.6</ele>
        <time>2020-03-27T10:56:47Z</time>
      </trkpt>
      <trkpt lat="43.72206" lon="2.51908">
        <ele>778.3</ele>
        <time>2020-03-27T10:56:49Z</time>
      </trkpt>
      <trkpt lat="43.7221" lon="2.51896">
        <ele>777.8</ele>
        <time>2020-03-27T10:56:51Z</time>
      </trkpt>
      <trkpt lat="43.72214" lon="2.51883">
        <ele>777.4</ele>
        <time>2020-03-27T10:56:53Z</time>
      </trkpt>
      <trkpt lat="43.72218" lon="2.51868">
        <ele>777.1</ele>
        <time>2020-03-27T10:56:55Z</time>
      </trkpt>
      <trkpt lat="43.7222" lon="2.51852">
        <ele>776.6</ele>
        <time>2020-03-27T10:56:57Z</time>
      </trkpt>
      <trkpt lat="43.72221" lon="2.51833">
        <ele>776.2</ele>
        <time>2020-03-27T10:56:59Z</time>
      </trkpt>
      <trkpt lat="43.72222" lon="2.51814">
        <ele>775.7</ele>
        <time>2020-03-27T10:57:01Z</time>
      </trkpt>
      <trkpt lat="43.72222" lon="2.51794">
        <ele>775.2</ele>
        <time>2020-03-27T10:57:03Z</time>
      </trkpt>
      <trkpt lat="43.72221" lon="2.51774">
        <ele>774.7</ele>
        <time>2020-03-27T10:57:05Z</time>
      </trkpt>
      <trkpt lat="43.72219" lon="2.51755">
        <ele>774.1</ele>
        <time>2020-03-27T10:57:07Z</time>
      </trkpt>
      <trkpt lat="43.72218" lon="2.51735">
        <ele>773.5</ele>
        <time>2020-03-27T10:57:09Z</time>
      </trkpt>
      <trkpt lat="43.72216" lon="2.51715">
        <ele>772.9</ele>
        <time>2020-03-27T10:57:11Z</time>
      </trkpt>
      <trkpt lat="43.72213" lon="2.51696">
        <ele>772.3</ele>
        <time>2020-03-27T10:57:13Z</time>
      </trkpt>
      <trkpt lat="43.7221" lon="2.51678">
        <ele>771.5</ele>
        <time>2020-03-27T10:57:15Z</time>
      </trkpt>
      <trkpt lat="43.72206" lon="2.5166">
        <ele>770.9</ele>
        <time>2020-03-27T10:57:17Z</time>
      </trkpt>
      <trkpt lat="43.72203" lon="2.51644">
        <ele>770.3</ele>
        <time>2020-03-27T10:57:19Z</time>
      </trkpt>
      <trkpt lat="43.72201" lon="2.51632">
        <ele>769.8</ele>
        <time>2020-03-27T10:57:21Z</time>
      </trkpt>
      <trkpt lat="43.72198" lon="2.51616">
        <ele>768.9</ele>
        <time>2020-03-27T10:57:24Z</time>
      </trkpt>
      <trkpt lat="43.72196" lon="2.51597">
        <ele>768</ele>
        <time>2020-03-27T10:57:27Z</time>
      </trkpt>
      <trkpt lat="43.72194" lon="2.51583">
        <ele>767.5</ele>
        <time>2020-03-27T10:57:29Z</time>
      </trkpt>
      <trkpt lat="43.72191" lon="2.51568">
        <ele>767</ele>
        <time>2020-03-27T10:57:31Z</time>
      </trkpt>
      <trkpt lat="43.72187" lon="2.51552">
        <ele>766.5</ele>
        <time>2020-03-27T10:57:33Z</time>
      </trkpt>
      <trkpt lat="43.72184" lon="2.51533">
        <ele>765.9</ele>
        <time>2020-03-27T10:57:35Z</time>
      </trkpt>
      <trkpt lat="43.72179" lon="2.51513">
        <ele>765.4</ele>
        <time>2020-03-27T10:57:37Z</time>
      </trkpt>
      <trkpt lat="43.72175" lon="2.51493">
        <ele>764.9</ele>
        <time>2020-03-27T10:57:39Z</time>
      </trkpt>
      <trkpt lat="43.72171" lon="2.51472">
        <ele>764.3</ele>
        <time>2020-03-27T10:57:41Z</time>
      </trkpt>
      <trkpt lat="43.72168" lon="2.5145">
        <ele>763.5</ele>
        <time>2020-03-27T10:57:43Z</time>
      </trkpt>
      <trkpt lat="43.72167" lon="2.51427">
        <ele>762.7</ele>
        <time>2020-03-27T10:57:45Z</time>
      </trkpt>
      <trkpt lat="43.72168" lon="2.51404">
        <ele>761.8</ele>
        <time>2020-03-27T10:57:47Z</time>
      </trkpt>
      <trkpt lat="43.72172" lon="2.51379">
        <ele>760.8</ele>
        <time>2020-03-27T10:57:49Z</time>
      </trkpt>
      <trkpt lat="43.72173" lon="2.51367">
        <ele>760.4</ele>
        <time>2020-03-27T10:57:50Z</time>
      </trkpt>
      <trkpt lat="43.72174" lon="2.51354">
        <ele>760</ele>
        <time>2020-03-27T10:57:51Z</time>
      </trkpt>
      <trkpt lat="43.72175" lon="2.51341">
        <ele>759.6</ele>
        <time>2020-03-27T10:57:52Z</time>
      </trkpt>
      <trkpt lat="43.72176" lon="2.51328">
        <ele>759.2</ele>
        <time>2020-03-27T10:57:53Z</time>
      </trkpt>
      <trkpt lat="43.72176" lon="2.51315">
        <ele>758.7</ele>
        <time>2020-03-27T10:57:54Z</time>
      </trkpt>
      <trkpt lat="43.72176" lon="2.51301">
        <ele>758.1</ele>
        <time>2020-03-27T10:57:55Z</time>
      </trkpt>
      <trkpt lat="43.72177" lon="2.51288">
        <ele>757.6</ele>
        <time>2020-03-27T10:57:56Z</time>
      </trkpt>
      <trkpt lat="43.72177" lon="2.51276">
        <ele>757</ele>
        <time>2020-03-27T10:57:57Z</time>
      </trkpt>
      <trkpt lat="43.72179" lon="2.51252">
        <ele>755.9</ele>
        <time>2020-03-27T10:57:59Z</time>
      </trkpt>
      <trkpt lat="43.72181" lon="2.51228">
        <ele>754.8</ele>
        <time>2020-03-27T10:58:01Z</time>
      </trkpt>
      <trkpt lat="43.72185" lon="2.51205">
        <ele>753.8</ele>
        <time>2020-03-27T10:58:03Z</time>
      </trkpt>
      <trkpt lat="43.72189" lon="2.51182">
        <ele>752.8</ele>
        <time>2020-03-27T10:58:05Z</time>
      </trkpt>
      <trkpt lat="43.72195" lon="2.51162">
        <ele>752</ele>
        <time>2020-03-27T10:58:07Z</time>
      </trkpt>
      <trkpt lat="43.72202" lon="2.51143">
        <ele>751.1</ele>
        <time>2020-03-27T10:58:09Z</time>
      </trkpt>
      <trkpt lat="43.72209" lon="2.51123">
        <ele>750.2</ele>
        <time>2020-03-27T10:58:11Z</time>
      </trkpt>
      <trkpt lat="43.72211" lon="2.51104">
        <ele>749.3</ele>
        <time>2020-03-27T10:58:13Z</time>
      </trkpt>
      <trkpt lat="43.72213" lon="2.51084">
        <ele>748.1</ele>
        <time>2020-03-27T10:58:15Z</time>
      </trkpt>
      <trkpt lat="43.72215" lon="2.51067">
        <ele>746.9</ele>
        <time>2020-03-27T10:58:17Z</time>
      </trkpt>
      <trkpt lat="43.72214" lon="2.51048">
        <ele>745.5</ele>
        <time>2020-03-27T10:58:19Z</time>
      </trkpt>
      <trkpt lat="43.72214" lon="2.51031">
        <ele>744.2</ele>
        <time>2020-03-27T10:58:21Z</time>
      </trkpt>
      <trkpt lat="43.72212" lon="2.51012">
        <ele>743.3</ele>
        <time>2020-03-27T10:58:23Z</time>
      </trkpt>
      <trkpt lat="43.7221" lon="2.50994">
        <ele>742.7</ele>
        <time>2020-03-27T10:58:25Z</time>
      </trkpt>
      <trkpt lat="43.72207" lon="2.50975">
        <ele>742.1</ele>
        <time>2020-03-27T10:58:27Z</time>
      </trkpt>
      <trkpt lat="43.72202" lon="2.50955">
        <ele>741.5</ele>
        <time>2020-03-27T10:58:29Z</time>
      </trkpt>
      <trkpt lat="43.72196" lon="2.50934">
        <ele>740.8</ele>
        <time>2020-03-27T10:58:31Z</time>
      </trkpt>
      <trkpt lat="43.7219" lon="2.50911">
        <ele>740.1</ele>
        <time>2020-03-27T10:58:33Z</time>
      </trkpt>
      <trkpt lat="43.72187" lon="2.50888">
        <ele>739.1</ele>
        <time>2020-03-27T10:58:35Z</time>
      </trkpt>
      <trkpt lat="43.72183" lon="2.50867">
        <ele>738</ele>
        <time>2020-03-27T10:58:37Z</time>
      </trkpt>
      <trkpt lat="43.72179" lon="2.50847">
        <ele>737.1</ele>
        <time>2020-03-27T10:58:39Z</time>
      </trkpt>
      <trkpt lat="43.72174" lon="2.50827">
        <ele>736.2</ele>
        <time>2020-03-27T10:58:41Z</time>
      </trkpt>
      <trkpt lat="43.72171" lon="2.50811">
        <ele>735.3</ele>
        <time>2020-03-27T10:58:43Z</time>
      </trkpt>
      <trkpt lat="43.72166" lon="2.50796">
        <ele>734.3</ele>
        <time>2020-03-27T10:58:45Z</time>
      </trkpt>
      <trkpt lat="43.72165" lon="2.50779">
        <ele>733.4</ele>
        <time>2020-03-27T10:58:47Z</time>
      </trkpt>
      <trkpt lat="43.72159" lon="2.50763">
        <ele>732.7</ele>
        <time>2020-03-27T10:58:49Z</time>
      </trkpt>
      <trkpt lat="43.7215" lon="2.50748">
        <ele>732.1</ele>
        <time>2020-03-27T10:58:51Z</time>
      </trkpt>
      <trkpt lat="43.72145" lon="2.50735">
        <ele>731.6</ele>
        <time>2020-03-27T10:58:53Z</time>
      </trkpt>
      <trkpt lat="43.7214" lon="2.5072">
        <ele>731.2</ele>
        <time>2020-03-27T10:58:55Z</time>
      </trkpt>
      <trkpt lat="43.72135" lon="2.50702">
        <ele>730.8</ele>
        <time>2020-03-27T10:58:57Z</time>
      </trkpt>
      <trkpt lat="43.72131" lon="2.50682">
        <ele>730.2</ele>
        <time>2020-03-27T10:58:59Z</time>
      </trkpt>
      <trkpt lat="43.72126" lon="2.50662">
        <ele>729.5</ele>
        <time>2020-03-27T10:59:01Z</time>
      </trkpt>
      <trkpt lat="43.72118" lon="2.50639">
        <ele>728.8</ele>
        <time>2020-03-27T10:59:03Z</time>
      </trkpt>
      <trkpt lat="43.72112" lon="2.50618">
        <ele>728.3</ele>
        <time>2020-03-27T10:59:05Z</time>
      </trkpt>
      <trkpt lat="43.72106" lon="2.50597">
        <ele>727.6</ele>
        <time>2020-03-27T10:59:07Z</time>
      </trkpt>
      <trkpt lat="43.72098" lon="2.50576">
        <ele>726.8</ele>
        <time>2020-03-27T10:59:09Z</time>
      </trkpt>
      <trkpt lat="43.72088" lon="2.50556">
        <ele>725.9</ele>
        <time>2020-03-27T10:59:11Z</time>
      </trkpt>
      <trkpt lat="43.72084" lon="2.50545">
        <ele>725.4</ele>
        <time>2020-03-27T10:59:12Z</time>
      </trkpt>
      <trkpt lat="43.72077" lon="2.50523">
        <ele>724.5</ele>
        <time>2020-03-27T10:59:14Z</time>
      </trkpt>
      <trkpt lat="43.72073" lon="2.50501">
        <ele>723.4</ele>
        <time>2020-03-27T10:59:16Z</time>
      </trkpt>
      <trkpt lat="43.72071" lon="2.50478">
        <ele>722.2</ele>
        <time>2020-03-27T10:59:18Z</time>
      </trkpt>
      <trkpt lat="43.7207" lon="2.50456">
        <ele>721</ele>
        <time>2020-03-27T10:59:20Z</time>
      </trkpt>
      <trkpt lat="43.72071" lon="2.50443">
        <ele>720.4</ele>
        <time>2020-03-27T10:59:21Z</time>
      </trkpt>
      <trkpt lat="43.72071" lon="2.50431">
        <ele>719.8</ele>
        <time>2020-03-27T10:59:22Z</time>
      </trkpt>
      <trkpt lat="43.72073" lon="2.50417">
        <ele>719.2</ele>
        <time>2020-03-27T10:59:23Z</time>
      </trkpt>
      <trkpt lat="43.72075" lon="2.50403">
        <ele>718.5</ele>
        <time>2020-03-27T10:59:24Z</time>
      </trkpt>
      <trkpt lat="43.72078" lon="2.5039">
        <ele>717.9</ele>
        <time>2020-03-27T10:59:25Z</time>
      </trkpt>
      <trkpt lat="43.72079" lon="2.50375">
        <ele>717.3</ele>
        <time>2020-03-27T10:59:26Z</time>
      </trkpt>
      <trkpt lat="43.7208" lon="2.50361">
        <ele>716.6</ele>
        <time>2020-03-27T10:59:27Z</time>
      </trkpt>
      <trkpt lat="43.72081" lon="2.50347">
        <ele>716</ele>
        <time>2020-03-27T10:59:28Z</time>
      </trkpt>
      <trkpt lat="43.7208" lon="2.50332">
        <ele>715.4</ele>
        <time>2020-03-27T10:59:29Z</time>
      </trkpt>
      <trkpt lat="43.72077" lon="2.50318">
        <ele>714.8</ele>
        <time>2020-03-27T10:59:30Z</time>
      </trkpt>
      <trkpt lat="43.72074" lon="2.50304">
        <ele>714.3</ele>
        <time>2020-03-27T10:59:31Z</time>
      </trkpt>
      <trkpt lat="43.72071" lon="2.50291">
        <ele>713.8</ele>
        <time>2020-03-27T10:59:32Z</time>
      </trkpt>
      <trkpt lat="43.7207" lon="2.50278">
        <ele>713.2</ele>
        <time>2020-03-27T10:59:33Z</time>
      </trkpt>
      <trkpt lat="43.72068" lon="2.50255">
        <ele>712.1</ele>
        <time>2020-03-27T10:59:35Z</time>
      </trkpt>
      <trkpt lat="43.72067" lon="2.50237">
        <ele>711.1</ele>
        <time>2020-03-27T10:59:37Z</time>
      </trkpt>
      <trkpt lat="43.72066" lon="2.50222">
        <ele>710.2</ele>
        <time>2020-03-27T10:59:39Z</time>
      </trkpt>
      <trkpt lat="43.72064" lon="2.50206">
        <ele>709.5</ele>
        <time>2020-03-27T10:59:42Z</time>
      </trkpt>
      <trkpt lat="43.72062" lon="2.5019">
        <ele>709.2</ele>
        <time>2020-03-27T10:59:46Z</time>
      </trkpt>
      <trkpt lat="43.7206" lon="2.50178">
        <ele>709</ele>
        <time>2020-03-27T10:59:49Z</time>
      </trkpt>
      <trkpt lat="43.7206" lon="2.50162">
        <ele>708.8</ele>
        <time>2020-03-27T10:59:53Z</time>
      </trkpt>
      <trkpt lat="43.72058" lon="2.50147">
        <ele>708.5</ele>
        <time>2020-03-27T10:59:57Z</time>
      </trkpt>
      <trkpt lat="43.72057" lon="2.50134">
        <ele>708.3</ele>
        <time>2020-03-27T11:00:00Z</time>
      </trkpt>
      <trkpt lat="43.72056" lon="2.5012">
        <ele>708.1</ele>
        <time>2020-03-27T11:00:03Z</time>
      </trkpt>
      <trkpt lat="43.72054" lon="2.50107">
        <ele>708</ele>
        <time>2020-03-27T11:00:06Z</time>
      </trkpt>
      <trkpt lat="43.72054" lon="2.50094">
        <ele>707.8</ele>
        <time>2020-03-27T11:00:09Z</time>
      </trkpt>
      <trkpt lat="43.72052" lon="2.50076">
        <ele>706.6</ele>
        <time>2020-03-27T11:00:12Z</time>
      </trkpt>
      <trkpt lat="43.72049" lon="2.50064">
        <ele>706.1</ele>
        <time>2020-03-27T11:00:14Z</time>
      </trkpt>
      <trkpt lat="43.72046" lon="2.50046">
        <ele>705.4</ele>
        <time>2020-03-27T11:00:17Z</time>
      </trkpt>
      <trkpt lat="43.72042" lon="2.50028">
        <ele>705</ele>
        <time>2020-03-27T11:00:20Z</time>
      </trkpt>
      <trkpt lat="43.72038" lon="2.50011">
        <ele>704.7</ele>
        <time>2020-03-27T11:00:23Z</time>
      </trkpt>
      <trkpt lat="43.72035" lon="2.49995">
        <ele>704.6</ele>
        <time>2020-03-27T11:00:26Z</time>
      </trkpt>
      <trkpt lat="43.72033" lon="2.49981">
        <ele>704.6</ele>
        <time>2020-03-27T11:00:29Z</time>
      </trkpt>
      <trkpt lat="43.72032" lon="2.49966">
        <ele>704.6</ele>
        <time>2020-03-27T11:00:32Z</time>
      </trkpt>
      <trkpt lat="43.7203" lon="2.49948">
        <ele>704.6</ele>
        <time>2020-03-27T11:00:35Z</time>
      </trkpt>
      <trkpt lat="43.7203" lon="2.49931">
        <ele>704.6</ele>
        <time>2020-03-27T11:00:38Z</time>
      </trkpt>
      <trkpt lat="43.7203" lon="2.49915">
        <ele>704.7</ele>
        <time>2020-03-27T11:00:41Z</time>
      </trkpt>
      <trkpt lat="43.7203" lon="2.49899">
        <ele>704.8</ele>
        <time>2020-03-27T11:00:44Z</time>
      </trkpt>
      <trkpt lat="43.72031" lon="2.49883">
        <ele>704.9</ele>
        <time>2020-03-27T11:00:47Z</time>
      </trkpt>
      <trkpt lat="43.72033" lon="2.49869">
        <ele>705</ele>
        <time>2020-03-27T11:00:50Z</time>
      </trkpt>
      <trkpt lat="43.72037" lon="2.49855">
        <ele>705.1</ele>
        <time>2020-03-27T11:00:53Z</time>
      </trkpt>
      <trkpt lat="43.72041" lon="2.49841">
        <ele>705.2</ele>
        <time>2020-03-27T11:00:56Z</time>
      </trkpt>
      <trkpt lat="43.72044" lon="2.49829">
        <ele>705.3</ele>
        <time>2020-03-27T11:00:59Z</time>
      </trkpt>
      <trkpt lat="43.72048" lon="2.49816">
        <ele>705.4</ele>
        <time>2020-03-27T11:01:02Z</time>
      </trkpt>
      <trkpt lat="43.72053" lon="2.49804">
        <ele>705.5</ele>
        <time>2020-03-27T11:01:05Z</time>
      </trkpt>
      <trkpt lat="43.72056" lon="2.49792">
        <ele>705.7</ele>
        <time>2020-03-27T11:01:08Z</time>
      </trkpt>
      <trkpt lat="43.72061" lon="2.49777">
        <ele>705.9</ele>
        <time>2020-03-27T11:01:12Z</time>
      </trkpt>
      <trkpt lat="43.72066" lon="2.49766">
        <ele>706.1</ele>
        <time>2020-03-27T11:01:15Z</time>
      </trkpt>
      <trkpt lat="43.72069" lon="2.49751">
        <ele>706.3</ele>
        <time>2020-03-27T11:01:18Z</time>
      </trkpt>
      <trkpt lat="43.72074" lon="2.49737">
        <ele>706.8</ele>
        <time>2020-03-27T11:01:21Z</time>
      </trkpt>
      <trkpt lat="43.72079" lon="2.4972">
        <ele>708</ele>
        <time>2020-03-27T11:01:24Z</time>
      </trkpt>
      <trkpt lat="43.72081" lon="2.49707">
        <ele>708.8</ele>
        <time>2020-03-27T11:01:26Z</time>
      </trkpt>
      <trkpt lat="43.72084" lon="2.49693">
        <ele>709.3</ele>
        <time>2020-03-27T11:01:28Z</time>
      </trkpt>
      <trkpt lat="43.72086" lon="2.49678">
        <ele>709.8</ele>
        <time>2020-03-27T11:01:30Z</time>
      </trkpt>
      <trkpt lat="43.72092" lon="2.49664">
        <ele>710.1</ele>
        <time>2020-03-27T11:01:32Z</time>
      </trkpt>
      <trkpt lat="43.72097" lon="2.4965">
        <ele>710.3</ele>
        <time>2020-03-27T11:01:34Z</time>
      </trkpt>
      <trkpt lat="43.72102" lon="2.49635">
        <ele>710.3</ele>
        <time>2020-03-27T11:01:36Z</time>
      </trkpt>
      <trkpt lat="43.72108" lon="2.4962">
        <ele>710.2</ele>
        <time>2020-03-27T11:01:38Z</time>
      </trkpt>
      <trkpt lat="43.72114" lon="2.49605">
        <ele>710.1</ele>
        <time>2020-03-27T11:01:40Z</time>
      </trkpt>
      <trkpt lat="43.72119" lon="2.49589">
        <ele>709.9</ele>
        <time>2020-03-27T11:01:42Z</time>
      </trkpt>
      <trkpt lat="43.72126" lon="2.49575">
        <ele>709.8</ele>
        <time>2020-03-27T11:01:44Z</time>
      </trkpt>
      <trkpt lat="43.72132" lon="2.4956">
        <ele>709.6</ele>
        <time>2020-03-27T11:01:46Z</time>
      </trkpt>
      <trkpt lat="43.72137" lon="2.49543">
        <ele>709.5</ele>
        <time>2020-03-27T11:01:48Z</time>
      </trkpt>
      <trkpt lat="43.72144" lon="2.49529">
        <ele>709.3</ele>
        <time>2020-03-27T11:01:50Z</time>
      </trkpt>
      <trkpt lat="43.72151" lon="2.49514">
        <ele>709.1</ele>
        <time>2020-03-27T11:01:52Z</time>
      </trkpt>
      <trkpt lat="43.72157" lon="2.49497">
        <ele>709</ele>
        <time>2020-03-27T11:01:54Z</time>
      </trkpt>
      <trkpt lat="43.72164" lon="2.4948">
        <ele>709.2</ele>
        <time>2020-03-27T11:01:56Z</time>
      </trkpt>
      <trkpt lat="43.72172" lon="2.49464">
        <ele>709.4</ele>
        <time>2020-03-27T11:01:58Z</time>
      </trkpt>
      <trkpt lat="43.72181" lon="2.49449">
        <ele>709.6</ele>
        <time>2020-03-27T11:02:00Z</time>
      </trkpt>
      <trkpt lat="43.72192" lon="2.49434">
        <ele>709.4</ele>
        <time>2020-03-27T11:02:02Z</time>
      </trkpt>
      <trkpt lat="43.72203" lon="2.49419">
        <ele>709.1</ele>
        <time>2020-03-27T11:02:04Z</time>
      </trkpt>
      <trkpt lat="43.72215" lon="2.49405">
        <ele>708.6</ele>
        <time>2020-03-27T11:02:06Z</time>
      </trkpt>
      <trkpt lat="43.72226" lon="2.49391">
        <ele>708</ele>
        <time>2020-03-27T11:02:08Z</time>
      </trkpt>
      <trkpt lat="43.72238" lon="2.49376">
        <ele>707.4</ele>
        <time>2020-03-27T11:02:10Z</time>
      </trkpt>
      <trkpt lat="43.72251" lon="2.49359">
        <ele>706.8</ele>
        <time>2020-03-27T11:02:12Z</time>
      </trkpt>
      <trkpt lat="43.72258" lon="2.49351">
        <ele>706.5</ele>
        <time>2020-03-27T11:02:13Z</time>
      </trkpt>
      <trkpt lat="43.72264" lon="2.49342">
        <ele>706.2</ele>
        <time>2020-03-27T11:02:14Z</time>
      </trkpt>
      <trkpt lat="43.72271" lon="2.49333">
        <ele>705.8</ele>
        <time>2020-03-27T11:02:15Z</time>
      </trkpt>
      <trkpt lat="43.72278" lon="2.49325">
        <ele>705.5</ele>
        <time>2020-03-27T11:02:16Z</time>
      </trkpt>
      <trkpt lat="43.72285" lon="2.49317">
        <ele>705.2</ele>
        <time>2020-03-27T11:02:17Z</time>
      </trkpt>
      <trkpt lat="43.72299" lon="2.49303">
        <ele>704.2</ele>
        <time>2020-03-27T11:02:19Z</time>
      </trkpt>
      <trkpt lat="43.72314" lon="2.49289">
        <ele>703.2</ele>
        <time>2020-03-27T11:02:21Z</time>
      </trkpt>
      <trkpt lat="43.72321" lon="2.49282">
        <ele>702.7</ele>
        <time>2020-03-27T11:02:22Z</time>
      </trkpt>
      <trkpt lat="43.7233" lon="2.49276">
        <ele>702.2</ele>
        <time>2020-03-27T11:02:23Z</time>
      </trkpt>
      <trkpt lat="43.72338" lon="2.49268">
        <ele>701.6</ele>
        <time>2020-03-27T11:02:24Z</time>
      </trkpt>
      <trkpt lat="43.72345" lon="2.4926">
        <ele>701</ele>
        <time>2020-03-27T11:02:25Z</time>
      </trkpt>
      <trkpt lat="43.72353" lon="2.49252">
        <ele>700.4</ele>
        <time>2020-03-27T11:02:26Z</time>
      </trkpt>
      <trkpt lat="43.72361" lon="2.49244">
        <ele>699.8</ele>
        <time>2020-03-27T11:02:27Z</time>
      </trkpt>
      <trkpt lat="43.72369" lon="2.49237">
        <ele>699.1</ele>
        <time>2020-03-27T11:02:28Z</time>
      </trkpt>
      <trkpt lat="43.72377" lon="2.4923">
        <ele>698.4</ele>
        <time>2020-03-27T11:02:29Z</time>
      </trkpt>
      <trkpt lat="43.72385" lon="2.49222">
        <ele>697.7</ele>
        <time>2020-03-27T11:02:30Z</time>
      </trkpt>
      <trkpt lat="43.72393" lon="2.49213">
        <ele>697</ele>
        <time>2020-03-27T11:02:31Z</time>
      </trkpt>
      <trkpt lat="43.72401" lon="2.49204">
        <ele>696.3</ele>
        <time>2020-03-27T11:02:32Z</time>
      </trkpt>
      <trkpt lat="43.72409" lon="2.49196">
        <ele>695.6</ele>
        <time>2020-03-27T11:02:33Z</time>
      </trkpt>
      <trkpt lat="43.72416" lon="2.49188">
        <ele>694.9</ele>
        <time>2020-03-27T11:02:34Z</time>
      </trkpt>
      <trkpt lat="43.72422" lon="2.49179">
        <ele>694.1</ele>
        <time>2020-03-27T11:02:35Z</time>
      </trkpt>
      <trkpt lat="43.72435" lon="2.49162">
        <ele>692.6</ele>
        <time>2020-03-27T11:02:37Z</time>
      </trkpt>
      <trkpt lat="43.72448" lon="2.49146">
        <ele>691</ele>
        <time>2020-03-27T11:02:39Z</time>
      </trkpt>
      <trkpt lat="43.72461" lon="2.49128">
        <ele>689.6</ele>
        <time>2020-03-27T11:02:41Z</time>
      </trkpt>
      <trkpt lat="43.72475" lon="2.49114">
        <ele>688.3</ele>
        <time>2020-03-27T11:02:43Z</time>
      </trkpt>
      <trkpt lat="43.72487" lon="2.49098">
        <ele>686.9</ele>
        <time>2020-03-27T11:02:45Z</time>
      </trkpt>
      <trkpt lat="43.72497" lon="2.4908">
        <ele>685.6</ele>
        <time>2020-03-27T11:02:47Z</time>
      </trkpt>
      <trkpt lat="43.72503" lon="2.49059">
        <ele>684.2</ele>
        <time>2020-03-27T11:02:49Z</time>
      </trkpt>
      <trkpt lat="43.72507" lon="2.49039">
        <ele>682.8</ele>
        <time>2020-03-27T11:02:51Z</time>
      </trkpt>
      <trkpt lat="43.72511" lon="2.4902">
        <ele>681.6</ele>
        <time>2020-03-27T11:02:53Z</time>
      </trkpt>
      <trkpt lat="43.72513" lon="2.49003">
        <ele>680.3</ele>
        <time>2020-03-27T11:02:55Z</time>
      </trkpt>
      <trkpt lat="43.72516" lon="2.48985">
        <ele>679.3</ele>
        <time>2020-03-27T11:02:57Z</time>
      </trkpt>
      <trkpt lat="43.72518" lon="2.48968">
        <ele>678.3</ele>
        <time>2020-03-27T11:02:59Z</time>
      </trkpt>
      <trkpt lat="43.72521" lon="2.48952">
        <ele>677.6</ele>
        <time>2020-03-27T11:03:01Z</time>
      </trkpt>
      <trkpt lat="43.72525" lon="2.48938">
        <ele>676.8</ele>
        <time>2020-03-27T11:03:03Z</time>
      </trkpt>
      <trkpt lat="43.72529" lon="2.48924">
        <ele>676</ele>
        <time>2020-03-27T11:03:05Z</time>
      </trkpt>
      <trkpt lat="43.72535" lon="2.4891">
        <ele>675.3</ele>
        <time>2020-03-27T11:03:07Z</time>
      </trkpt>
      <trkpt lat="43.7254" lon="2.48897">
        <ele>674.5</ele>
        <time>2020-03-27T11:03:09Z</time>
      </trkpt>
      <trkpt lat="43.72545" lon="2.48883">
        <ele>673.7</ele>
        <time>2020-03-27T11:03:11Z</time>
      </trkpt>
      <trkpt lat="43.7255" lon="2.48868">
        <ele>672.9</ele>
        <time>2020-03-27T11:03:13Z</time>
      </trkpt>
      <trkpt lat="43.72557" lon="2.48853">
        <ele>672.2</ele>
        <time>2020-03-27T11:03:15Z</time>
      </trkpt>
      <trkpt lat="43.72563" lon="2.48839">
        <ele>671.7</ele>
        <time>2020-03-27T11:03:17Z</time>
      </trkpt>
      <trkpt lat="43.72567" lon="2.48825">
        <ele>671.2</ele>
        <time>2020-03-27T11:03:19Z</time>
      </trkpt>
      <trkpt lat="43.72572" lon="2.48812">
        <ele>670.8</ele>
        <time>2020-03-27T11:03:21Z</time>
      </trkpt>
      <trkpt lat="43.72577" lon="2.48797">
        <ele>670.7</ele>
        <time>2020-03-27T11:03:23Z</time>
      </trkpt>
      <trkpt lat="43.72584" lon="2.48782">
        <ele>670.8</ele>
        <time>2020-03-27T11:03:25Z</time>
      </trkpt>
      <trkpt lat="43.7259" lon="2.48766">
        <ele>671</ele>
        <time>2020-03-27T11:03:27Z</time>
      </trkpt>
      <trkpt lat="43.72595" lon="2.4875">
        <ele>671.1</ele>
        <time>2020-03-27T11:03:29Z</time>
      </trkpt>
      <trkpt lat="43.72601" lon="2.48733">
        <ele>671.1</ele>
        <time>2020-03-27T11:03:31Z</time>
      </trkpt>
      <trkpt lat="43.72605" lon="2.48716">
        <ele>670.9</ele>
        <time>2020-03-27T11:03:33Z</time>
      </trkpt>
      <trkpt lat="43.72607" lon="2.48701">
        <ele>670.7</ele>
        <time>2020-03-27T11:03:35Z</time>
      </trkpt>
      <trkpt lat="43.7261" lon="2.48686">
        <ele>670.7</ele>
        <time>2020-03-27T11:03:37Z</time>
      </trkpt>
      <trkpt lat="43.72614" lon="2.48673">
        <ele>670.5</ele>
        <time>2020-03-27T11:03:39Z</time>
      </trkpt>
      <trkpt lat="43.72614" lon="2.48658">
        <ele>670.5</ele>
        <time>2020-03-27T11:03:41Z</time>
      </trkpt>
      <trkpt lat="43.72616" lon="2.48645">
        <ele>670.5</ele>
        <time>2020-03-27T11:03:43Z</time>
      </trkpt>
      <trkpt lat="43.72613" lon="2.48628">
        <ele>670.7</ele>
        <time>2020-03-27T11:03:46Z</time>
      </trkpt>
      <trkpt lat="43.7261" lon="2.48612">
        <ele>670.8</ele>
        <time>2020-03-27T11:03:49Z</time>
      </trkpt>
      <trkpt lat="43.72607" lon="2.48597">
        <ele>670.9</ele>
        <time>2020-03-27T11:03:52Z</time>
      </trkpt>
      <trkpt lat="43.72604" lon="2.48582">
        <ele>670.9</ele>
        <time>2020-03-27T11:03:55Z</time>
      </trkpt>
      <trkpt lat="43.72604" lon="2.48569">
        <ele>671</ele>
        <time>2020-03-27T11:03:58Z</time>
      </trkpt>
      <trkpt lat="43.72607" lon="2.48555">
        <ele>671.1</ele>
        <time>2020-03-27T11:04:02Z</time>
      </trkpt>
      <trkpt lat="43.7261" lon="2.48542">
        <ele>671.2</ele>
        <time>2020-03-27T11:04:07Z</time>
      </trkpt>
      <trkpt lat="43.72612" lon="2.4853">
        <ele>671.3</ele>
        <time>2020-03-27T11:04:11Z</time>
      </trkpt>
      <trkpt lat="43.72614" lon="2.48517">
        <ele>671.5</ele>
        <time>2020-03-27T11:04:15Z</time>
      </trkpt>
      <trkpt lat="43.72617" lon="2.48504">
        <ele>671.6</ele>
        <time>2020-03-27T11:04:19Z</time>
      </trkpt>
      <trkpt lat="43.7262" lon="2.48487">
        <ele>671.7</ele>
        <time>2020-03-27T11:04:23Z</time>
      </trkpt>
      <trkpt lat="43.72623" lon="2.48473">
        <ele>671.8</ele>
        <time>2020-03-27T11:04:26Z</time>
      </trkpt>
      <trkpt lat="43.72626" lon="2.48459">
        <ele>671.9</ele>
        <time>2020-03-27T11:04:29Z</time>
      </trkpt>
      <trkpt lat="43.72629" lon="2.48445">
        <ele>672</ele>
        <time>2020-03-27T11:04:32Z</time>
      </trkpt>
      <trkpt lat="43.72632" lon="2.48431">
        <ele>672.1</ele>
        <time>2020-03-27T11:04:35Z</time>
      </trkpt>
      <trkpt lat="43.72635" lon="2.48418">
        <ele>672.3</ele>
        <time>2020-03-27T11:04:38Z</time>
      </trkpt>
      <trkpt lat="43.72638" lon="2.48405">
        <ele>672.4</ele>
        <time>2020-03-27T11:04:41Z</time>
      </trkpt>
      <trkpt lat="43.7264" lon="2.48392">
        <ele>672.5</ele>
        <time>2020-03-27T11:04:44Z</time>
      </trkpt>
      <trkpt lat="43.72643" lon="2.48377">
        <ele>672.7</ele>
        <time>2020-03-27T11:04:48Z</time>
      </trkpt>
      <trkpt lat="43.72646" lon="2.48364">
        <ele>672.9</ele>
        <time>2020-03-27T11:04:52Z</time>
      </trkpt>
      <trkpt lat="43.72649" lon="2.4835">
        <ele>673.2</ele>
        <time>2020-03-27T11:04:57Z</time>
      </trkpt>
      <trkpt lat="43.72651" lon="2.48336">
        <ele>673.5</ele>
        <time>2020-03-27T11:05:02Z</time>
      </trkpt>
      <trkpt lat="43.72653" lon="2.48322">
        <ele>673.8</ele>
        <time>2020-03-27T11:05:07Z</time>
      </trkpt>
      <trkpt lat="43.72655" lon="2.48308">
        <ele>674.2</ele>
        <time>2020-03-27T11:05:12Z</time>
      </trkpt>
      <trkpt lat="43.72658" lon="2.48295">
        <ele>674.6</ele>
        <time>2020-03-27T11:05:17Z</time>
      </trkpt>
      <trkpt lat="43.7266" lon="2.48281">
        <ele>675</ele>
        <time>2020-03-27T11:05:22Z</time>
      </trkpt>
      <trkpt lat="43.7266" lon="2.48268">
        <ele>675.5</ele>
        <time>2020-03-27T11:05:27Z</time>
      </trkpt>
      <trkpt lat="43.72659" lon="2.48255">
        <ele>676.1</ele>
        <time>2020-03-27T11:05:33Z</time>
      </trkpt>
      <trkpt lat="43.72658" lon="2.48242">
        <ele>676.6</ele>
        <time>2020-03-27T11:05:38Z</time>
      </trkpt>
      <trkpt lat="43.72656" lon="2.48229">
        <ele>677.2</ele>
        <time>2020-03-27T11:05:44Z</time>
      </trkpt>
      <trkpt lat="43.72655" lon="2.48214">
        <ele>677.7</ele>
        <time>2020-03-27T11:05:49Z</time>
      </trkpt>
      <trkpt lat="43.72653" lon="2.48202">
        <ele>677.9</ele>
        <time>2020-03-27T11:05:52Z</time>
      </trkpt>
      <trkpt lat="43.72651" lon="2.48187">
        <ele>678.1</ele>
        <time>2020-03-27T11:05:55Z</time>
      </trkpt>
      <trkpt lat="43.72647" lon="2.48171">
        <ele>678.2</ele>
        <time>2020-03-27T11:05:58Z</time>
      </trkpt>
      <trkpt lat="43.72644" lon="2.48156">
        <ele>678.4</ele>
        <time>2020-03-27T11:06:01Z</time>
      </trkpt>
      <trkpt lat="43.72641" lon="2.48143">
        <ele>679.4</ele>
        <time>2020-03-27T11:06:03Z</time>
      </trkpt>
      <trkpt lat="43.7264" lon="2.48129">
        <ele>680</ele>
        <time>2020-03-27T11:06:05Z</time>
      </trkpt>
      <trkpt lat="43.7264" lon="2.48114">
        <ele>680.2</ele>
        <time>2020-03-27T11:06:07Z</time>
      </trkpt>
      <trkpt lat="43.72638" lon="2.48097">
        <ele>680.3</ele>
        <time>2020-03-27T11:06:09Z</time>
      </trkpt>
      <trkpt lat="43.72637" lon="2.48078">
        <ele>680.6</ele>
        <time>2020-03-27T11:06:11Z</time>
      </trkpt>
      <trkpt lat="43.72637" lon="2.48061">
        <ele>680.9</ele>
        <time>2020-03-27T11:06:13Z</time>
      </trkpt>
      <trkpt lat="43.72639" lon="2.48043">
        <ele>681.1</ele>
        <time>2020-03-27T11:06:15Z</time>
      </trkpt>
      <trkpt lat="43.7264" lon="2.48025">
        <ele>681.1</ele>
        <time>2020-03-27T11:06:17Z</time>
      </trkpt>
      <trkpt lat="43.72641" lon="2.48006">
        <ele>681</ele>
        <time>2020-03-27T11:06:19Z</time>
      </trkpt>
      <trkpt lat="43.72643" lon="2.47987">
        <ele>680.7</ele>
        <time>2020-03-27T11:06:21Z</time>
      </trkpt>
      <trkpt lat="43.72645" lon="2.47967">
        <ele>680.5</ele>
        <time>2020-03-27T11:06:23Z</time>
      </trkpt>
      <trkpt lat="43.72646" lon="2.47946">
        <ele>680.1</ele>
        <time>2020-03-27T11:06:25Z</time>
      </trkpt>
      <trkpt lat="43.72646" lon="2.47924">
        <ele>679.8</ele>
        <time>2020-03-27T11:06:27Z</time>
      </trkpt>
      <trkpt lat="43.72646" lon="2.47903">
        <ele>679.3</ele>
        <time>2020-03-27T11:06:29Z</time>
      </trkpt>
      <trkpt lat="43.72647" lon="2.47881">
        <ele>678.7</ele>
        <time>2020-03-27T11:06:31Z</time>
      </trkpt>
      <trkpt lat="43.72648" lon="2.47859">
        <ele>678.1</ele>
        <time>2020-03-27T11:06:33Z</time>
      </trkpt>
      <trkpt lat="43.72649" lon="2.47836">
        <ele>677.5</ele>
        <time>2020-03-27T11:06:35Z</time>
      </trkpt>
      <trkpt lat="43.7265" lon="2.47811">
        <ele>676.7</ele>
        <time>2020-03-27T11:06:37Z</time>
      </trkpt>
      <trkpt lat="43.72652" lon="2.47788">
        <ele>676</ele>
        <time>2020-03-27T11:06:39Z</time>
      </trkpt>
      <trkpt lat="43.72653" lon="2.4777">
        <ele>675.2</ele>
        <time>2020-03-27T11:06:41Z</time>
      </trkpt>
      <trkpt lat="43.72654" lon="2.47753">
        <ele>674.4</ele>
        <time>2020-03-27T11:06:43Z</time>
      </trkpt>
      <trkpt lat="43.72654" lon="2.47738">
        <ele>673.5</ele>
        <time>2020-03-27T11:06:45Z</time>
      </trkpt>
      <trkpt lat="43.72654" lon="2.47721">
        <ele>672.6</ele>
        <time>2020-03-27T11:06:47Z</time>
      </trkpt>
      <trkpt lat="43.72655" lon="2.47704">
        <ele>671.7</ele>
        <time>2020-03-27T11:06:49Z</time>
      </trkpt>
      <trkpt lat="43.72655" lon="2.47687">
        <ele>670</ele>
        <time>2020-03-27T11:06:52Z</time>
      </trkpt>
      <trkpt lat="43.72654" lon="2.47672">
        <ele>668.7</ele>
        <time>2020-03-27T11:06:54Z</time>
      </trkpt>
      <trkpt lat="43.72649" lon="2.47656">
        <ele>667.3</ele>
        <time>2020-03-27T11:06:56Z</time>
      </trkpt>
      <trkpt lat="43.72645" lon="2.47635">
        <ele>666.1</ele>
        <time>2020-03-27T11:06:58Z</time>
      </trkpt>
      <trkpt lat="43.72642" lon="2.47619">
        <ele>665</ele>
        <time>2020-03-27T11:07:00Z</time>
      </trkpt>
      <trkpt lat="43.72639" lon="2.47605">
        <ele>663.7</ele>
        <time>2020-03-27T11:07:02Z</time>
      </trkpt>
      <trkpt lat="43.72633" lon="2.47595">
        <ele>662.2</ele>
        <time>2020-03-27T11:07:04Z</time>
      </trkpt>
      <trkpt lat="43.72621" lon="2.47599">
        <ele>660.7</ele>
        <time>2020-03-27T11:07:06Z</time>
      </trkpt>
      <trkpt lat="43.72612" lon="2.47608">
        <ele>659.6</ele>
        <time>2020-03-27T11:07:08Z</time>
      </trkpt>
      <trkpt lat="43.72609" lon="2.4762">
        <ele>658.8</ele>
        <time>2020-03-27T11:07:10Z</time>
      </trkpt>
      <trkpt lat="43.72599" lon="2.47623">
        <ele>658.1</ele>
        <time>2020-03-27T11:07:13Z</time>
      </trkpt>
      <trkpt lat="43.72589" lon="2.47612">
        <ele>657.3</ele>
        <time>2020-03-27T11:07:15Z</time>
      </trkpt>
      <trkpt lat="43.72582" lon="2.47599">
        <ele>656.3</ele>
        <time>2020-03-27T11:07:17Z</time>
      </trkpt>
      <trkpt lat="43.72574" lon="2.47585">
        <ele>655.3</ele>
        <time>2020-03-27T11:07:19Z</time>
      </trkpt>
      <trkpt lat="43.72567" lon="2.47568">
        <ele>653.9</ele>
        <time>2020-03-27T11:07:21Z</time>
      </trkpt>
      <trkpt lat="43.72559" lon="2.47547">
        <ele>652.7</ele>
        <time>2020-03-27T11:07:23Z</time>
      </trkpt>
      <trkpt lat="43.72556" lon="2.47534">
        <ele>652.2</ele>
        <time>2020-03-27T11:07:24Z</time>
      </trkpt>
      <trkpt lat="43.72548" lon="2.47512">
        <ele>650.8</ele>
        <time>2020-03-27T11:07:26Z</time>
      </trkpt>
      <trkpt lat="43.72543" lon="2.47492">
        <ele>649.5</ele>
        <time>2020-03-27T11:07:28Z</time>
      </trkpt>
      <trkpt lat="43.72536" lon="2.47472">
        <ele>648.1</ele>
        <time>2020-03-27T11:07:30Z</time>
      </trkpt>
      <trkpt lat="43.72533" lon="2.47452">
        <ele>646.6</ele>
        <time>2020-03-27T11:07:32Z</time>
      </trkpt>
      <trkpt lat="43.72534" lon="2.47428">
        <ele>645</ele>
        <time>2020-03-27T11:07:34Z</time>
      </trkpt>
      <trkpt lat="43.72531" lon="2.47409">
        <ele>643.3</ele>
        <time>2020-03-27T11:07:36Z</time>
      </trkpt>
      <trkpt lat="43.72523" lon="2.47394">
        <ele>641.3</ele>
        <time>2020-03-27T11:07:38Z</time>
      </trkpt>
      <trkpt lat="43.72512" lon="2.47391">
        <ele>639.3</ele>
        <time>2020-03-27T11:07:40Z</time>
      </trkpt>
      <trkpt lat="43.72499" lon="2.47401">
        <ele>637.9</ele>
        <time>2020-03-27T11:07:42Z</time>
      </trkpt>
      <trkpt lat="43.72491" lon="2.47415">
        <ele>636.9</ele>
        <time>2020-03-27T11:07:44Z</time>
      </trkpt>
      <trkpt lat="43.72484" lon="2.47401">
        <ele>634.1</ele>
        <time>2020-03-27T11:07:49Z</time>
      </trkpt>
      <trkpt lat="43.72483" lon="2.47383">
        <ele>632.1</ele>
        <time>2020-03-27T11:07:51Z</time>
      </trkpt>
      <trkpt lat="43.72483" lon="2.47362">
        <ele>630</ele>
        <time>2020-03-27T11:07:53Z</time>
      </trkpt>
      <trkpt lat="43.72479" lon="2.47341">
        <ele>628</ele>
        <time>2020-03-27T11:07:55Z</time>
      </trkpt>
      <trkpt lat="43.72479" lon="2.47321">
        <ele>625.9</ele>
        <time>2020-03-27T11:07:57Z</time>
      </trkpt>
      <trkpt lat="43.72479" lon="2.47301">
        <ele>623.8</ele>
        <time>2020-03-27T11:07:59Z</time>
      </trkpt>
      <trkpt lat="43.72481" lon="2.47283">
        <ele>621.9</ele>
        <time>2020-03-27T11:08:01Z</time>
      </trkpt>
      <trkpt lat="43.7248" lon="2.47265">
        <ele>620</ele>
        <time>2020-03-27T11:08:03Z</time>
      </trkpt>
      <trkpt lat="43.7248" lon="2.47242">
        <ele>618.6</ele>
        <time>2020-03-27T11:08:05Z</time>
      </trkpt>
      <trkpt lat="43.72481" lon="2.47221">
        <ele>617.5</ele>
        <time>2020-03-27T11:08:07Z</time>
      </trkpt>
      <trkpt lat="43.72477" lon="2.47209">
        <ele>616.8</ele>
        <time>2020-03-27T11:08:10Z</time>
      </trkpt>
      <trkpt lat="43.72467" lon="2.47207">
        <ele>616.5</ele>
        <time>2020-03-27T11:08:13Z</time>
      </trkpt>
      <trkpt lat="43.72459" lon="2.47221">
        <ele>613.8</ele>
        <time>2020-03-27T11:08:16Z</time>
      </trkpt>
      <trkpt lat="43.72454" lon="2.47233">
        <ele>611.9</ele>
        <time>2020-03-27T11:08:18Z</time>
      </trkpt>
      <trkpt lat="43.72448" lon="2.47246">
        <ele>610.3</ele>
        <time>2020-03-27T11:08:20Z</time>
      </trkpt>
      <trkpt lat="43.72445" lon="2.4726">
        <ele>608.8</ele>
        <time>2020-03-27T11:08:22Z</time>
      </trkpt>
      <trkpt lat="43.72439" lon="2.47277">
        <ele>607.6</ele>
        <time>2020-03-27T11:08:24Z</time>
      </trkpt>
      <trkpt lat="43.72434" lon="2.47294">
        <ele>606.5</ele>
        <time>2020-03-27T11:08:26Z</time>
      </trkpt>
      <trkpt lat="43.72432" lon="2.47311">
        <ele>605.8</ele>
        <time>2020-03-27T11:08:28Z</time>
      </trkpt>
      <trkpt lat="43.72429" lon="2.47324">
        <ele>605.3</ele>
        <time>2020-03-27T11:08:30Z</time>
      </trkpt>
      <trkpt lat="43.72425" lon="2.47341">
        <ele>604.7</ele>
        <time>2020-03-27T11:08:32Z</time>
      </trkpt>
      <trkpt lat="43.72422" lon="2.47355">
        <ele>604.4</ele>
        <time>2020-03-27T11:08:34Z</time>
      </trkpt>
      <trkpt lat="43.7242" lon="2.47369">
        <ele>604.2</ele>
        <time>2020-03-27T11:08:36Z</time>
      </trkpt>
      <trkpt lat="43.72417" lon="2.47382">
        <ele>604.2</ele>
        <time>2020-03-27T11:08:39Z</time>
      </trkpt>
      <trkpt lat="43.72414" lon="2.47396">
        <ele>604.1</ele>
        <time>2020-03-27T11:08:42Z</time>
      </trkpt>
      <trkpt lat="43.72413" lon="2.4741">
        <ele>604.1</ele>
        <time>2020-03-27T11:08:45Z</time>
      </trkpt>
      <trkpt lat="43.72412" lon="2.47427">
        <ele>604</ele>
        <time>2020-03-27T11:08:48Z</time>
      </trkpt>
      <trkpt lat="43.72415" lon="2.47443">
        <ele>603.8</ele>
        <time>2020-03-27T11:08:51Z</time>
      </trkpt>
      <trkpt lat="43.7242" lon="2.47455">
        <ele>603.7</ele>
        <time>2020-03-27T11:08:53Z</time>
      </trkpt>
      <trkpt lat="43.72421" lon="2.47469">
        <ele>603.6</ele>
        <time>2020-03-27T11:08:55Z</time>
      </trkpt>
      <trkpt lat="43.72425" lon="2.47482">
        <ele>603</ele>
        <time>2020-03-27T11:08:57Z</time>
      </trkpt>
      <trkpt lat="43.7243" lon="2.47493">
        <ele>602.4</ele>
        <time>2020-03-27T11:08:59Z</time>
      </trkpt>
      <trkpt lat="43.72434" lon="2.47507">
        <ele>602</ele>
        <time>2020-03-27T11:09:02Z</time>
      </trkpt>
      <trkpt lat="43.72441" lon="2.47518">
        <ele>601.1</ele>
        <time>2020-03-27T11:09:05Z</time>
      </trkpt>
      <trkpt lat="43.7245" lon="2.47525">
        <ele>598.6</ele>
        <time>2020-03-27T11:09:08Z</time>
      </trkpt>
      <trkpt lat="43.72453" lon="2.4754">
        <ele>597.8</ele>
        <time>2020-03-27T11:09:10Z</time>
      </trkpt>
      <trkpt lat="43.72457" lon="2.47556">
        <ele>597.3</ele>
        <time>2020-03-27T11:09:12Z</time>
      </trkpt>
      <trkpt lat="43.72459" lon="2.47573">
        <ele>596.9</ele>
        <time>2020-03-27T11:09:14Z</time>
      </trkpt>
      <trkpt lat="43.72458" lon="2.47588">
        <ele>596.5</ele>
        <time>2020-03-27T11:09:16Z</time>
      </trkpt>
      <trkpt lat="43.7246" lon="2.47601">
        <ele>596.2</ele>
        <time>2020-03-27T11:09:18Z</time>
      </trkpt>
      <trkpt lat="43.72458" lon="2.47614">
        <ele>595.8</ele>
        <time>2020-03-27T11:09:20Z</time>
      </trkpt>
      <trkpt lat="43.72457" lon="2.47631">
        <ele>595.6</ele>
        <time>2020-03-27T11:09:22Z</time>
      </trkpt>
      <trkpt lat="43.72453" lon="2.4765">
        <ele>595.3</ele>
        <time>2020-03-27T11:09:24Z</time>
      </trkpt>
      <trkpt lat="43.72452" lon="2.47667">
        <ele>595.2</ele>
        <time>2020-03-27T11:09:26Z</time>
      </trkpt>
      <trkpt lat="43.72442" lon="2.47687">
        <ele>595.1</ele>
        <time>2020-03-27T11:09:31Z</time>
      </trkpt>
      <trkpt lat="43.72438" lon="2.47699">
        <ele>595.5</ele>
        <time>2020-03-27T11:09:34Z</time>
      </trkpt>
      <trkpt lat="43.72432" lon="2.47712">
        <ele>595.7</ele>
        <time>2020-03-27T11:09:37Z</time>
      </trkpt>
      <trkpt lat="43.72423" lon="2.47726">
        <ele>595.6</ele>
        <time>2020-03-27T11:09:39Z</time>
      </trkpt>
      <trkpt lat="43.72411" lon="2.47733">
        <ele>595.4</ele>
        <time>2020-03-27T11:09:41Z</time>
      </trkpt>
      <trkpt lat="43.724" lon="2.47732">
        <ele>594.5</ele>
        <time>2020-03-27T11:09:43Z</time>
      </trkpt>
      <trkpt lat="43.72387" lon="2.47734">
        <ele>592.3</ele>
        <time>2020-03-27T11:09:45Z</time>
      </trkpt>
      <trkpt lat="43.72372" lon="2.47734">
        <ele>589.8</ele>
        <time>2020-03-27T11:09:47Z</time>
      </trkpt>
      <trkpt lat="43.72356" lon="2.47736">
        <ele>586.7</ele>
        <time>2020-03-27T11:09:49Z</time>
      </trkpt>
      <trkpt lat="43.72341" lon="2.47743">
        <ele>583.5</ele>
        <time>2020-03-27T11:09:51Z</time>
      </trkpt>
      <trkpt lat="43.72328" lon="2.47754">
        <ele>580.5</ele>
        <time>2020-03-27T11:09:53Z</time>
      </trkpt>
      <trkpt lat="43.72314" lon="2.47765">
        <ele>577.5</ele>
        <time>2020-03-27T11:09:55Z</time>
      </trkpt>
      <trkpt lat="43.723" lon="2.47775">
        <ele>574.8</ele>
        <time>2020-03-27T11:09:57Z</time>
      </trkpt>
      <trkpt lat="43.72286" lon="2.47787">
        <ele>572.4</ele>
        <time>2020-03-27T11:09:59Z</time>
      </trkpt>
      <trkpt lat="43.72271" lon="2.478">
        <ele>570.2</ele>
        <time>2020-03-27T11:10:01Z</time>
      </trkpt>
      <trkpt lat="43.72256" lon="2.47812">
        <ele>568.2</ele>
        <time>2020-03-27T11:10:03Z</time>
      </trkpt>
      <trkpt lat="43.72249" lon="2.47819">
        <ele>567.3</ele>
        <time>2020-03-27T11:10:04Z</time>
      </trkpt>
      <trkpt lat="43.72236" lon="2.47834">
        <ele>565.7</ele>
        <time>2020-03-27T11:10:06Z</time>
      </trkpt>
      <trkpt lat="43.72232" lon="2.4785">
        <ele>564.5</ele>
        <time>2020-03-27T11:10:08Z</time>
      </trkpt>
      <trkpt lat="43.72223" lon="2.47856">
        <ele>563.7</ele>
        <time>2020-03-27T11:10:11Z</time>
      </trkpt>
      <trkpt lat="43.72227" lon="2.4784">
        <ele>563.1</ele>
        <time>2020-03-27T11:10:14Z</time>
      </trkpt>
      <trkpt lat="43.72233" lon="2.47825">
        <ele>562.4</ele>
        <time>2020-03-27T11:10:17Z</time>
      </trkpt>
      <trkpt lat="43.72238" lon="2.47811">
        <ele>561.7</ele>
        <time>2020-03-27T11:10:19Z</time>
      </trkpt>
      <trkpt lat="43.72245" lon="2.47796">
        <ele>561</ele>
        <time>2020-03-27T11:10:21Z</time>
      </trkpt>
      <trkpt lat="43.72253" lon="2.4778">
        <ele>560.3</ele>
        <time>2020-03-27T11:10:23Z</time>
      </trkpt>
      <trkpt lat="43.72263" lon="2.47763">
        <ele>559.5</ele>
        <time>2020-03-27T11:10:25Z</time>
      </trkpt>
      <trkpt lat="43.72274" lon="2.47749">
        <ele>558.7</ele>
        <time>2020-03-27T11:10:27Z</time>
      </trkpt>
      <trkpt lat="43.72285" lon="2.47735">
        <ele>558</ele>
        <time>2020-03-27T11:10:29Z</time>
      </trkpt>
      <trkpt lat="43.72296" lon="2.47722">
        <ele>557.2</ele>
        <time>2020-03-27T11:10:31Z</time>
      </trkpt>
      <trkpt lat="43.72307" lon="2.47711">
        <ele>556.4</ele>
        <time>2020-03-27T11:10:33Z</time>
      </trkpt>
      <trkpt lat="43.72318" lon="2.477">
        <ele>555.5</ele>
        <time>2020-03-27T11:10:35Z</time>
      </trkpt>
      <trkpt lat="43.72329" lon="2.47692">
        <ele>554.7</ele>
        <time>2020-03-27T11:10:37Z</time>
      </trkpt>
      <trkpt lat="43.7234" lon="2.47683">
        <ele>553.8</ele>
        <time>2020-03-27T11:10:39Z</time>
      </trkpt>
      <trkpt lat="43.72351" lon="2.47677">
        <ele>553</ele>
        <time>2020-03-27T11:10:41Z</time>
      </trkpt>
      <trkpt lat="43.72366" lon="2.47668">
        <ele>552.6</ele>
        <time>2020-03-27T11:10:43Z</time>
      </trkpt>
      <trkpt lat="43.72377" lon="2.4766">
        <ele>552.9</ele>
        <time>2020-03-27T11:10:45Z</time>
      </trkpt>
      <trkpt lat="43.72384" lon="2.47646">
        <ele>553.7</ele>
        <time>2020-03-27T11:10:47Z</time>
      </trkpt>
      <trkpt lat="43.72381" lon="2.47623">
        <ele>554.9</ele>
        <time>2020-03-27T11:10:49Z</time>
      </trkpt>
      <trkpt lat="43.72375" lon="2.47601">
        <ele>556</ele>
        <time>2020-03-27T11:10:51Z</time>
      </trkpt>
      <trkpt lat="43.72368" lon="2.4758">
        <ele>556.4</ele>
        <time>2020-03-27T11:10:53Z</time>
      </trkpt>
      <trkpt lat="43.72363" lon="2.47561">
        <ele>556.4</ele>
        <time>2020-03-27T11:10:55Z</time>
      </trkpt>
      <trkpt lat="43.72359" lon="2.47548">
        <ele>555.7</ele>
        <time>2020-03-27T11:10:57Z</time>
      </trkpt>
      <trkpt lat="43.72353" lon="2.47538">
        <ele>554.5</ele>
        <time>2020-03-27T11:10:59Z</time>
      </trkpt>
      <trkpt lat="43.72346" lon="2.47524">
        <ele>552.8</ele>
        <time>2020-03-27T11:11:01Z</time>
      </trkpt>
      <trkpt lat="43.72337" lon="2.47509">
        <ele>551.1</ele>
        <time>2020-03-27T11:11:03Z</time>
      </trkpt>
      <trkpt lat="43.72329" lon="2.475">
        <ele>549.6</ele>
        <time>2020-03-27T11:11:05Z</time>
      </trkpt>
      <trkpt lat="43.7232" lon="2.47489">
        <ele>548.3</ele>
        <time>2020-03-27T11:11:07Z</time>
      </trkpt>
      <trkpt lat="43.72311" lon="2.47478">
        <ele>547</ele>
        <time>2020-03-27T11:11:09Z</time>
      </trkpt>
      <trkpt lat="43.72297" lon="2.47463">
        <ele>546</ele>
        <time>2020-03-27T11:11:11Z</time>
      </trkpt>
      <trkpt lat="43.72284" lon="2.47451">
        <ele>544.8</ele>
        <time>2020-03-27T11:11:13Z</time>
      </trkpt>
      <trkpt lat="43.72273" lon="2.47433">
        <ele>543.6</ele>
        <time>2020-03-27T11:11:15Z</time>
      </trkpt>
      <trkpt lat="43.7227" lon="2.47411">
        <ele>542.5</ele>
        <time>2020-03-27T11:11:17Z</time>
      </trkpt>
      <trkpt lat="43.72271" lon="2.4739">
        <ele>541.1</ele>
        <time>2020-03-27T11:11:19Z</time>
      </trkpt>
      <trkpt lat="43.72272" lon="2.47368">
        <ele>539.5</ele>
        <time>2020-03-27T11:11:21Z</time>
      </trkpt>
      <trkpt lat="43.72273" lon="2.47347">
        <ele>538.1</ele>
        <time>2020-03-27T11:11:23Z</time>
      </trkpt>
      <trkpt lat="43.72276" lon="2.47326">
        <ele>536.7</ele>
        <time>2020-03-27T11:11:25Z</time>
      </trkpt>
      <trkpt lat="43.72283" lon="2.47306">
        <ele>535.6</ele>
        <time>2020-03-27T11:11:27Z</time>
      </trkpt>
      <trkpt lat="43.72286" lon="2.47293">
        <ele>535</ele>
        <time>2020-03-27T11:11:28Z</time>
      </trkpt>
      <trkpt lat="43.72291" lon="2.47272">
        <ele>534.1</ele>
        <time>2020-03-27T11:11:30Z</time>
      </trkpt>
      <trkpt lat="43.72294" lon="2.47248">
        <ele>533.5</ele>
        <time>2020-03-27T11:11:32Z</time>
      </trkpt>
      <trkpt lat="43.72294" lon="2.47236">
        <ele>533.4</ele>
        <time>2020-03-27T11:11:33Z</time>
      </trkpt>
      <trkpt lat="43.72291" lon="2.47213">
        <ele>533.4</ele>
        <time>2020-03-27T11:11:35Z</time>
      </trkpt>
      <trkpt lat="43.72287" lon="2.47194">
        <ele>533.2</ele>
        <time>2020-03-27T11:11:37Z</time>
      </trkpt>
      <trkpt lat="43.72282" lon="2.47173">
        <ele>532.9</ele>
        <time>2020-03-27T11:11:39Z</time>
      </trkpt>
      <trkpt lat="43.72282" lon="2.47149">
        <ele>532.2</ele>
        <time>2020-03-27T11:11:41Z</time>
      </trkpt>
      <trkpt lat="43.72281" lon="2.47136">
        <ele>531.7</ele>
        <time>2020-03-27T11:11:42Z</time>
      </trkpt>
      <trkpt lat="43.7228" lon="2.47122">
        <ele>531.2</ele>
        <time>2020-03-27T11:11:43Z</time>
      </trkpt>
      <trkpt lat="43.7228" lon="2.47109">
        <ele>530.6</ele>
        <time>2020-03-27T11:11:44Z</time>
      </trkpt>
      <trkpt lat="43.72281" lon="2.47096">
        <ele>530</ele>
        <time>2020-03-27T11:11:45Z</time>
      </trkpt>
      <trkpt lat="43.72283" lon="2.47071">
        <ele>528.8</ele>
        <time>2020-03-27T11:11:47Z</time>
      </trkpt>
      <trkpt lat="43.72284" lon="2.47059">
        <ele>528.2</ele>
        <time>2020-03-27T11:11:48Z</time>
      </trkpt>
      <trkpt lat="43.72288" lon="2.47035">
        <ele>527</ele>
        <time>2020-03-27T11:11:50Z</time>
      </trkpt>
      <trkpt lat="43.7229" lon="2.47012">
        <ele>525.4</ele>
        <time>2020-03-27T11:11:52Z</time>
      </trkpt>
      <trkpt lat="43.7229" lon="2.46988">
        <ele>524.1</ele>
        <time>2020-03-27T11:11:54Z</time>
      </trkpt>
      <trkpt lat="43.72286" lon="2.46962">
        <ele>522.7</ele>
        <time>2020-03-27T11:11:56Z</time>
      </trkpt>
      <trkpt lat="43.72283" lon="2.46949">
        <ele>522.3</ele>
        <time>2020-03-27T11:11:57Z</time>
      </trkpt>
      <trkpt lat="43.72281" lon="2.46926">
        <ele>522.2</ele>
        <time>2020-03-27T11:11:59Z</time>
      </trkpt>
      <trkpt lat="43.72277" lon="2.46906">
        <ele>522.4</ele>
        <time>2020-03-27T11:12:01Z</time>
      </trkpt>
      <trkpt lat="43.7227" lon="2.46876">
        <ele>523.2</ele>
        <time>2020-03-27T11:12:04Z</time>
      </trkpt>
      <trkpt lat="43.72267" lon="2.46865">
        <ele>523.8</ele>
        <time>2020-03-27T11:12:05Z</time>
      </trkpt>
      <trkpt lat="43.72265" lon="2.46852">
        <ele>524</ele>
        <time>2020-03-27T11:12:06Z</time>
      </trkpt>
      <trkpt lat="43.72261" lon="2.46828">
        <ele>523.9</ele>
        <time>2020-03-27T11:12:08Z</time>
      </trkpt>
      <trkpt lat="43.72257" lon="2.46816">
        <ele>523.6</ele>
        <time>2020-03-27T11:12:09Z</time>
      </trkpt>
      <trkpt lat="43.72254" lon="2.46802">
        <ele>523.3</ele>
        <time>2020-03-27T11:12:10Z</time>
      </trkpt>
      <trkpt lat="43.72258" lon="2.46781">
        <ele>521.6</ele>
        <time>2020-03-27T11:12:12Z</time>
      </trkpt>
      <trkpt lat="43.72263" lon="2.4676">
        <ele>517.9</ele>
        <time>2020-03-27T11:12:14Z</time>
      </trkpt>
      <trkpt lat="43.72265" lon="2.46737">
        <ele>513.8</ele>
        <time>2020-03-27T11:12:16Z</time>
      </trkpt>
      <trkpt lat="43.72269" lon="2.46716">
        <ele>509.8</ele>
        <time>2020-03-27T11:12:18Z</time>
      </trkpt>
      <trkpt lat="43.72273" lon="2.46695">
        <ele>506</ele>
        <time>2020-03-27T11:12:20Z</time>
      </trkpt>
      <trkpt lat="43.72279" lon="2.46676">
        <ele>502.5</ele>
        <time>2020-03-27T11:12:22Z</time>
      </trkpt>
      <trkpt lat="43.7229" lon="2.4666">
        <ele>499.3</ele>
        <time>2020-03-27T11:12:24Z</time>
      </trkpt>
      <trkpt lat="43.72301" lon="2.46646">
        <ele>496.6</ele>
        <time>2020-03-27T11:12:26Z</time>
      </trkpt>
      <trkpt lat="43.72311" lon="2.46633">
        <ele>494.4</ele>
        <time>2020-03-27T11:12:28Z</time>
      </trkpt>
      <trkpt lat="43.72321" lon="2.46619">
        <ele>492.5</ele>
        <time>2020-03-27T11:12:30Z</time>
      </trkpt>
      <trkpt lat="43.72339" lon="2.46599">
        <ele>490.3</ele>
        <time>2020-03-27T11:12:33Z</time>
      </trkpt>
      <trkpt lat="43.72349" lon="2.46586">
        <ele>488.2</ele>
        <time>2020-03-27T11:12:35Z</time>
      </trkpt>
      <trkpt lat="43.72361" lon="2.46575">
        <ele>486.2</ele>
        <time>2020-03-27T11:12:37Z</time>
      </trkpt>
      <trkpt lat="43.72374" lon="2.4656">
        <ele>485</ele>
        <time>2020-03-27T11:12:39Z</time>
      </trkpt>
      <trkpt lat="43.72381" lon="2.46552">
        <ele>484.7</ele>
        <time>2020-03-27T11:12:40Z</time>
      </trkpt>
      <trkpt lat="43.72394" lon="2.46536">
        <ele>484.4</ele>
        <time>2020-03-27T11:12:42Z</time>
      </trkpt>
      <trkpt lat="43.72405" lon="2.46517">
        <ele>484.1</ele>
        <time>2020-03-27T11:12:44Z</time>
      </trkpt>
      <trkpt lat="43.7241" lon="2.46505">
        <ele>484</ele>
        <time>2020-03-27T11:12:45Z</time>
      </trkpt>
      <trkpt lat="43.72415" lon="2.46495">
        <ele>484</ele>
        <time>2020-03-27T11:12:46Z</time>
      </trkpt>
      <trkpt lat="43.72425" lon="2.46476">
        <ele>483.5</ele>
        <time>2020-03-27T11:12:48Z</time>
      </trkpt>
      <trkpt lat="43.72434" lon="2.46459">
        <ele>482.9</ele>
        <time>2020-03-27T11:12:50Z</time>
      </trkpt>
      <trkpt lat="43.72444" lon="2.46441">
        <ele>482.1</ele>
        <time>2020-03-27T11:12:52Z</time>
      </trkpt>
      <trkpt lat="43.72454" lon="2.46424">
        <ele>481.3</ele>
        <time>2020-03-27T11:12:54Z</time>
      </trkpt>
      <trkpt lat="43.72465" lon="2.46404">
        <ele>480.7</ele>
        <time>2020-03-27T11:12:56Z</time>
      </trkpt>
      <trkpt lat="43.72475" lon="2.46384">
        <ele>480.1</ele>
        <time>2020-03-27T11:12:58Z</time>
      </trkpt>
      <trkpt lat="43.7248" lon="2.46374">
        <ele>480</ele>
        <time>2020-03-27T11:12:59Z</time>
      </trkpt>
      <trkpt lat="43.7249" lon="2.46353">
        <ele>479.8</ele>
        <time>2020-03-27T11:13:01Z</time>
      </trkpt>
      <trkpt lat="43.72499" lon="2.46336">
        <ele>478.9</ele>
        <time>2020-03-27T11:13:03Z</time>
      </trkpt>
      <trkpt lat="43.72508" lon="2.46316">
        <ele>478</ele>
        <time>2020-03-27T11:13:05Z</time>
      </trkpt>
      <trkpt lat="43.72516" lon="2.46298">
        <ele>477.3</ele>
        <time>2020-03-27T11:13:07Z</time>
      </trkpt>
      <trkpt lat="43.72525" lon="2.46279">
        <ele>476.7</ele>
        <time>2020-03-27T11:13:09Z</time>
      </trkpt>
      <trkpt lat="43.72533" lon="2.4626">
        <ele>475.8</ele>
        <time>2020-03-27T11:13:11Z</time>
      </trkpt>
      <trkpt lat="43.72543" lon="2.46243">
        <ele>474.9</ele>
        <time>2020-03-27T11:13:13Z</time>
      </trkpt>
      <trkpt lat="43.72553" lon="2.46225">
        <ele>474.1</ele>
        <time>2020-03-27T11:13:15Z</time>
      </trkpt>
      <trkpt lat="43.72563" lon="2.46208">
        <ele>473.2</ele>
        <time>2020-03-27T11:13:17Z</time>
      </trkpt>
      <trkpt lat="43.72573" lon="2.46192">
        <ele>472.3</ele>
        <time>2020-03-27T11:13:19Z</time>
      </trkpt>
      <trkpt lat="43.72585" lon="2.46179">
        <ele>471.3</ele>
        <time>2020-03-27T11:13:21Z</time>
      </trkpt>
      <trkpt lat="43.72596" lon="2.46165">
        <ele>470.3</ele>
        <time>2020-03-27T11:13:23Z</time>
      </trkpt>
      <trkpt lat="43.72607" lon="2.46152">
        <ele>469.2</ele>
        <time>2020-03-27T11:13:25Z</time>
      </trkpt>
      <trkpt lat="43.72621" lon="2.4614">
        <ele>468</ele>
        <time>2020-03-27T11:13:27Z</time>
      </trkpt>
      <trkpt lat="43.72634" lon="2.46131">
        <ele>466.6</ele>
        <time>2020-03-27T11:13:29Z</time>
      </trkpt>
      <trkpt lat="43.72649" lon="2.46127">
        <ele>465</ele>
        <time>2020-03-27T11:13:31Z</time>
      </trkpt>
      <trkpt lat="43.72665" lon="2.46124">
        <ele>463.3</ele>
        <time>2020-03-27T11:13:33Z</time>
      </trkpt>
      <trkpt lat="43.7268" lon="2.4612">
        <ele>461.9</ele>
        <time>2020-03-27T11:13:35Z</time>
      </trkpt>
      <trkpt lat="43.72699" lon="2.46116">
        <ele>460.4</ele>
        <time>2020-03-27T11:13:37Z</time>
      </trkpt>
      <trkpt lat="43.72714" lon="2.46112">
        <ele>458.8</ele>
        <time>2020-03-27T11:13:39Z</time>
      </trkpt>
      <trkpt lat="43.72731" lon="2.46108">
        <ele>457.6</ele>
        <time>2020-03-27T11:13:41Z</time>
      </trkpt>
      <trkpt lat="43.72745" lon="2.461">
        <ele>456.2</ele>
        <time>2020-03-27T11:13:43Z</time>
      </trkpt>
      <trkpt lat="43.7276" lon="2.4609">
        <ele>454.6</ele>
        <time>2020-03-27T11:13:45Z</time>
      </trkpt>
      <trkpt lat="43.72776" lon="2.46082">
        <ele>453.2</ele>
        <time>2020-03-27T11:13:47Z</time>
      </trkpt>
      <trkpt lat="43.7279" lon="2.46076">
        <ele>452.1</ele>
        <time>2020-03-27T11:13:49Z</time>
      </trkpt>
      <trkpt lat="43.72806" lon="2.46068">
        <ele>451.5</ele>
        <time>2020-03-27T11:13:51Z</time>
      </trkpt>
      <trkpt lat="43.72819" lon="2.4606">
        <ele>451.3</ele>
        <time>2020-03-27T11:13:53Z</time>
      </trkpt>
      <trkpt lat="43.72833" lon="2.46052">
        <ele>451.6</ele>
        <time>2020-03-27T11:13:55Z</time>
      </trkpt>
      <trkpt lat="43.72846" lon="2.46043">
        <ele>452.1</ele>
        <time>2020-03-27T11:13:57Z</time>
      </trkpt>
      <trkpt lat="43.72857" lon="2.46035">
        <ele>452.8</ele>
        <time>2020-03-27T11:13:59Z</time>
      </trkpt>
      <trkpt lat="43.72866" lon="2.46027">
        <ele>453.2</ele>
        <time>2020-03-27T11:14:01Z</time>
      </trkpt>
      <trkpt lat="43.72875" lon="2.46018">
        <ele>453.3</ele>
        <time>2020-03-27T11:14:03Z</time>
      </trkpt>
      <trkpt lat="43.72887" lon="2.4601">
        <ele>453.2</ele>
        <time>2020-03-27T11:14:05Z</time>
      </trkpt>
      <trkpt lat="43.72897" lon="2.46002">
        <ele>453.2</ele>
        <time>2020-03-27T11:14:07Z</time>
      </trkpt>
      <trkpt lat="43.72907" lon="2.45993">
        <ele>453.1</ele>
        <time>2020-03-27T11:14:09Z</time>
      </trkpt>
      <trkpt lat="43.72917" lon="2.45987">
        <ele>452.9</ele>
        <time>2020-03-27T11:14:11Z</time>
      </trkpt>
      <trkpt lat="43.72926" lon="2.4598">
        <ele>452.4</ele>
        <time>2020-03-27T11:14:13Z</time>
      </trkpt>
      <trkpt lat="43.72934" lon="2.45972">
        <ele>451.9</ele>
        <time>2020-03-27T11:14:15Z</time>
      </trkpt>
      <trkpt lat="43.72944" lon="2.45964">
        <ele>451.4</ele>
        <time>2020-03-27T11:14:18Z</time>
      </trkpt>
      <trkpt lat="43.72953" lon="2.45953">
        <ele>450.8</ele>
        <time>2020-03-27T11:14:21Z</time>
      </trkpt>
      <trkpt lat="43.72966" lon="2.45957">
        <ele>450.6</ele>
        <time>2020-03-27T11:15:50Z</time>
      </trkpt>
      <trkpt lat="43.72971" lon="2.45969">
        <ele>450.9</ele>
        <time>2020-03-27T11:15:54Z</time>
      </trkpt>
      <trkpt lat="43.72974" lon="2.45988">
        <ele>450.6</ele>
        <time>2020-03-27T11:15:57Z</time>
      </trkpt>
      <trkpt lat="43.72974" lon="2.46003">
        <ele>449.9</ele>
        <time>2020-03-27T11:15:59Z</time>
      </trkpt>
      <trkpt lat="43.72974" lon="2.4602">
        <ele>449.3</ele>
        <time>2020-03-27T11:16:01Z</time>
      </trkpt>
      <trkpt lat="43.72974" lon="2.46038">
        <ele>448.7</ele>
        <time>2020-03-27T11:16:03Z</time>
      </trkpt>
      <trkpt lat="43.72973" lon="2.46056">
        <ele>448.1</ele>
        <time>2020-03-27T11:16:05Z</time>
      </trkpt>
      <trkpt lat="43.72972" lon="2.46073">
        <ele>447.5</ele>
        <time>2020-03-27T11:16:07Z</time>
      </trkpt>
      <trkpt lat="43.72975" lon="2.46088">
        <ele>446.9</ele>
        <time>2020-03-27T11:16:09Z</time>
      </trkpt>
      <trkpt lat="43.7298" lon="2.46106">
        <ele>446.8</ele>
        <time>2020-03-27T11:16:11Z</time>
      </trkpt>
      <trkpt lat="43.72978" lon="2.46122">
        <ele>446.8</ele>
        <time>2020-03-27T11:16:13Z</time>
      </trkpt>
      <trkpt lat="43.72975" lon="2.46135">
        <ele>446.7</ele>
        <time>2020-03-27T11:16:15Z</time>
      </trkpt>
      <trkpt lat="43.7297" lon="2.46148">
        <ele>445.9</ele>
        <time>2020-03-27T11:16:17Z</time>
      </trkpt>
      <trkpt lat="43.72966" lon="2.46166">
        <ele>445.5</ele>
        <time>2020-03-27T11:16:19Z</time>
      </trkpt>
      <trkpt lat="43.72963" lon="2.46179">
        <ele>445.5</ele>
        <time>2020-03-27T11:16:21Z</time>
      </trkpt>
      <trkpt lat="43.7296" lon="2.46197">
        <ele>445.6</ele>
        <time>2020-03-27T11:16:24Z</time>
      </trkpt>
      <trkpt lat="43.72957" lon="2.46212">
        <ele>445.9</ele>
        <time>2020-03-27T11:16:27Z</time>
      </trkpt>
      <trkpt lat="43.72954" lon="2.46225">
        <ele>447.6</ele>
        <time>2020-03-27T11:16:29Z</time>
      </trkpt>
      <trkpt lat="43.7295" lon="2.46237">
        <ele>449</ele>
        <time>2020-03-27T11:16:31Z</time>
      </trkpt>
      <trkpt lat="43.72942" lon="2.46247">
        <ele>449.6</ele>
        <time>2020-03-27T11:16:34Z</time>
      </trkpt>
      <trkpt lat="43.72935" lon="2.46257">
        <ele>450.5</ele>
        <time>2020-03-27T11:16:36Z</time>
      </trkpt>
      <trkpt lat="43.72926" lon="2.46263">
        <ele>451.1</ele>
        <time>2020-03-27T11:16:38Z</time>
      </trkpt>
      <trkpt lat="43.72916" lon="2.46271">
        <ele>451.2</ele>
        <time>2020-03-27T11:16:40Z</time>
      </trkpt>
      <trkpt lat="43.72907" lon="2.46281">
        <ele>451.4</ele>
        <time>2020-03-27T11:16:42Z</time>
      </trkpt>
      <trkpt lat="43.72898" lon="2.46292">
        <ele>451.9</ele>
        <time>2020-03-27T11:16:44Z</time>
      </trkpt>
      <trkpt lat="43.72891" lon="2.46303">
        <ele>452.9</ele>
        <time>2020-03-27T11:16:46Z</time>
      </trkpt>
      <trkpt lat="43.72884" lon="2.46316">
        <ele>454.3</ele>
        <time>2020-03-27T11:16:48Z</time>
      </trkpt>
      <trkpt lat="43.72876" lon="2.46327">
        <ele>455.8</ele>
        <time>2020-03-27T11:16:50Z</time>
      </trkpt>
      <trkpt lat="43.72865" lon="2.46339">
        <ele>456.8</ele>
        <time>2020-03-27T11:16:52Z</time>
      </trkpt>
      <trkpt lat="43.72857" lon="2.46358">
        <ele>458</ele>
        <time>2020-03-27T11:16:54Z</time>
      </trkpt>
      <trkpt lat="43.72851" lon="2.46376">
        <ele>459.2</ele>
        <time>2020-03-27T11:16:56Z</time>
      </trkpt>
      <trkpt lat="43.72844" lon="2.46397">
        <ele>459.7</ele>
        <time>2020-03-27T11:16:58Z</time>
      </trkpt>
      <trkpt lat="43.72837" lon="2.46419">
        <ele>459.7</ele>
        <time>2020-03-27T11:17:00Z</time>
      </trkpt>
      <trkpt lat="43.7283" lon="2.46442">
        <ele>459.1</ele>
        <time>2020-03-27T11:17:02Z</time>
      </trkpt>
      <trkpt lat="43.72826" lon="2.46455">
        <ele>458.9</ele>
        <time>2020-03-27T11:17:03Z</time>
      </trkpt>
      <trkpt lat="43.72822" lon="2.46468">
        <ele>458.6</ele>
        <time>2020-03-27T11:17:04Z</time>
      </trkpt>
      <trkpt lat="43.72818" lon="2.4648">
        <ele>458.5</ele>
        <time>2020-03-27T11:17:05Z</time>
      </trkpt>
      <trkpt lat="43.72817" lon="2.46493">
        <ele>458.4</ele>
        <time>2020-03-27T11:17:06Z</time>
      </trkpt>
      <trkpt lat="43.72816" lon="2.46509">
        <ele>458.1</ele>
        <time>2020-03-27T11:17:07Z</time>
      </trkpt>
      <trkpt lat="43.72816" lon="2.46524">
        <ele>457.8</ele>
        <time>2020-03-27T11:17:08Z</time>
      </trkpt>
      <trkpt lat="43.72819" lon="2.46538">
        <ele>457.6</ele>
        <time>2020-03-27T11:17:09Z</time>
      </trkpt>
      <trkpt lat="43.72821" lon="2.4655">
        <ele>457.3</ele>
        <time>2020-03-27T11:17:10Z</time>
      </trkpt>
      <trkpt lat="43.72822" lon="2.46563">
        <ele>456.6</ele>
        <time>2020-03-27T11:17:11Z</time>
      </trkpt>
      <trkpt lat="43.72826" lon="2.46577">
        <ele>455.9</ele>
        <time>2020-03-27T11:17:12Z</time>
      </trkpt>
      <trkpt lat="43.72828" lon="2.4659">
        <ele>455</ele>
        <time>2020-03-27T11:17:13Z</time>
      </trkpt>
      <trkpt lat="43.7283" lon="2.46603">
        <ele>453.9</ele>
        <time>2020-03-27T11:17:14Z</time>
      </trkpt>
      <trkpt lat="43.72832" lon="2.46617">
        <ele>452.5</ele>
        <time>2020-03-27T11:17:15Z</time>
      </trkpt>
      <trkpt lat="43.72833" lon="2.46631">
        <ele>451.1</ele>
        <time>2020-03-27T11:17:16Z</time>
      </trkpt>
      <trkpt lat="43.72835" lon="2.46645">
        <ele>449.8</ele>
        <time>2020-03-27T11:17:17Z</time>
      </trkpt>
      <trkpt lat="43.72837" lon="2.4666">
        <ele>448.6</ele>
        <time>2020-03-27T11:17:18Z</time>
      </trkpt>
      <trkpt lat="43.72839" lon="2.46675">
        <ele>447.4</ele>
        <time>2020-03-27T11:17:19Z</time>
      </trkpt>
      <trkpt lat="43.72841" lon="2.46689">
        <ele>446.5</ele>
        <time>2020-03-27T11:17:20Z</time>
      </trkpt>
      <trkpt lat="43.72842" lon="2.46703">
        <ele>445.6</ele>
        <time>2020-03-27T11:17:21Z</time>
      </trkpt>
      <trkpt lat="43.72844" lon="2.46717">
        <ele>444.8</ele>
        <time>2020-03-27T11:17:22Z</time>
      </trkpt>
      <trkpt lat="43.72847" lon="2.4673">
        <ele>444.1</ele>
        <time>2020-03-27T11:17:23Z</time>
      </trkpt>
      <trkpt lat="43.72849" lon="2.46743">
        <ele>443.4</ele>
        <time>2020-03-27T11:17:24Z</time>
      </trkpt>
      <trkpt lat="43.72851" lon="2.46757">
        <ele>442.6</ele>
        <time>2020-03-27T11:17:25Z</time>
      </trkpt>
      <trkpt lat="43.72853" lon="2.46772">
        <ele>442</ele>
        <time>2020-03-27T11:17:26Z</time>
      </trkpt>
      <trkpt lat="43.72855" lon="2.46786">
        <ele>441.5</ele>
        <time>2020-03-27T11:17:27Z</time>
      </trkpt>
      <trkpt lat="43.72856" lon="2.46799">
        <ele>441.1</ele>
        <time>2020-03-27T11:17:28Z</time>
      </trkpt>
      <trkpt lat="43.72857" lon="2.46813">
        <ele>441</ele>
        <time>2020-03-27T11:17:29Z</time>
      </trkpt>
      <trkpt lat="43.72858" lon="2.46825">
        <ele>441</ele>
        <time>2020-03-27T11:17:30Z</time>
      </trkpt>
      <trkpt lat="43.72859" lon="2.46838">
        <ele>441</ele>
        <time>2020-03-27T11:17:31Z</time>
      </trkpt>
      <trkpt lat="43.7286" lon="2.46851">
        <ele>441.3</ele>
        <time>2020-03-27T11:17:32Z</time>
      </trkpt>
      <trkpt lat="43.7286" lon="2.46864">
        <ele>441.5</ele>
        <time>2020-03-27T11:17:33Z</time>
      </trkpt>
      <trkpt lat="43.72862" lon="2.46876">
        <ele>441.8</ele>
        <time>2020-03-27T11:17:34Z</time>
      </trkpt>
      <trkpt lat="43.72864" lon="2.46899">
        <ele>442.5</ele>
        <time>2020-03-27T11:17:36Z</time>
      </trkpt>
      <trkpt lat="43.72868" lon="2.4692">
        <ele>442.8</ele>
        <time>2020-03-27T11:17:38Z</time>
      </trkpt>
      <trkpt lat="43.72871" lon="2.46939">
        <ele>442.7</ele>
        <time>2020-03-27T11:17:40Z</time>
      </trkpt>
      <trkpt lat="43.72877" lon="2.46959">
        <ele>442.1</ele>
        <time>2020-03-27T11:17:42Z</time>
      </trkpt>
      <trkpt lat="43.72882" lon="2.46977">
        <ele>441.6</ele>
        <time>2020-03-27T11:17:44Z</time>
      </trkpt>
      <trkpt lat="43.72888" lon="2.46993">
        <ele>441.3</ele>
        <time>2020-03-27T11:17:46Z</time>
      </trkpt>
      <trkpt lat="43.72893" lon="2.47006">
        <ele>441</ele>
        <time>2020-03-27T11:17:48Z</time>
      </trkpt>
      <trkpt lat="43.72898" lon="2.47019">
        <ele>440.4</ele>
        <time>2020-03-27T11:17:50Z</time>
      </trkpt>
      <trkpt lat="43.72903" lon="2.47032">
        <ele>439.9</ele>
        <time>2020-03-27T11:17:52Z</time>
      </trkpt>
      <trkpt lat="43.72908" lon="2.47045">
        <ele>439.4</ele>
        <time>2020-03-27T11:17:54Z</time>
      </trkpt>
      <trkpt lat="43.72913" lon="2.47058">
        <ele>439.1</ele>
        <time>2020-03-27T11:17:56Z</time>
      </trkpt>
      <trkpt lat="43.72919" lon="2.47071">
        <ele>438.8</ele>
        <time>2020-03-27T11:17:58Z</time>
      </trkpt>
      <trkpt lat="43.72925" lon="2.47081">
        <ele>438.5</ele>
        <time>2020-03-27T11:18:00Z</time>
      </trkpt>
      <trkpt lat="43.72932" lon="2.4709">
        <ele>438.4</ele>
        <time>2020-03-27T11:18:02Z</time>
      </trkpt>
      <trkpt lat="43.72939" lon="2.47099">
        <ele>438.5</ele>
        <time>2020-03-27T11:18:04Z</time>
      </trkpt>
      <trkpt lat="43.72947" lon="2.47106">
        <ele>438.7</ele>
        <time>2020-03-27T11:18:06Z</time>
      </trkpt>
      <trkpt lat="43.72955" lon="2.47112">
        <ele>439.5</ele>
        <time>2020-03-27T11:18:08Z</time>
      </trkpt>
      <trkpt lat="43.72964" lon="2.47118">
        <ele>441</ele>
        <time>2020-03-27T11:18:10Z</time>
      </trkpt>
      <trkpt lat="43.72975" lon="2.47122">
        <ele>442.6</ele>
        <time>2020-03-27T11:18:12Z</time>
      </trkpt>
      <trkpt lat="43.72984" lon="2.47125">
        <ele>444.1</ele>
        <time>2020-03-27T11:18:14Z</time>
      </trkpt>
      <trkpt lat="43.72994" lon="2.47126">
        <ele>444.9</ele>
        <time>2020-03-27T11:18:16Z</time>
      </trkpt>
      <trkpt lat="43.73005" lon="2.47124">
        <ele>444.9</ele>
        <time>2020-03-27T11:18:18Z</time>
      </trkpt>
      <trkpt lat="43.73016" lon="2.47122">
        <ele>444.7</ele>
        <time>2020-03-27T11:18:20Z</time>
      </trkpt>
      <trkpt lat="43.73027" lon="2.47118">
        <ele>444.2</ele>
        <time>2020-03-27T11:18:22Z</time>
      </trkpt>
      <trkpt lat="43.73039" lon="2.47117">
        <ele>444</ele>
        <time>2020-03-27T11:18:24Z</time>
      </trkpt>
      <trkpt lat="43.73049" lon="2.47119">
        <ele>443.9</ele>
        <time>2020-03-27T11:18:26Z</time>
      </trkpt>
      <trkpt lat="43.73058" lon="2.47126">
        <ele>443.6</ele>
        <time>2020-03-27T11:18:28Z</time>
      </trkpt>
      <trkpt lat="43.73065" lon="2.47135">
        <ele>443.1</ele>
        <time>2020-03-27T11:18:30Z</time>
      </trkpt>
      <trkpt lat="43.73072" lon="2.47143">
        <ele>442.4</ele>
        <time>2020-03-27T11:18:32Z</time>
      </trkpt>
      <trkpt lat="43.73079" lon="2.47153">
        <ele>441.9</ele>
        <time>2020-03-27T11:18:34Z</time>
      </trkpt>
      <trkpt lat="43.73087" lon="2.47162">
        <ele>441.4</ele>
        <time>2020-03-27T11:18:36Z</time>
      </trkpt>
      <trkpt lat="43.73093" lon="2.47172">
        <ele>440.7</ele>
        <time>2020-03-27T11:18:38Z</time>
      </trkpt>
      <trkpt lat="43.73099" lon="2.47182">
        <ele>440.1</ele>
        <time>2020-03-27T11:18:40Z</time>
      </trkpt>
      <trkpt lat="43.73106" lon="2.47192">
        <ele>439.6</ele>
        <time>2020-03-27T11:18:42Z</time>
      </trkpt>
      <trkpt lat="43.73115" lon="2.47199">
        <ele>439.4</ele>
        <time>2020-03-27T11:18:44Z</time>
      </trkpt>
      <trkpt lat="43.73124" lon="2.47205">
        <ele>439.4</ele>
        <time>2020-03-27T11:18:46Z</time>
      </trkpt>
      <trkpt lat="43.73133" lon="2.4721">
        <ele>439.4</ele>
        <time>2020-03-27T11:18:48Z</time>
      </trkpt>
      <trkpt lat="43.73144" lon="2.47211">
        <ele>439.7</ele>
        <time>2020-03-27T11:18:50Z</time>
      </trkpt>
      <trkpt lat="43.73155" lon="2.47212">
        <ele>440</ele>
        <time>2020-03-27T11:18:52Z</time>
      </trkpt>
      <trkpt lat="43.73166" lon="2.47212">
        <ele>440.4</ele>
        <time>2020-03-27T11:18:54Z</time>
      </trkpt>
      <trkpt lat="43.73178" lon="2.4721">
        <ele>440.8</ele>
        <time>2020-03-27T11:18:56Z</time>
      </trkpt>
      <trkpt lat="43.73191" lon="2.47207">
        <ele>441.3</ele>
        <time>2020-03-27T11:18:58Z</time>
      </trkpt>
      <trkpt lat="43.73206" lon="2.47201">
        <ele>441.9</ele>
        <time>2020-03-27T11:19:00Z</time>
      </trkpt>
      <trkpt lat="43.73221" lon="2.47197">
        <ele>442.6</ele>
        <time>2020-03-27T11:19:02Z</time>
      </trkpt>
      <trkpt lat="43.73236" lon="2.4719">
        <ele>443.2</ele>
        <time>2020-03-27T11:19:04Z</time>
      </trkpt>
      <trkpt lat="43.73251" lon="2.47184">
        <ele>443.6</ele>
        <time>2020-03-27T11:19:06Z</time>
      </trkpt>
      <trkpt lat="43.73267" lon="2.47188">
        <ele>443.7</ele>
        <time>2020-03-27T11:19:08Z</time>
      </trkpt>
      <trkpt lat="43.73281" lon="2.472">
        <ele>443.6</ele>
        <time>2020-03-27T11:19:10Z</time>
      </trkpt>
      <trkpt lat="43.73293" lon="2.47217">
        <ele>443.2</ele>
        <time>2020-03-27T11:19:12Z</time>
      </trkpt>
      <trkpt lat="43.73303" lon="2.47234">
        <ele>442.6</ele>
        <time>2020-03-27T11:19:14Z</time>
      </trkpt>
      <trkpt lat="43.73314" lon="2.47251">
        <ele>441.9</ele>
        <time>2020-03-27T11:19:16Z</time>
      </trkpt>
      <trkpt lat="43.73324" lon="2.47267">
        <ele>441.2</ele>
        <time>2020-03-27T11:19:18Z</time>
      </trkpt>
      <trkpt lat="43.73332" lon="2.47284">
        <ele>440.5</ele>
        <time>2020-03-27T11:19:20Z</time>
      </trkpt>
      <trkpt lat="43.73336" lon="2.47302">
        <ele>439.9</ele>
        <time>2020-03-27T11:19:22Z</time>
      </trkpt>
      <trkpt lat="43.7334" lon="2.4732">
        <ele>439.5</ele>
        <time>2020-03-27T11:19:24Z</time>
      </trkpt>
      <trkpt lat="43.73341" lon="2.4734">
        <ele>438.9</ele>
        <time>2020-03-27T11:19:26Z</time>
      </trkpt>
      <trkpt lat="43.73338" lon="2.47361">
        <ele>438.6</ele>
        <time>2020-03-27T11:19:28Z</time>
      </trkpt>
      <trkpt lat="43.73337" lon="2.47382">
        <ele>438.4</ele>
        <time>2020-03-27T11:19:30Z</time>
      </trkpt>
      <trkpt lat="43.73335" lon="2.47403">
        <ele>438.1</ele>
        <time>2020-03-27T11:19:32Z</time>
      </trkpt>
      <trkpt lat="43.73334" lon="2.47424">
        <ele>437.9</ele>
        <time>2020-03-27T11:19:34Z</time>
      </trkpt>
      <trkpt lat="43.73335" lon="2.47446">
        <ele>438</ele>
        <time>2020-03-27T11:19:36Z</time>
      </trkpt>
      <trkpt lat="43.73336" lon="2.47468">
        <ele>438.4</ele>
        <time>2020-03-27T11:19:38Z</time>
      </trkpt>
      <trkpt lat="43.73341" lon="2.4749">
        <ele>439</ele>
        <time>2020-03-27T11:19:40Z</time>
      </trkpt>
      <trkpt lat="43.73348" lon="2.47511">
        <ele>439.5</ele>
        <time>2020-03-27T11:19:42Z</time>
      </trkpt>
      <trkpt lat="43.73358" lon="2.4753">
        <ele>439.9</ele>
        <time>2020-03-27T11:19:44Z</time>
      </trkpt>
      <trkpt lat="43.73369" lon="2.47546">
        <ele>440.4</ele>
        <time>2020-03-27T11:19:46Z</time>
      </trkpt>
      <trkpt lat="43.73379" lon="2.47562">
        <ele>440.4</ele>
        <time>2020-03-27T11:19:48Z</time>
      </trkpt>
      <trkpt lat="43.73392" lon="2.47573">
        <ele>440.4</ele>
        <time>2020-03-27T11:19:50Z</time>
      </trkpt>
      <trkpt lat="43.73404" lon="2.47582">
        <ele>440</ele>
        <time>2020-03-27T11:19:52Z</time>
      </trkpt>
      <trkpt lat="43.73418" lon="2.47584">
        <ele>439.6</ele>
        <time>2020-03-27T11:19:54Z</time>
      </trkpt>
      <trkpt lat="43.73432" lon="2.47587">
        <ele>439</ele>
        <time>2020-03-27T11:19:56Z</time>
      </trkpt>
      <trkpt lat="43.73446" lon="2.47587">
        <ele>438.6</ele>
        <time>2020-03-27T11:19:58Z</time>
      </trkpt>
      <trkpt lat="43.73461" lon="2.47582">
        <ele>438.1</ele>
        <time>2020-03-27T11:20:00Z</time>
      </trkpt>
      <trkpt lat="43.73475" lon="2.47568">
        <ele>438</ele>
        <time>2020-03-27T11:20:02Z</time>
      </trkpt>
      <trkpt lat="43.73489" lon="2.47552">
        <ele>437.8</ele>
        <time>2020-03-27T11:20:04Z</time>
      </trkpt>
      <trkpt lat="43.73501" lon="2.47541">
        <ele>437.1</ele>
        <time>2020-03-27T11:20:06Z</time>
      </trkpt>
      <trkpt lat="43.73514" lon="2.47528">
        <ele>436.2</ele>
        <time>2020-03-27T11:20:08Z</time>
      </trkpt>
      <trkpt lat="43.73527" lon="2.47511">
        <ele>435.8</ele>
        <time>2020-03-27T11:20:10Z</time>
      </trkpt>
      <trkpt lat="43.7354" lon="2.47501">
        <ele>435.3</ele>
        <time>2020-03-27T11:20:12Z</time>
      </trkpt>
      <trkpt lat="43.73554" lon="2.47489">
        <ele>434.4</ele>
        <time>2020-03-27T11:20:14Z</time>
      </trkpt>
      <trkpt lat="43.73562" lon="2.47483">
        <ele>433.3</ele>
        <time>2020-03-27T11:20:15Z</time>
      </trkpt>
      <trkpt lat="43.73571" lon="2.47478">
        <ele>432.1</ele>
        <time>2020-03-27T11:20:16Z</time>
      </trkpt>
      <trkpt lat="43.7358" lon="2.47473">
        <ele>430.9</ele>
        <time>2020-03-27T11:20:17Z</time>
      </trkpt>
      <trkpt lat="43.73589" lon="2.47469">
        <ele>429.7</ele>
        <time>2020-03-27T11:20:18Z</time>
      </trkpt>
      <trkpt lat="43.73605" lon="2.47465">
        <ele>428</ele>
        <time>2020-03-27T11:20:20Z</time>
      </trkpt>
      <trkpt lat="43.7362" lon="2.47461">
        <ele>427</ele>
        <time>2020-03-27T11:20:22Z</time>
      </trkpt>
      <trkpt lat="43.73636" lon="2.47457">
        <ele>426.8</ele>
        <time>2020-03-27T11:20:24Z</time>
      </trkpt>
      <trkpt lat="43.73652" lon="2.47451">
        <ele>427.3</ele>
        <time>2020-03-27T11:20:26Z</time>
      </trkpt>
      <trkpt lat="43.73666" lon="2.47448">
        <ele>428.2</ele>
        <time>2020-03-27T11:20:28Z</time>
      </trkpt>
      <trkpt lat="43.73682" lon="2.47444">
        <ele>428.9</ele>
        <time>2020-03-27T11:20:30Z</time>
      </trkpt>
      <trkpt lat="43.73697" lon="2.4744">
        <ele>429.2</ele>
        <time>2020-03-27T11:20:32Z</time>
      </trkpt>
      <trkpt lat="43.73711" lon="2.47436">
        <ele>429.1</ele>
        <time>2020-03-27T11:20:34Z</time>
      </trkpt>
      <trkpt lat="43.73726" lon="2.47434">
        <ele>428.8</ele>
        <time>2020-03-27T11:20:36Z</time>
      </trkpt>
      <trkpt lat="43.7374" lon="2.47433">
        <ele>428.3</ele>
        <time>2020-03-27T11:20:38Z</time>
      </trkpt>
      <trkpt lat="43.73752" lon="2.47433">
        <ele>427.6</ele>
        <time>2020-03-27T11:20:40Z</time>
      </trkpt>
      <trkpt lat="43.73763" lon="2.47437">
        <ele>426.9</ele>
        <time>2020-03-27T11:20:42Z</time>
      </trkpt>
      <trkpt lat="43.73772" lon="2.47443">
        <ele>426.3</ele>
        <time>2020-03-27T11:20:44Z</time>
      </trkpt>
      <trkpt lat="43.73782" lon="2.47443">
        <ele>425.8</ele>
        <time>2020-03-27T11:20:47Z</time>
      </trkpt>
      <trkpt lat="43.73781" lon="2.47427">
        <ele>425.3</ele>
        <time>2020-03-27T11:20:50Z</time>
      </trkpt>
      <trkpt lat="43.73778" lon="2.4741">
        <ele>424.7</ele>
        <time>2020-03-27T11:20:53Z</time>
      </trkpt>
      <trkpt lat="43.73775" lon="2.47394">
        <ele>424.3</ele>
        <time>2020-03-27T11:20:56Z</time>
      </trkpt>
      <trkpt lat="43.73774" lon="2.47379">
        <ele>424.2</ele>
        <time>2020-03-27T11:21:00Z</time>
      </trkpt>
      <trkpt lat="43.73772" lon="2.47366">
        <ele>424.1</ele>
        <time>2020-03-27T11:21:04Z</time>
      </trkpt>
      <trkpt lat="43.73769" lon="2.47356">
        <ele>423.9</ele>
        <time>2020-03-27T11:21:38Z</time>
      </trkpt>
    </trkseg>
  </trk>
</gpx>